[[{"header":{"parameterUnit":"m.s-1","parameterCategory":1,"la1":30.6,"la2":28.766,"lo1":-90.7593,"lo2":-88.6598,"dy":0.0162,"dx":0.0183,"nx":116,"ny":114,"refTime":"2023-02-23T18:00:00:Z","depth":0,"parameterNumber":2,"parameterNumberName":"U-component_of_WINDS"},"data":[0.0,0.0,0.0,0.0,0.0,0.0,0.0,0.0,0.0,0.0,0.0,0.0,0.0,0.0,0.0,0.0,0.0,0.0,0.0,0.0,0.0,0.0,0.0,0.0,0.0,0.0,0.0,0.0,0.0,0.0,0.0,0.0,0.0,0.0,0.0,0.0,0.0,0.0,0.0,0.0,0.0,0.0,0.0,0.0,0.0,0.0,0.0,0.0,0.0,0.0,0.0,0.0,0.0,0.0,0.0,0.0,0.0,0.0,0.0,0.0,0.0,0.0,0.0,0.0,0.0,0.0,0.0,0.0,0.0,0.0,0.0,0.0,0.0,0.0,0.0,0.0,0.0,0.0,0.0,0.0,0.0,0.0,0.0,0.0,0.0,0.0,0.0,0.0,0.0,0.0,0.0,0.0,0.0,0.0,0.0,0.0,0.0,0.0,0.0,0.0,0.0,0.0,0.0,0.0,0.0,0.0,0.0,0.0,0.0,0.0,0.0,0.0,0.0,0.0,0.0,0.0,0.0,0.0,0.0,0.0,0.0,0.0,0.0,0.0,0.0,0.0,0.0,0.0,0.0,0.0,0.0,0.0,0.0,0.0,0.0,0.0,0.0,0.0,0.0,0.0,0.0,0.0,0.0,0.0,0.0,0.0,0.0,0.0,0.0,0.0,0.0,0.0,0.0,0.0,0.0,0.0,0.0,0.0,0.0,0.0,0.0,0.0,0.0,0.0,0.0,0.0,0.0,0.0,0.0,0.0,0.0,0.0,0.0,0.0,0.0,0.0,0.0,0.0,0.0,0.0,0.0,0.0,0.0,0.0,0.0,0.0,0.0,0.0,0.0,0.0,0.0,0.0,0.0,0.0,0.0,0.0,0.0,0.0,0.0,0.0,0.0,0.0,0.0,0.0,0.0,0.0,0.0,0.0,0.0,0.0,0.0,0.0,0.0,0.0,0.0,0.0,0.0,0.0,0.0,0.0,0.0,0.0,0.0,0.0,0.0,0.0,0.0,0.0,0.0,0.0,0.0,0.0,0.0,0.0,0.0,0.0,0.0,0.0,0.0,0.0,0.0,0.0,0.0,0.0,0.0,0.0,0.0,0.0,0.0,0.0,0.0,0.0,0.0,0.0,0.0,0.0,0.0,0.0,0.0,0.0,0.0,0.0,0.0,0.0,0.0,0.0,0.0,0.0,0.0,0.0,0.0,0.0,0.0,0.0,0.0,0.0,0.0,0.0,0.0,0.0,0.0,0.0,0.0,0.0,0.0,0.0,0.0,0.0,0.0,0.0,0.0,0.0,0.0,0.0,0.0,0.0,0.0,0.0,0.0,0.0,0.0,0.0,0.0,0.0,0.0,0.0,0.0,0.0,0.0,0.0,0.0,0.0,0.0,0.0,0.0,0.0,0.0,0.0,0.0,0.0,0.0,0.0,0.0,0.0,0.0,0.0,0.0,0.0,0.0,0.0,0.0,0.0,0.0,0.0,0.0,0.0,0.0,0.0,0.0,0.0,0.0,0.0,0.0,0.0,0.0,0.0,0.0,0.0,0.0,0.0,0.0,0.0,0.0,0.0,0.0,0.0,0.0,0.0,0.0,0.0,0.0,0.0,0.0,0.0,0.0,0.0,0.0,0.0,0.0,0.0,0.0,0.0,0.0,0.0,0.0,0.0,0.0,0.0,0.0,0.0,0.0,0.0,0.0,0.0,0.0,0.0,0.0,0.0,0.0,0.0,0.0,0.0,0.0,0.0,0.0,0.0,0.0,0.0,0.0,0.0,0.0,0.0,0.0,0.0,0.0,0.0,0.0,0.0,0.0,0.0,0.0,0.0,0.0,0.0,0.0,0.0,0.0,0.0,0.0,0.0,0.0,0.0,0.0,0.0,0.0,0.0,0.0,0.0,0.0,0.0,0.0,0.0,0.0,0.0,0.0,0.0,0.0,0.0,0.0,0.0,0.0,0.0,0.0,0.0,0.0,0.0,0.0,0.0,0.0,0.0,0.0,0.0,0.0,0.0,0.0,0.0,0.0,0.0,0.0,0.0,0.0,0.0,0.0,0.0,0.0,0.0,0.0,0.0,0.0,0.0,0.0,0.0,0.0,0.0,0.0,0.0,0.0,0.0,0.0,0.0,0.0,0.0,0.0,0.0,0.0,0.0,0.0,0.0,0.0,0.0,0.0,0.0,0.0,0.0,0.0,0.0,0.0,0.0,0.0,0.0,0.0,0.0,0.0,0.0,0.0,0.0,0.0,0.0,0.0,0.0,0.0,0.0,0.0,0.0,0.0,0.0,0.0,0.0,0.0,0.0,0.0,0.0,0.0,0.0,0.0,0.0,0.0,0.0,0.0,0.0,0.0,0.0,0.0,0.0,0.0,0.0,0.0,0.0,0.0,0.0,0.0,0.0,0.0,0.0,0.0,0.0,0.0,0.0,0.0,0.0,0.0,0.0,0.0,0.0,0.0,0.0,0.0,0.0,0.0,0.0,0.0,0.0,0.0,0.0,0.0,0.0,0.0,0.0,0.0,0.0,0.0,0.0,0.0,0.0,0.0,0.0,0.0,0.0,0.0,0.0,0.0,0.0,0.0,0.0,0.0,0.0,0.0,0.0,0.0,0.0,0.0,0.0,0.0,0.0,0.0,0.0,0.0,0.0,0.0,0.0,0.0,0.0,0.0,0.0,0.0,0.0,0.0,0.0,0.0,0.0,0.0,0.0,0.0,0.0,0.0,0.0,0.0,0.0,0.0,0.0,0.0,0.0,0.0,0.0,0.0,0.0,0.0,0.0,0.0,0.0,0.0,0.0,0.0,0.0,0.0,0.0,0.0,0.0,0.0,0.0,0.0,0.0,0.0,0.0,0.0,0.0,0.0,0.0,0.0,0.0,0.0,0.0,0.0,0.0,0.0,0.0,0.0,0.0,0.0,0.0,0.0,0.0,0.0,0.0,0.0,0.0,0.0,0.0,0.0,0.0,0.0,0.0,0.0,0.0,0.0,0.0,0.0,0.0,0.0,0.0,0.0,0.0,0.0,0.0,0.0,0.0,0.0,0.0,0.0,0.0,0.0,0.0,0.0,0.0,0.0,0.0,0.0,0.0,0.0,0.0,0.0,0.0,0.0,0.0,0.0,0.0,0.0,0.0,0.0,0.0,0.0,0.0,0.0,0.0,0.0,0.0,0.0,0.0,0.0,0.0,0.0,0.0,0.0,0.0,0.0,0.0,0.0,0.0,0.0,0.0,0.0,0.0,0.0,0.0,0.0,0.0,0.0,0.0,0.0,0.0,0.0,0.0,0.0,0.0,0.0,0.0,0.0,0.0,0.0,0.0,0.0,0.0,0.0,0.0,0.0,0.0,0.0,0.0,0.0,0.0,0.0,0.0,0.0,0.0,0.0,0.0,0.0,0.0,0.0,0.0,0.0,0.0,0.0,0.0,0.0,0.0,0.0,0.0,0.0,0.0,0.0,0.0,0.0,0.0,0.0,0.0,0.0,0.0,0.0,0.0,0.0,0.0,0.0,0.0,0.0,0.0,0.0,0.0,0.0,0.0,0.0,0.0,0.0,0.0,0.0,0.0,0.0,0.0,0.0,0.0,0.0,0.0,0.0,0.0,0.0,0.0,0.0,0.0,0.0,0.0,0.0,0.0,0.0,0.0,0.0,0.0,0.0,0.0,0.0,0.0,0.0,0.0,0.0,0.0,0.0,0.0,0.0,0.0,0.0,0.0,0.0,0.0,0.0,0.0,0.0,0.0,0.0,0.0,0.0,0.0,0.0,0.0,0.0,0.0,0.0,0.0,0.0,0.0,0.0,0.0,0.0,0.0,0.0,0.0,0.0,0.0,0.0,0.0,0.0,0.0,0.0,0.0,0.0,0.0,0.0,0.0,0.0,0.0,0.0,0.0,0.0,0.0,0.0,0.0,0.0,0.0,0.0,0.0,0.0,0.0,0.0,0.0,0.0,0.0,0.0,0.0,0.0,0.0,0.0,0.0,0.0,0.0,0.0,0.0,0.0,0.0,0.0,0.0,0.0,0.0,0.0,0.0,0.0,0.0,0.0,0.0,0.0,0.0,0.0,0.0,0.0,0.0,0.0,0.0,0.0,0.0,0.0,0.0,0.0,0.0,0.0,0.0,0.0,0.0,0.0,0.0,0.0,0.0,0.0,0.0,0.0,0.0,0.0,0.0,0.0,0.0,0.0,0.0,0.0,0.0,0.0,0.0,0.0,0.0,0.0,0.0,0.0,0.0,0.0,0.0,0.0,0.0,0.0,0.0,0.0,0.0,0.0,0.0,0.0,0.0,0.0,0.0,0.0,0.0,0.0,0.0,0.0,0.0,0.0,0.0,0.0,0.0,0.0,0.0,0.0,0.0,0.0,0.0,0.0,0.0,0.0,0.0,0.0,0.0,0.0,0.0,0.0,0.0,0.0,0.0,0.0,0.0,0.0,0.0,0.0,0.0,0.0,0.0,0.0,0.0,0.0,0.0,0.0,0.0,0.0,0.0,0.0,0.0,0.0,0.0,0.0,0.0,0.0,0.0,0.0,0.0,0.0,0.0,0.0,0.0,0.0,0.0,0.0,0.0,0.0,0.0,0.0,0.0,0.0,0.0,0.0,0.0,0.0,0.0,0.0,0.0,0.0,0.0,0.0,0.0,0.0,0.0,0.0,0.0,0.0,0.0,0.0,0.0,0.0,0.0,0.0,0.0,0.0,0.0,0.0,0.0,0.0,0.0,0.0,0.0,0.0,0.0,0.0,0.0,0.0,0.0,0.0,0.0,0.0,0.0,0.0,0.0,0.0,0.0,0.0,0.0,0.0,0.0,0.0,0.0,0.0,0.0,0.0,0.0,0.0,0.0,0.0,0.0,0.0,0.0,0.0,0.0,0.0,0.0,0.0,0.0,0.0,0.0,0.0,0.0,0.0,0.0,0.0,0.0,0.0,0.0,0.0,0.0,0.0,0.0,0.0,0.0,0.0,0.0,0.0,0.0,0.0,0.0,0.0,0.0,0.0,0.0,0.0,0.0,0.0,0.0,0.0,0.0,0.0,0.0,0.0,0.0,0.0,0.0,0.0,0.0,0.0,0.0,0.0,0.0,0.0,0.0,0.0,0.0,0.0,0.0,0.0,0.0,0.0,0.0,0.0,0.0,0.0,0.0,0.0,0.0,0.0,0.0,0.0,0.0,0.0,0.0,0.0,0.0,0.0,0.0,0.0,0.0,0.0,0.0,0.0,0.0,0.0,0.0,0.0,0.0,0.0,0.0,0.0,0.0,0.0,0.0,0.0,0.0,0.0,0.0,0.0,0.0,0.0,0.0,0.0,0.0,0.0,0.0,0.0,0.0,0.0,0.0,0.0,0.0,0.0,0.0,0.0,0.0,0.0,0.0,0.0,0.0,0.0,0.0,0.0,0.0,0.0,0.0,0.0,0.0,0.0,0.0,0.0,0.0,0.0,0.0,0.0,0.0,0.0,0.0,0.0,0.0,0.0,0.0,0.0,0.0,0.0,0.0,0.0,0.0,0.0,0.0,0.0,0.0,0.0,0.0,0.0,0.0,0.0,0.0,0.0,0.0,0.0,0.0,0.0,0.0,0.0,0.0,0.0,0.0,0.0,0.0,0.0,0.0,0.0,0.0,0.0,0.0,0.0,0.0,0.0,0.0,0.0,0.0,0.0,0.0,0.0,0.0,0.0,0.0,0.0,0.0,0.0,0.0,0.0,0.0,0.0,0.0,0.0,0.0,0.0,0.0,0.0,0.0,0.0,0.0,0.0,0.0,0.0,0.0,0.0,0.0,0.0,0.0,0.0,0.0,0.0,0.0,0.0,0.0,0.0,0.0,0.0,0.0,0.0,0.0,0.0,0.0,0.0,0.0,0.0,0.0,0.0,0.0,0.0,0.0,0.0,0.0,0.0,0.0,0.0,0.0,0.0,0.0,0.0,0.0,0.0,0.0,0.0,0.0,0.0,0.0,0.0,0.0,0.0,0.0,0.0,0.0,0.0,0.0,0.0,0.0,0.0,0.0,0.0,0.0,0.0,0.0,0.0,0.0,0.0,0.0,0.0,0.0,0.0,0.0,0.0,0.0,0.0,0.0,0.0,0.0,0.0,0.0,-2.9479,0.0,0.0,0.0,0.0,0.0,0.0,0.0,0.0,0.0,0.0,0.0,0.0,0.0,0.0,0.0,0.0,0.0,0.0,0.0,0.0,0.0,0.0,0.0,0.0,0.0,0.0,0.0,0.0,0.0,0.0,0.0,0.0,0.0,0.0,0.0,0.0,0.0,0.0,0.0,0.0,0.0,0.0,0.0,0.0,0.0,0.0,0.0,0.0,0.0,0.0,0.0,0.0,0.0,0.0,0.0,0.0,0.0,0.0,0.0,0.0,0.0,0.0,0.0,0.0,0.0,0.0,0.0,0.0,0.0,0.0,0.0,0.0,0.0,0.0,0.0,0.0,0.0,0.0,0.0,0.0,0.0,0.0,0.0,0.0,0.0,0.0,0.0,0.0,0.0,0.0,0.0,0.0,0.0,0.0,0.0,0.0,0.0,0.0,0.0,0.0,0.0,0.0,0.0,0.0,0.0,0.0,0.0,0.0,0.0,0.0,0.0,0.0,0.0,0.0,0.0,0.0,-2.9694,0.0,0.0,0.0,0.0,0.0,0.0,0.0,0.0,0.0,0.0,0.0,0.0,0.0,0.0,0.0,0.0,0.0,0.0,0.0,0.0,0.0,0.0,0.0,0.0,0.0,0.0,0.0,0.0,0.0,0.0,0.0,0.0,0.0,0.0,0.0,0.0,0.0,0.0,0.0,0.0,0.0,0.0,0.0,0.0,0.0,0.0,0.0,0.0,0.0,0.0,0.0,0.0,0.0,0.0,0.0,0.0,0.0,0.0,0.0,0.0,0.0,0.0,0.0,0.0,0.0,0.0,0.0,0.0,0.0,0.0,0.0,0.0,0.0,0.0,0.0,0.0,0.0,0.0,0.0,0.0,0.0,0.0,0.0,0.0,0.0,0.0,0.0,0.0,0.0,0.0,0.0,0.0,0.0,0.0,0.0,0.0,0.0,0.0,0.0,0.0,0.0,0.0,0.0,0.0,0.0,0.0,0.0,0.0,-2.7525,-2.7448,-2.7448,-2.7448,-2.7044,-2.6447,-2.7832,-2.8113,-2.7776,0.0,0.0,0.0,0.0,0.0,0.0,0.0,0.0,0.0,0.0,0.0,0.0,0.0,0.0,0.0,0.0,0.0,0.0,0.0,0.0,0.0,0.0,0.0,0.0,0.0,0.0,0.0,0.0,0.0,0.0,0.0,0.0,0.0,0.0,0.0,0.0,0.0,0.0,0.0,-2.8301,-2.8301,-2.8828,-2.9746,-2.9101,0.0,0.0,0.0,0.0,0.0,0.0,0.0,0.0,0.0,0.0,0.0,0.0,0.0,0.0,0.0,0.0,0.0,0.0,0.0,0.0,0.0,0.0,0.0,0.0,0.0,0.0,0.0,0.0,0.0,0.0,0.0,0.0,0.0,0.0,0.0,0.0,0.0,0.0,0.0,0.0,0.0,0.0,0.0,-2.6223,-2.7097,0.0,0.0,0.0,0.0,0.0,0.0,0.0,0.0,0.0,0.0,0.0,0.0,0.0,-2.8011,-2.7895,-2.7159,-2.6774,-2.6755,-2.6,-2.5635,-2.5635,-2.5635,-2.5577,-2.5481,-2.5692,0.0,-2.7876,-2.8318,0.0,0.0,0.0,0.0,0.0,0.0,0.0,0.0,0.0,0.0,0.0,0.0,0.0,0.0,0.0,0.0,0.0,0.0,0.0,0.0,0.0,0.0,0.0,0.0,0.0,0.0,0.0,0.0,0.0,0.0,0.0,0.0,0.0,0.0,0.0,0.0,-2.7109,-2.7793,-2.9023,-2.8535,-2.9023,-3.0293,-2.9414,-2.9941,-3.1445,-3.1055,0.0,0.0,0.0,0.0,0.0,0.0,0.0,0.0,0.0,0.0,0.0,0.0,0.0,0.0,0.0,0.0,0.0,0.0,0.0,0.0,0.0,0.0,0.0,0.0,0.0,0.0,0.0,0.0,0.0,0.0,0.0,0.0,0.0,0.0,0.0,0.0,0.0,0.0,0.0,-2.7666,-2.7175,-2.8014,-2.8386,-2.8915,0.0,0.0,0.0,0.0,0.0,0.0,0.0,0.0,0.0,-2.8569,-2.7659,-2.7178,-2.7178,-2.6288,-2.5865,-2.5865,-2.5481,-2.5308,-2.5308,-2.5308,-2.5308,-2.5308,-2.5308,-2.5731,-2.6505,-2.7505,-2.8275,-2.8986,0.0,0.0,0.0,0.0,-3.1602,-3.2006,0.0,0.0,0.0,0.0,0.0,0.0,0.0,0.0,0.0,0.0,0.0,0.0,0.0,0.0,0.0,-2.6406,0.0,0.0,0.0,0.0,0.0,0.0,0.0,0.0,0.0,0.0,0.0,-2.7324,-2.8203,-2.9082,-2.9922,-2.9707,-3.0293,-3.1504,-3.0859,-3.082,-3.1191,-3.0762,-3.1074,0.0,0.0,0.0,0.0,0.0,0.0,0.0,0.0,0.0,0.0,0.0,0.0,0.0,0.0,0.0,0.0,0.0,0.0,0.0,0.0,0.0,0.0,0.0,0.0,0.0,0.0,0.0,0.0,0.0,0.0,0.0,0.0,0.0,0.0,0.0,0.0,0.0,0.0,-2.7692,-2.7396,-2.8444,-2.829,-2.8563,0.0,0.0,0.0,0.0,0.0,0.0,-2.9069,-2.853,-2.8396,-2.878,-2.7582,-2.6928,-2.6928,-2.6288,-2.5846,-2.5635,-2.5865,-2.5846,-2.5635,-2.5635,-2.5635,-2.5615,-2.5404,-2.5308,-2.5404,-2.6697,-2.6986,-2.6813,-2.8923,-2.964,-2.9563,-3.0641,-3.1179,-3.1212,0.0,0.0,0.0,0.0,0.0,0.0,0.0,0.0,0.0,0.0,0.0,0.0,0.0,0.0,-2.7324,-2.8105,-2.8281,-2.7969,0.0,0.0,0.0,0.0,0.0,0.0,0.0,0.0,0.0,-2.8223,-2.9101,-2.998,-3.0879,-3.2422,-3.3184,-3.3262,-3.3223,-3.2812,-3.2031,-3.0371,-3.0176,-3.0976,0.0,0.0,0.0,0.0,0.0,0.0,0.0,0.0,0.0,0.0,0.0,0.0,0.0,0.0,0.0,0.0,0.0,0.0,0.0,0.0,0.0,0.0,0.0,0.0,0.0,0.0,0.0,0.0,0.0,0.0,0.0,0.0,0.0,0.0,0.0,0.0,0.0,0.0,0.0,-2.6629,-2.6044,0.0,0.0,0.0,0.0,-2.905,-2.9069,-2.9069,-2.9107,-2.9069,-2.8703,-2.7992,-2.7876,-2.7838,-2.7838,-2.7799,-2.7351,-2.6544,-2.7371,-2.7332,-2.6524,-2.6524,-2.6524,-2.6486,-2.5654,-2.5308,-2.5308,-2.5385,-2.5885,-2.6697,-2.764,-2.8967,-3.0231,-2.9506,-2.9756,-3.0231,0.0,0.0,0.0,0.0,0.0,0.0,0.0,0.0,0.0,0.0,0.0,0.0,0.0,-2.918,-2.9863,-3.0723,-3.0801,-2.9961,-2.7969,0.0,0.0,0.0,0.0,0.0,0.0,0.0,-2.7695,-2.9141,-3.0019,-3.1152,-3.2519,-3.3125,-3.4004,-3.5059,-3.4492,-3.4082,-3.3652,-3.1406,-3.0293,-3.0019,-2.9453,-2.9551,0.0,0.0,0.0,0.0,0.0,0.0,0.0,0.0,0.0,0.0,0.0,0.0,0.0,0.0,0.0,0.0,0.0,0.0,0.0,0.0,0.0,0.0,0.0,0.0,0.0,0.0,0.0,0.0,0.0,0.0,0.0,0.0,0.0,0.0,0.0,0.0,0.0,-2.8804,-2.8791,0.0,-3.0948,-3.0641,-3.0467,-3.0756,-3.0256,-3.0179,-3.0737,-2.9704,-2.9473,-3.0314,-2.8756,-2.8145,-2.8665,-2.8165,-2.7736,-2.7448,-2.7761,-2.7741,-2.7448,-2.7448,-2.7448,-2.7409,-2.7101,-2.6967,-2.6967,-2.6967,-2.6832,-2.6697,-2.7563,-2.8275,-2.8813,-2.903,-2.93,-2.9563,0.0,0.0,0.0,0.0,0.0,0.0,0.0,0.0,0.0,0.0,0.0,-2.7656,-2.9414,-3.0644,-3.1562,-3.2148,-3.1934,-3.0781,-2.8457,0.0,0.0,0.0,0.0,0.0,0.0,-2.7578,-2.8437,-2.9609,-3.1035,-3.2305,-3.3418,-3.4004,-3.4883,-3.5976,-3.5391,-3.5137,-3.5019,-3.3027,-3.1523,-3.0371,-2.9219,-2.9609,-3.082,0.0,0.0,0.0,0.0,0.0,0.0,0.0,0.0,0.0,0.0,0.0,0.0,0.0,0.0,0.0,0.0,0.0,0.0,0.0,0.0,0.0,0.0,0.0,0.0,0.0,0.0,0.0,0.0,0.0,0.0,0.0,0.0,0.0,0.0,0.0,-2.8296,-3.0604,-3.0593,-3.0966,-3.2397,-3.1754,-3.1385,-3.1679,-3.1154,-3.1212,-3.2064,-3.0756,-3.0621,-3.2064,-3.0198,-2.9563,-3.0377,-2.9852,-2.9448,-2.9179,-2.9179,-2.9025,-2.8736,-2.8434,-2.8299,-2.8299,-2.803,-2.7895,-2.7915,-2.8184,-2.7967,-2.7467,-2.7775,-2.8255,-2.8775,-2.9011,-2.9473,-3.0025,0.0,0.0,0.0,0.0,0.0,0.0,0.0,0.0,0.0,0.0,-2.6504,-2.7754,-2.9492,-3.1211,-3.2246,-3.2285,-3.1387,-3.0098,-2.8418,-2.6641,0.0,0.0,0.0,0.0,-2.707,-2.873,-2.9629,-2.9687,-3.2187,-3.3418,-3.3476,-3.5195,-3.5996,-3.5996,-3.5996,-3.6016,-3.5996,-3.5137,-3.3867,-3.2246,-3.041,-3.1133,-3.3144,0.0,0.0,0.0,0.0,0.0,0.0,0.0,0.0,0.0,0.0,0.0,0.0,0.0,0.0,0.0,0.0,0.0,0.0,0.0,0.0,0.0,0.0,0.0,0.0,0.0,0.0,0.0,0.0,0.0,0.0,0.0,0.0,0.0,-2.7895,-2.8613,-2.9808,-3.1626,-3.1069,-3.0921,-3.1859,-3.116,-3.0981,-3.1833,-3.1872,-3.2199,-3.2987,-3.2237,-3.2141,-3.291,-3.216,-3.2102,-3.2891,-3.2891,-3.2506,-3.1737,-3.1743,-3.1295,-3.0442,-2.9608,-2.9228,-2.9165,-2.8376,-2.803,-2.8088,-2.8838,-2.9165,-2.9107,-2.8299,-2.8967,-3.0308,-2.9448,-3.0217,-3.1545,0.0,0.0,0.0,0.0,0.0,0.0,0.0,0.0,0.0,0.0,-2.7559,-2.9551,-3.1309,-3.2422,-3.332,-3.3965,-3.0957,-2.8809,-2.832,0.0,0.0,0.0,0.0,0.0,-2.8867,-2.9355,-3.0215,-3.1484,-3.2773,-3.3711,-3.4375,-3.5488,-3.5996,-3.5996,-3.5996,-3.6348,-3.6934,-3.6699,-3.668,-3.6523,-3.293,-3.1523,-3.1543,0.0,0.0,0.0,0.0,0.0,0.0,0.0,0.0,0.0,0.0,0.0,0.0,0.0,0.0,0.0,0.0,0.0,0.0,0.0,0.0,0.0,0.0,0.0,0.0,0.0,0.0,0.0,0.0,0.0,0.0,0.0,0.0,-2.7961,-2.7916,-2.9173,-3.0733,-3.2397,-3.3528,-3.448,-3.5277,-3.5688,-3.6007,-3.6257,-3.568,-3.5423,-3.5635,-3.4295,-3.3609,-3.384,-3.3006,-3.2679,-3.2891,-3.2891,-3.2795,-3.2564,-3.2673,-3.2532,-3.2199,-3.206,-3.1953,-3.1814,-3.1006,-3.066,-3.0621,-3.0217,-3.041,-3.0891,-3.0044,-2.9981,-3.0365,-3.0135,-3.0346,-3.0712,0.0,0.0,0.0,0.0,0.0,0.0,0.0,0.0,0.0,0.0,-2.8848,-3.0801,-3.1074,-3.248,-3.3164,-3.2617,-2.9941,-2.7988,-2.7266,0.0,0.0,0.0,0.0,-2.8555,-2.957,-2.9961,-3.082,-3.2207,-3.3008,-3.3848,-3.4726,-3.5586,-3.6191,-3.6543,-3.6543,-3.7031,-3.7832,-3.7832,-3.8144,-3.8379,-3.5879,-3.4805,-3.4473,-3.2637,-3.2637,-3.3379,-3.1734,-3.217,-3.3284,-3.181,0.0,0.0,0.0,0.0,0.0,0.0,0.0,0.0,0.0,0.0,0.0,0.0,0.0,0.0,0.0,0.0,0.0,0.0,0.0,0.0,0.0,0.0,0.0,0.0,-2.883,-2.9641,-2.9946,-3.0922,-3.2058,-3.3332,-3.4708,-3.5873,-3.6691,-3.7184,-3.7469,-3.7469,-3.6981,-3.6538,-3.6212,-3.493,-3.4379,-3.4737,-3.3891,-3.3622,-3.3987,-3.3987,-3.3987,-3.3987,-3.3707,-3.3514,-3.3436,-3.3153,-3.2968,0.0,-3.241,-3.2199,-3.216,-3.166,-3.1756,0.0,0.0,0.0,0.0,0.0,-3.0712,-3.0404,0.0,0.0,0.0,0.0,0.0,0.0,0.0,0.0,0.0,0.0,0.0,-3.123,-2.9492,-3.1406,-3.1875,-2.9512,-2.8418,-2.7246,0.0,0.0,0.0,-2.7422,-2.8926,-2.9785,-2.9883,-3.0644,-3.1465,-3.2344,-3.3144,-3.3984,-3.4863,-3.5644,-3.6465,-3.7305,-3.7305,-3.7832,-3.875,-3.8848,-3.8945,-3.9043,-3.9141,-3.9414,-3.9316,-3.5351,-3.5273,-3.6953,-3.4377,-3.3075,-3.2544,-3.2301,0.0,0.0,0.0,0.0,0.0,0.0,0.0,0.0,0.0,0.0,0.0,0.0,0.0,0.0,0.0,0.0,0.0,0.0,0.0,0.0,0.0,0.0,0.0,0.0,-3.0446,-3.2332,-3.3333,-3.3578,-3.3892,-3.4506,-3.5379,-3.626,-3.7096,-3.7154,-3.7077,-3.7,-3.6981,-3.6635,-3.5827,0.0,0.0,0.0,0.0,-3.4891,-3.5769,-3.5788,-3.5788,-3.5769,-3.5008,-3.4648,-3.4609,-3.384,-3.3487,-3.3468,-3.3276,-3.3199,-3.3179,-3.2987,-3.2891,-3.2737,-3.1154,-3.1462,-3.2679,-3.1852,-3.1173,-3.0673,0.0,0.0,0.0,0.0,0.0,0.0,0.0,0.0,0.0,-2.7109,-2.8809,-2.9434,-2.7695,-2.8574,-2.8809,-2.7617,-2.6055,-2.5312,0.0,0.0,-2.8672,-3.0078,-3.0469,-3.0976,-3.168,-3.1855,-3.2344,-3.3164,-3.4023,-3.4883,-3.5742,-3.5918,-3.6465,-3.7305,-3.7305,-3.8164,-3.9687,-4.0391,-4.1074,-4.1738,-4.2422,-4.1152,-3.8672,-3.7129,-3.6855,-3.7051,-3.5116,-3.5164,-3.5903,-3.4599,-3.4377,-3.4693,-3.4917,0.0,0.0,0.0,0.0,0.0,0.0,0.0,0.0,0.0,0.0,0.0,0.0,0.0,0.0,0.0,0.0,0.0,0.0,0.0,0.0,-3.1718,-3.2985,-3.4544,-3.672,-3.7082,-3.6917,-3.6299,-3.7662,-3.8704,-3.8823,-3.9395,-3.9496,-3.8854,-3.8796,-3.8411,-3.7565,-3.6699,-3.6622,-3.7488,-3.668,-3.6642,-3.7507,-3.7526,-3.7526,-3.7526,0.0,0.0,-3.7264,-3.7153,-3.7063,-3.6949,-3.5577,-3.5,-3.4885,-3.3487,-3.2891,-3.2795,-3.1833,-3.166,-3.1833,-3.0962,-3.1404,-3.2314,0.0,0.0,0.0,0.0,0.0,0.0,0.0,0.0,0.0,0.0,-2.9824,-3.0078,-2.7891,-2.8437,-2.8242,-2.6504,-2.5156,0.0,0.0,-2.7988,-2.9531,-3.084,-3.1699,-3.2344,-3.2793,-3.2793,-3.3203,-3.4043,-3.4492,-3.5156,-3.6016,-3.6445,-3.7129,-3.7969,-3.8418,-3.9551,-4.1172,-4.1621,-4.2285,-4.3086,-4.3516,-4.2949,-4.166,-4.0351,-3.9609,-3.9062,-3.769,-3.6897,-3.6373,-3.5536,-3.4968,-3.4599,-3.4638,-3.3807,-3.2715,0.0,0.0,0.0,0.0,0.0,0.0,0.0,0.0,0.0,0.0,0.0,0.0,0.0,0.0,-2.9373,0.0,0.0,-3.2303,-3.3972,-3.5766,-3.7398,-3.863,-3.9514,-3.9372,-3.7567,-3.8162,-3.885,-3.9253,-3.9669,-3.9727,-3.9323,-3.9304,-3.8911,-3.8046,-3.7584,-3.7546,-3.7988,-3.7584,-3.7565,-3.8007,-3.8007,-3.8007,-3.8007,-3.8021,-3.8034,-3.7988,-3.8021,-3.8034,-3.793,-3.6654,-3.6346,-3.6661,-3.5334,-3.4314,-3.3506,-3.3103,-3.2679,-3.2256,-3.1814,-3.2179,-3.2833,0.0,0.0,0.0,0.0,0.0,0.0,0.0,0.0,0.0,0.0,-3.082,-3.0762,-2.8301,-2.8516,-2.793,0.0,0.0,0.0,0.0,-2.8984,-3.0391,-3.1582,-3.293,-3.3652,-3.3652,-3.3652,-3.4004,-3.4707,-3.5039,-3.5566,-3.6269,-3.7148,-3.8027,-3.8887,-3.9766,-4.0996,-4.2422,-4.2754,-4.3301,-4.3965,-4.4141,-4.4629,-4.5078,-4.3496,-4.2402,-4.1504,-4.0203,-3.8086,-3.5918,-3.586,-3.4722,-3.3382,-3.3715,-3.3628,-3.3125,-3.1777,-3.1992,0.0,0.0,0.0,0.0,0.0,0.0,0.0,0.0,0.0,-2.9873,-3.0858,-3.0533,-3.0738,-3.2819,-3.3552,-3.439,-3.6081,-3.8285,-3.991,-4.0239,-4.1258,-4.1158,-3.9011,-3.8584,-3.8757,-3.9457,-3.9534,-3.9477,-3.9304,-3.9438,-3.9169,-3.8296,-3.8257,-3.8315,-3.8469,-3.8334,-3.8334,-3.8469,-3.8488,-3.8488,-3.8488,-3.8488,-3.8488,-3.8488,-3.8488,-3.8488,-3.843,-3.7584,-3.7529,-3.7968,-3.7094,-3.5946,-3.4735,-3.4735,-3.4311,-3.3624,-3.3089,-3.3103,-3.3378,0.0,0.0,0.0,0.0,0.0,0.0,0.0,0.0,0.0,0.0,0.0,0.0,0.0,0.0,0.0,0.0,0.0,0.0,-2.9141,-3.0215,-3.1816,-3.418,-3.4453,-3.4551,-3.4551,-3.4551,-3.4609,-3.4707,-3.625,-3.7051,-3.7168,-3.8047,-3.8926,-3.9785,-4.0664,-4.1562,-4.25,-4.4043,-4.4766,-4.4922,-4.5703,-4.6074,-4.6055,-4.5078,-4.418,-4.3105,-4.0722,-3.8203,-3.5996,-3.5975,-3.4823,-3.3652,-3.5214,-3.4648,-3.3359,-3.3184,0.0,-2.9941,-2.9551,-2.8414,-2.7471,-2.7965,-2.8193,-2.8887,0.0,0.0,-3.1788,-3.3143,-3.3525,-3.3754,-3.4167,-3.5466,-3.7026,-3.8701,-3.9874,-4.1086,-4.2506,-4.219,-4.1705,-4.1412,-4.0681,-4.0265,-4.0362,-4.0362,-4.0073,-3.9361,-3.9958,-4.0015,-3.9207,-3.915,-3.9477,-4.0208,-3.9534,-3.9496,-4.0208,-4.0227,-4.0227,-4.0227,-4.0227,-4.0227,-4.0227,-4.0227,-4.0227,-4.0189,-3.9361,-3.8691,-3.8117,-3.7235,-3.6804,-3.6697,-3.6697,-3.6639,-3.6246,-3.3801,-3.3891,-3.5104,0.0,0.0,0.0,0.0,0.0,0.0,0.0,0.0,0.0,0.0,0.0,0.0,0.0,0.0,0.0,0.0,0.0,0.0,-3.0156,-3.0703,-3.2031,-3.459,-3.5195,-3.5684,-3.6191,-3.6211,-3.6465,-3.6973,-3.7695,-3.8066,-3.8086,-3.8945,-3.9824,-4.0684,-4.1523,-4.2656,-4.3965,-4.4687,-4.5293,-4.5781,-4.6152,-4.5996,-4.5449,-4.457,-4.2773,-4.0664,-4.0098,-3.8223,0.0,0.0,-3.4336,-3.4101,-3.3867,-3.3613,-3.3105,-3.1621,-3.0781,0.0,-2.9121,-2.8627,0.0,0.0,-3.0246,-3.1913,-3.287,-3.3526,-3.4449,-3.6318,-3.615,-3.5984,-3.7104,-3.8354,-3.9619,0.0,-4.2151,-4.3298,-4.3939,-4.3221,-4.2439,-4.1982,-4.1072,-4.0496,-4.0496,-4.0496,-4.0362,-4.0015,-4.0304,-4.0342,-4.0015,-3.9996,-4.015,-4.0496,-4.0169,-4.0169,-4.0496,-4.0496,-4.0496,-4.0496,-4.0496,-4.0496,-4.0496,-4.0496,-4.0246,-3.9811,-4.0016,-3.9392,-3.8208,-3.8403,-3.8187,-3.7764,-3.7764,-3.7764,-3.7617,-3.6466,-3.6503,-3.709,0.0,0.0,0.0,0.0,0.0,0.0,0.0,0.0,0.0,0.0,0.0,0.0,0.0,0.0,0.0,0.0,0.0,0.0,0.0,-3.0547,-3.1582,-3.3906,-3.4824,-3.5684,-3.6562,-3.7051,-3.7617,-3.8242,-3.8711,-3.9082,-3.9336,-4.0195,-4.1055,-4.1933,-4.2754,-4.3828,-4.5019,-4.5254,-4.5723,-4.6289,-4.6035,-4.543,-4.4473,-4.2891,-4.0605,-3.8281,-3.8672,-3.6992,0.0,0.0,-3.3125,-3.3476,-3.2519,-3.2598,-3.2715,-3.0859,-3.043,-3.0273,-2.9004,0.0,0.0,-3.0307,-3.2722,-3.5009,-3.5019,-3.5977,-3.7329,-3.8936,-3.8279,-3.7892,-3.9467,-4.0192,-4.0957,-4.2208,-4.3525,-4.4458,-4.4563,-4.3775,-4.2776,-4.1712,-4.0747,-4.0169,-4.0169,-4.0362,-4.0496,-4.0496,-4.0496,-4.0496,-4.0496,-4.0496,-4.0519,-4.0552,-4.0552,-4.0561,-4.0571,-4.0561,-4.0552,-4.0552,-4.0552,-4.0549,-4.0516,-4.0788,-4.0463,-3.9737,-4.0684,-4.0286,-3.9017,-3.9461,-3.9288,-3.8744,-3.8744,-3.8744,-3.8763,-3.9017,-3.8759,-3.8296,0.0,0.0,0.0,0.0,0.0,0.0,0.0,0.0,0.0,0.0,0.0,0.0,0.0,0.0,0.0,0.0,0.0,0.0,0.0,-2.9648,-3.043,-3.2207,-3.3047,-3.3887,-3.4766,-3.6445,-3.7305,-3.7344,-3.9023,-4.0293,-4.1133,-4.1953,-4.2793,-4.3652,-4.4531,-4.4941,-4.5058,-4.5898,-4.6289,-4.623,-4.5371,-4.4512,-4.3379,-4.0039,-3.8164,-3.7226,-3.6406,0.0,0.0,0.0,-3.0996,-3.1152,-3.1953,-3.2226,0.0,-3.2148,-3.0937,0.0,0.0,0.0,-3.115,-3.2766,-3.5006,-3.704,-3.7887,-3.9245,-4.0369,-4.0426,-3.9795,-3.9525,-4.0486,-4.0095,-4.0403,-4.2774,-4.3315,-4.364,-4.4217,-4.3602,-4.2459,-4.0754,-3.9823,-3.9342,0.0,-4.0035,-4.0496,-4.0496,-4.0496,-4.0496,-4.0496,-4.0496,-4.0559,-4.0686,-4.0692,-4.0721,-4.0789,-4.0726,-4.0692,-4.0692,-4.0692,-4.063,-4.0523,-4.1506,-4.1478,-4.0703,-4.1645,-4.1611,-4.0855,-4.0034,-3.9768,-3.9844,-3.9844,-3.9844,-3.9941,-4.0801,-3.9918,-3.8303,0.0,0.0,0.0,0.0,0.0,0.0,0.0,0.0,0.0,0.0,0.0,0.0,0.0,0.0,0.0,0.0,0.0,0.0,0.0,-3.0234,-3.0371,-3.2129,-3.2461,-3.2988,-3.3828,-3.5547,-3.6719,-3.7305,-3.8476,-3.9473,-4.0332,-4.0605,-4.1484,-4.2851,-4.3144,-4.3926,-4.498,-4.4707,-4.457,-4.4453,-4.3047,-4.1601,-4.0059,-3.7754,-3.5644,-3.3887,0.0,0.0,0.0,0.0,0.0,0.0,-2.9883,0.0,0.0,-2.8926,0.0,0.0,0.0,0.0,-3.4644,-3.6281,-3.8526,-4.0417,-4.0666,-4.1047,-4.1043,-3.9934,-3.9022,-3.8387,-3.8211,-3.8452,-3.9102,-4.0463,-4.2125,-4.3324,-4.3473,-4.372,-4.3047,-4.0766,-4.0777,0.0,0.0,0.0,0.0,-4.0458,-4.1046,-4.1354,-4.1354,-4.1952,-4.2299,-4.2355,-4.2461,-4.2211,-4.1661,-4.1643,-4.1625,-4.1625,-4.1625,-4.1576,-4.1513,-4.1883,-4.2213,-4.2475,-4.2302,-4.2093,-4.18,-4.1024,-4.0721,-4.0762,-4.0762,-4.0762,-4.0801,-4.1094,-4.0798,-4.0222,0.0,0.0,0.0,0.0,0.0,0.0,0.0,0.0,0.0,0.0,0.0,0.0,0.0,0.0,0.0,0.0,0.0,0.0,0.0,0.0,-3.0098,-3.1211,-3.1562,-3.2129,-3.2949,-3.4668,-3.5801,-3.6367,-3.6934,-3.7812,-3.8965,-3.8652,-3.9414,-4.1035,-4.1035,-4.166,-4.2676,-4.2129,-4.1875,-4.1758,-4.0371,-3.8945,-3.7441,-3.543,-3.3809,0.0,0.0,0.0,0.0,0.0,0.0,0.0,0.0,0.0,0.0,0.0,0.0,0.0,0.0,-3.5254,-3.7792,-3.9422,-4.1466,-4.2976,-4.2644,-4.2206,-4.1391,-3.9693,-3.8154,-3.6965,-3.6495,-3.638,-3.6832,-3.8206,-3.9847,-4.1241,-4.2126,-4.2903,-4.2829,-4.1217,-4.1497,0.0,0.0,0.0,0.0,-4.0458,-4.1604,-4.2143,-4.1808,-4.2691,-4.3218,-4.3269,-4.3401,-4.3214,-4.2671,-4.2646,-4.2633,-4.263,-4.2599,-4.2568,-4.2576,-4.2937,-4.3237,-4.3458,-4.3326,-4.3089,-4.2759,-4.2284,-4.209,-4.209,-4.209,-4.209,-4.2051,-4.1738,-4.1621,-4.1582,0.0,0.0,0.0,0.0,0.0,0.0,0.0,0.0,0.0,0.0,0.0,0.0,0.0,0.0,0.0,0.0,0.0,0.0,0.0,0.0,0.0,-2.9609,-3.0391,-3.1211,-3.2051,-3.3711,-3.457,-3.457,-3.4609,-3.5508,-3.7148,-3.6328,-3.6836,-3.8476,-3.8476,-3.8496,-3.8535,-3.8535,-3.8516,-3.8398,-3.7519,-3.6621,-3.5547,-3.3066,0.0,0.0,0.0,0.0,0.0,0.0,0.0,0.0,0.0,0.0,0.0,0.0,0.0,-3.416,-3.6738,-3.873,-4.0488,-4.2129,-4.368,-4.4584,-4.3723,-4.2669,-4.136,-3.9572,-3.716,-3.5346,0.0,0.0,-3.3867,-3.6246,-3.6889,-3.7945,-4.0411,-4.147,-4.2009,0.0,0.0,0.0,0.0,0.0,0.0,-4.065,0.0,-4.2758,-4.1986,-4.284,-4.341,-4.3529,-4.3665,-4.3754,-4.3769,-4.3696,-4.3656,-4.3595,-4.3517,-4.3559,-4.3693,-4.4536,-4.446,-4.372,-4.4607,-4.4512,-4.3691,-4.3691,-4.3691,-4.3691,-4.3691,-4.3691,-4.3594,-4.2715,-4.2402,-4.2285,0.0,0.0,0.0,0.0,0.0,0.0,0.0,0.0,0.0,0.0,0.0,0.0,0.0,0.0,0.0,0.0,0.0,0.0,0.0,0.0,0.0,0.0,0.0,0.0,0.0,0.0,0.0,0.0,0.0,-3.4297,-3.5351,-3.5137,-3.5625,-3.666,-3.666,-3.7012,-3.7637,-3.7637,-3.7266,-3.6582,0.0,-3.4473,-3.3027,0.0,0.0,0.0,0.0,0.0,0.0,0.0,0.0,0.0,0.0,0.0,-3.1992,0.0,0.0,-3.6738,-3.8691,-4.0957,-4.2988,-4.4062,-4.4578,-4.4428,-4.2967,-4.1291,-3.9398,-3.7049,-3.4973,-3.3391,0.0,0.0,0.0,-3.5488,-3.7935,0.0,-4.1342,-4.3319,0.0,0.0,0.0,-4.3431,-4.2835,-4.3104,0.0,0.0,-4.2854,-4.3312,-4.3794,-4.4697,-4.5269,-4.5421,-4.5532,-4.5311,-4.4668,-4.4647,-4.4287,-4.3615,-4.4261,-4.4573,-4.4575,-4.4855,-4.4841,-4.4666,-4.4902,-4.4512,-4.3691,-4.3691,-4.3691,-4.3691,-4.3691,-4.3691,-4.3594,-4.2715,-4.2402,-4.2363,0.0,0.0,0.0,0.0,0.0,0.0,0.0,0.0,0.0,0.0,0.0,0.0,0.0,0.0,0.0,0.0,0.0,0.0,0.0,0.0,0.0,0.0,0.0,0.0,0.0,0.0,0.0,0.0,0.0,0.0,0.0,-3.2637,-3.293,-3.3769,-3.3769,-3.4023,-3.4492,-3.4492,0.0,0.0,0.0,0.0,0.0,0.0,0.0,0.0,0.0,0.0,0.0,0.0,0.0,-3.1445,-3.1309,-3.2461,-3.4101,-3.5332,0.0,-3.8906,-4.0996,-4.2891,-4.4473,-4.5351,-4.5231,-4.4339,-4.2219,-4.0287,-3.812,-3.5112,-3.3392,0.0,0.0,0.0,0.0,0.0,0.0,0.0,-4.0467,-4.2919,-4.4454,0.0,-4.4633,0.0,-4.4239,-4.431,-4.4365,0.0,-4.4268,-4.4358,-4.4479,-4.5442,-4.603,-4.6108,-4.6225,-4.6074,-4.5586,-4.5566,-4.5311,-4.4793,-4.5311,-4.5545,-4.5516,-4.5546,-4.5566,-4.5566,0.0,-4.5293,-4.4844,-4.4844,-4.4844,-4.4844,-4.4844,-4.4609,-4.4219,-4.3711,-4.3066,-4.2441,0.0,0.0,0.0,0.0,0.0,0.0,0.0,0.0,0.0,0.0,0.0,0.0,0.0,0.0,0.0,0.0,0.0,0.0,0.0,0.0,0.0,0.0,0.0,0.0,0.0,0.0,0.0,0.0,0.0,0.0,0.0,0.0,0.0,0.0,0.0,0.0,0.0,0.0,0.0,0.0,0.0,0.0,0.0,0.0,0.0,0.0,0.0,0.0,0.0,0.0,-3.1641,-3.2519,-3.3457,-3.4941,-3.6719,-3.8555,-3.9726,-4.0918,-4.3242,-4.4512,-4.5351,-4.6113,-4.5469,-4.3984,-4.1411,-3.931,-3.6957,-3.3608,0.0,-3.1391,-3.0548,0.0,-3.0059,-3.1927,0.0,-3.5944,-3.9417,-4.1858,-4.3902,-4.5575,-4.5673,-4.5594,-4.5594,-4.5034,-4.4989,-4.5745,-4.5821,-4.5516,-4.4746,-4.5592,-4.6113,-4.6138,-4.6246,-4.6308,-4.6308,-4.6308,-4.6308,-4.6308,-4.6308,-4.6308,-4.6308,-4.6308,-4.623,-4.6133,0.0,0.0,-4.6133,-4.625,-4.6308,-4.6308,-4.6308,-4.584,-4.5156,-4.5039,-4.4043,-4.2851,0.0,0.0,0.0,0.0,0.0,0.0,0.0,0.0,0.0,0.0,-3.1348,0.0,0.0,0.0,0.0,0.0,0.0,0.0,0.0,0.0,0.0,0.0,0.0,0.0,0.0,0.0,0.0,0.0,0.0,0.0,0.0,0.0,0.0,0.0,0.0,0.0,0.0,0.0,0.0,0.0,0.0,0.0,0.0,0.0,0.0,0.0,0.0,0.0,0.0,0.0,-3.2519,-3.3476,-3.5059,-3.6758,-3.8613,-4.1035,-4.2363,-4.3281,-4.4453,-4.541,-4.6113,-4.6269,-4.4551,-4.2343,-4.0434,-3.7536,0.0,0.0,0.0,-3.0656,-3.0433,-3.0914,0.0,-3.4531,0.0,0.0,0.0,0.0,-4.4609,0.0,0.0,0.0,0.0,0.0,0.0,0.0,0.0,-4.5978,-4.5822,-4.5999,-4.6147,-4.6268,-4.6289,-4.6308,-4.6308,-4.6308,-4.6308,-4.6308,-4.6308,-4.6308,-4.6308,-4.6308,-4.5918,-4.5273,-4.5996,0.0,-4.5273,-4.5996,-4.6308,-4.6308,-4.6308,-4.6211,-4.5996,-4.5273,-4.4805,-4.457,0.0,0.0,0.0,0.0,0.0,0.0,0.0,0.0,0.0,-3.2553,-3.2412,-3.2005,0.0,0.0,0.0,0.0,0.0,0.0,0.0,0.0,0.0,0.0,0.0,0.0,0.0,0.0,0.0,0.0,0.0,0.0,0.0,0.0,0.0,0.0,0.0,0.0,0.0,0.0,0.0,0.0,0.0,0.0,0.0,0.0,0.0,0.0,0.0,0.0,0.0,0.0,-3.2734,-3.3789,-3.5976,-3.7871,-3.9785,-4.2324,-4.3379,-4.3984,-4.5312,-4.5976,-4.6308,-4.6308,-4.4336,-4.1816,-3.9614,0.0,0.0,0.0,0.0,-3.0513,-3.0425,0.0,0.0,0.0,0.0,0.0,0.0,0.0,0.0,0.0,0.0,0.0,0.0,0.0,0.0,0.0,0.0,-4.6174,-4.6091,-4.6171,-4.6226,-4.6308,-4.6308,-4.6308,-4.6308,-4.6308,-4.6308,-4.6308,-4.6308,-4.6308,-4.6308,-4.6308,-4.6074,-4.5703,-4.6113,0.0,-4.5703,-4.6133,-4.6308,-4.6308,-4.6308,-4.6016,-4.5625,-4.5664,-4.5098,-4.4453,0.0,0.0,0.0,0.0,0.0,0.0,0.0,-3.1346,-3.1713,-3.3355,-3.3395,-3.3051,-3.2497,-3.1658,-3.1073,0.0,0.0,0.0,0.0,0.0,0.0,0.0,0.0,0.0,0.0,0.0,0.0,0.0,0.0,0.0,0.0,0.0,0.0,0.0,0.0,0.0,0.0,0.0,0.0,0.0,0.0,0.0,0.0,0.0,0.0,0.0,0.0,0.0,0.0,0.0,-3.2617,-3.3555,-3.5976,-3.8203,-4.0332,-4.2519,-4.3555,-4.4277,-4.5644,-4.6152,-4.6308,-4.6308,-4.4199,-4.1503,-3.9066,-3.6381,0.0,0.0,-3.0575,-3.0581,-3.0451,0.0,0.0,0.0,0.0,0.0,0.0,0.0,0.0,0.0,0.0,0.0,0.0,0.0,0.0,0.0,0.0,0.0,-4.6147,-4.6247,-4.6308,-4.6308,-4.6308,-4.6308,-4.6308,-4.6308,-4.6308,-4.6308,-4.6308,-4.6308,-4.6308,-4.6308,-4.6308,-4.6308,-4.6308,0.0,0.0,-4.6308,-4.6308,-4.6308,-4.6308,-4.5879,-4.5351,-4.6055,-4.543,-4.4453,0.0,0.0,0.0,0.0,0.0,0.0,0.0,-3.0971,-3.2524,-3.4241,-3.3743,-3.3201,-3.3206,-3.2428,-3.1622,0.0,0.0,0.0,0.0,0.0,0.0,0.0,0.0,0.0,0.0,0.0,0.0,0.0,0.0,0.0,0.0,0.0,0.0,0.0,0.0,0.0,0.0,0.0,0.0,0.0,0.0,0.0,0.0,0.0,0.0,0.0,0.0,0.0,0.0,0.0,0.0,-3.2617,-3.4375,-3.7226,-4.0098,-4.1133,0.0,0.0,-4.5078,-4.5703,-4.6308,-4.6308,-4.3789,-4.082,-3.893,0.0,0.0,-3.0998,-3.0633,-3.0659,-3.0528,-3.0603,0.0,0.0,0.0,0.0,0.0,0.0,0.0,0.0,0.0,0.0,0.0,0.0,0.0,0.0,0.0,0.0,-4.6289,-4.6289,-4.6308,-4.6308,-4.6308,-4.6308,-4.6308,-4.6308,-4.6308,-4.6308,-4.6308,-4.6308,-4.6308,-4.6308,-4.6308,-4.6308,-4.6308,0.0,0.0,-4.6308,-4.6308,-4.6308,-4.6308,-4.625,-4.6191,-4.6269,-4.6191,-4.6074,0.0,0.0,0.0,0.0,0.0,0.0,0.0,-3.1573,-3.2615,-3.4318,-3.4139,-3.3867,-3.3903,-3.3126,-3.2133,0.0,0.0,0.0,0.0,0.0,0.0,0.0,0.0,0.0,0.0,0.0,0.0,0.0,0.0,0.0,0.0,0.0,0.0,0.0,0.0,0.0,0.0,0.0,0.0,0.0,0.0,0.0,0.0,0.0,0.0,0.0,0.0,0.0,0.0,0.0,0.0,0.0,-3.2207,-3.4062,0.0,0.0,-4.1504,-4.3047,-4.457,-4.5644,-4.6308,-4.6308,-4.332,-4.0097,-3.8845,0.0,0.0,-3.0936,-3.0682,-3.0833,-3.1265,-3.1429,-3.197,0.0,0.0,0.0,0.0,0.0,0.0,0.0,0.0,0.0,0.0,0.0,0.0,0.0,0.0,0.0,-4.6308,-4.6308,-4.6308,-4.6308,-4.6308,-4.6308,-4.6308,-4.6308,-4.6308,-4.6308,-4.6308,-4.6308,-4.6308,-4.6308,-4.6308,-4.6308,-4.6308,0.0,0.0,-4.6308,-4.6308,-4.6308,-4.6308,-4.6308,-4.6308,-4.6308,-4.6308,-4.6308,0.0,0.0,0.0,0.0,0.0,0.0,-3.1456,-3.1785,-3.2469,-3.3893,-3.3978,-3.3991,-3.4269,-3.3306,-3.2353,-3.1641,0.0,0.0,0.0,0.0,0.0,0.0,0.0,0.0,0.0,0.0,0.0,0.0,0.0,0.0,0.0,0.0,0.0,0.0,0.0,0.0,0.0,0.0,0.0,0.0,0.0,0.0,0.0,0.0,0.0,0.0,0.0,0.0,0.0,0.0,0.0,0.0,0.0,0.0,0.0,0.0,-3.9316,-4.1269,-4.332,-4.4687,-4.5586,-4.5859,-4.2695,-3.9297,0.0,0.0,0.0,-3.0967,-3.0722,-3.096,-3.1783,-3.1964,-3.2345,0.0,0.0,0.0,0.0,0.0,0.0,0.0,0.0,0.0,0.0,0.0,0.0,0.0,0.0,0.0,0.0,-4.6308,-4.6308,-4.6308,-4.6308,-4.6308,-4.6308,-4.6308,-4.6308,-4.6308,-4.6308,-4.6308,-4.6308,-4.6308,-4.6308,-4.6308,0.0,0.0,0.0,-4.6308,-4.6308,-4.6308,-4.6308,-4.6308,-4.6308,-4.6308,-4.6308,-4.6308,0.0,0.0,0.0,0.0,0.0,0.0,0.0,-3.1248,-3.2115,-3.2996,-3.3004,-3.328,-3.42,-3.2813,-3.2189,-3.3093,0.0,0.0,0.0,0.0,0.0,0.0,0.0,0.0,0.0,0.0,-3.0537,-3.0606,-3.1533,0.0,0.0,0.0,0.0,0.0,0.0,0.0,0.0,0.0,0.0,0.0,0.0,0.0,0.0,0.0,0.0,0.0,0.0,0.0,0.0,0.0,0.0,0.0,0.0,0.0,0.0,0.0,-3.6523,-4.0117,-4.0996,-4.2461,-4.3926,-4.4805,-4.1797,-3.8398,0.0,0.0,0.0,-3.1074,-3.0793,-3.0968,-3.1848,-3.2005,-3.2571,-3.4291,0.0,0.0,0.0,0.0,0.0,0.0,0.0,0.0,0.0,0.0,0.0,0.0,0.0,0.0,0.0,-4.6308,-4.6308,-4.6308,-4.6308,-4.6308,-4.6308,-4.6308,-4.6308,-4.6308,-4.6308,-4.6308,-4.6308,-4.6308,-4.6308,0.0,0.0,0.0,0.0,-4.6308,-4.6308,-4.6308,-4.6308,-4.6308,-4.6308,-4.6308,-4.6308,-4.6308,0.0,0.0,0.0,0.0,0.0,0.0,0.0,-3.0735,-3.1215,-3.2091,-3.2125,-3.2621,-3.4076,-3.2733,-3.2075,-3.293,0.0,0.0,0.0,0.0,0.0,0.0,0.0,0.0,0.0,-3.0439,-3.0757,-3.1421,-3.1757,-3.2262,-3.2877,-3.2672,0.0,0.0,0.0,0.0,0.0,0.0,0.0,0.0,0.0,0.0,0.0,0.0,0.0,0.0,0.0,0.0,0.0,0.0,0.0,0.0,0.0,0.0,0.0,0.0,0.0,0.0,-3.8144,-3.9355,-4.0273,-4.0566,-3.8262,-3.5859,-3.5586,0.0,0.0,0.0,-3.0878,-3.1267,-3.2692,-3.2966,-3.3509,-3.5207,0.0,0.0,0.0,0.0,0.0,0.0,0.0,0.0,0.0,0.0,0.0,0.0,0.0,0.0,0.0,-4.6308,-4.6308,-4.6308,-4.6308,-4.6308,-4.6308,-4.6308,-4.6308,-4.6308,-4.6308,-4.6308,-4.6308,-4.6308,0.0,0.0,0.0,0.0,0.0,-4.6308,-4.6308,-4.6308,-4.6308,-4.6308,-4.6308,-4.6308,-4.6308,-4.6308,0.0,0.0,0.0,0.0,0.0,0.0,0.0,-3.0467,-3.0661,-3.1201,-3.1237,-3.1852,-3.3526,-3.2218,-3.1679,-3.2795,0.0,0.0,0.0,0.0,0.0,0.0,0.0,0.0,-3.0404,-3.0404,-3.086,-3.1762,-3.2167,-3.2668,-3.3256,-3.3146,-3.3123,-3.3144,0.0,0.0,0.0,0.0,0.0,0.0,0.0,0.0,-3.5859,0.0,0.0,0.0,0.0,0.0,0.0,0.0,0.0,0.0,0.0,0.0,0.0,0.0,0.0,0.0,0.0,-3.6953,-3.7695,-3.8027,-3.6133,0.0,0.0,0.0,0.0,0.0,0.0,0.0,0.0,0.0,0.0,0.0,0.0,0.0,0.0,0.0,0.0,0.0,0.0,0.0,0.0,0.0,0.0,0.0,0.0,0.0,0.0,-4.6308,-4.6308,-4.6308,-4.6308,-4.6308,-4.6308,-4.6308,-4.6308,-4.6308,-4.6308,-4.6308,-4.6308,-4.6308,0.0,0.0,0.0,0.0,0.0,-4.6308,-4.6308,-4.6308,-4.6308,-4.6308,-4.6308,-4.6308,-4.6308,-4.6308,0.0,0.0,0.0,0.0,0.0,0.0,0.0,0.0,0.0,0.0,-3.0404,-3.0981,-3.2545,-3.1327,-3.1019,0.0,0.0,0.0,0.0,0.0,0.0,0.0,0.0,0.0,-3.0404,-3.0404,-3.0865,-3.1795,-3.2676,-3.3184,-3.3382,-3.4211,-3.463,-3.4668,-3.3847,-3.4414,-3.5996,-3.5937,-3.5937,-3.5996,-3.5937,-3.5937,0.0,0.0,0.0,0.0,0.0,0.0,0.0,0.0,0.0,0.0,0.0,0.0,0.0,0.0,0.0,0.0,0.0,0.0,0.0,0.0,0.0,0.0,0.0,0.0,0.0,0.0,0.0,0.0,0.0,0.0,0.0,0.0,0.0,0.0,0.0,0.0,0.0,0.0,0.0,0.0,0.0,0.0,0.0,0.0,0.0,0.0,0.0,-4.6308,-4.6308,-4.6308,-4.6308,-4.6308,-4.6308,-4.6308,-4.6308,-4.6308,-4.6308,-4.6308,-4.6308,-4.6308,0.0,0.0,0.0,0.0,0.0,-4.6308,-4.6308,-4.6308,-4.6308,-4.6308,-4.6308,-4.6308,-4.6308,-4.6308,0.0,0.0,0.0,0.0,0.0,0.0,0.0,0.0,0.0,0.0,-3.0404,-3.0558,-3.0942,-3.0635,-3.0558,0.0,0.0,0.0,0.0,0.0,0.0,0.0,0.0,0.0,-3.0404,-3.0404,-3.1135,-3.2622,-3.2947,-3.3761,-3.5034,-3.4675,-3.456,-3.4608,-3.4411,-3.4933,-3.5957,-3.5293,-3.5391,-3.5937,-3.5273,-3.5391,0.0,0.0,0.0,0.0,-3.1738,-3.1504,0.0,0.0,0.0,0.0,0.0,0.0,0.0,0.0,-3.0898,0.0,0.0,0.0,0.0,0.0,0.0,0.0,0.0,0.0,0.0,0.0,0.0,0.0,0.0,0.0,0.0,0.0,0.0,0.0,0.0,0.0,0.0,0.0,0.0,0.0,0.0,0.0,0.0,0.0,0.0,0.0,0.0,-4.6308,-4.6308,-4.6308,-4.6308,-4.6308,-4.6308,-4.6308,-4.6308,-4.6308,-4.6308,-4.6308,-4.6308,-4.6308,0.0,0.0,0.0,0.0,-4.6308,-4.6308,-4.6308,-4.6308,-4.6308,-4.6308,-4.6308,-4.6308,-4.6308,-4.6308,0.0,0.0,0.0,0.0,0.0,0.0,0.0,0.0,0.0,0.0,0.0,0.0,0.0,0.0,0.0,0.0,0.0,0.0,0.0,0.0,0.0,0.0,0.0,-3.0404,-3.0404,-3.0404,-3.1212,-3.2891,-3.2968,-3.3895,-3.5591,-3.5193,-3.5065,-3.5199,-3.5237,-3.5523,-3.5976,-3.5508,-3.5566,-3.5957,-3.5488,0.0,0.0,0.0,0.0,0.0,-3.2519,-3.2344,0.0,-3.3203,-3.3086,-3.2754,0.0,0.0,0.0,0.0,-3.0898,0.0,0.0,0.0,0.0,0.0,0.0,0.0,0.0,0.0,0.0,0.0,0.0,0.0,0.0,0.0,0.0,0.0,0.0,0.0,0.0,0.0,0.0,0.0,0.0,0.0,0.0,0.0,0.0,0.0,0.0,0.0,0.0,-4.6308,-4.6308,-4.6308,-4.6308,-4.6308,-4.6308,-4.6308,-4.6308,-4.6308,-4.6308,-4.6308,-4.6308,-4.6308,-4.6308,0.0,0.0,0.0,-4.5723,-4.6133,-4.6055,-4.5742,-4.6133,-4.6308,-4.6308,-4.6308,-4.6308,-4.6308,0.0,0.0,0.0,0.0,0.0,0.0,0.0,0.0,0.0,0.0,0.0,0.0,0.0,0.0,0.0,0.0,0.0,0.0,0.0,0.0,0.0,0.0,-3.0404,-3.0462,-3.0596,-3.0462,-3.1212,-3.2891,-3.2891,-3.3754,-3.5386,-3.5521,-3.5693,-3.5873,-3.595,-3.5996,-3.5996,-3.5996,-3.5996,-3.5996,-3.5996,0.0,0.0,0.0,0.0,0.0,0.0,0.0,0.0,-3.4453,-3.4219,-3.3574,-3.3437,0.0,0.0,0.0,0.0,0.0,0.0,0.0,0.0,0.0,0.0,0.0,0.0,0.0,0.0,0.0,0.0,0.0,0.0,0.0,0.0,0.0,0.0,0.0,0.0,0.0,0.0,0.0,0.0,0.0,0.0,0.0,0.0,0.0,0.0,0.0,0.0,-4.6308,-4.6308,-4.6308,-4.6308,-4.6308,-4.6308,-4.6308,-4.6308,-4.6308,-4.6308,-4.6308,-4.6308,-4.6308,-4.623,0.0,0.0,0.0,-4.5078,-4.5937,-4.5859,-4.5273,-4.6016,-4.6308,-4.6308,-4.6308,-4.6308,-4.6308,0.0,0.0,0.0,0.0,0.0,0.0,0.0,0.0,0.0,0.0,0.0,0.0,0.0,0.0,0.0,0.0,0.0,0.0,0.0,0.0,0.0,-3.0404,-3.0404,-3.075,-3.1487,-3.0788,-3.1212,-3.2891,-3.2891,-3.3423,-3.4437,-3.5181,-3.5599,-3.5749,-3.5853,-3.5947,-3.5996,-3.5996,-3.5996,-3.5996,-3.5996,0.0,0.0,0.0,0.0,0.0,0.0,0.0,0.0,-3.4648,-3.4609,-3.4375,-3.3633,0.0,0.0,0.0,0.0,0.0,-3.1797,-3.1992,0.0,0.0,0.0,0.0,0.0,0.0,0.0,0.0,0.0,0.0,0.0,0.0,0.0,0.0,0.0,0.0,0.0,0.0,0.0,0.0,0.0,0.0,0.0,0.0,0.0,0.0,0.0,0.0,0.0,-4.6308,-4.6308,-4.6308,-4.6308,-4.6308,-4.6308,-4.6308,-4.6308,-4.6308,-4.6308,-4.6308,-4.6308,-4.6308,-4.5898,0.0,0.0,-4.5801,-4.5078,-4.5937,-4.6211,-4.6113,-4.625,-4.6308,-4.6308,-4.6308,-4.6308,-4.6308,0.0,0.0,0.0,0.0,0.0,0.0,0.0,0.0,0.0,0.0,0.0,0.0,0.0,0.0,0.0,0.0,0.0,0.0,0.0,0.0,-3.0615,-3.1077,-3.1096,-3.1288,-3.1698,-3.1308,-3.1929,-3.3603,-3.3603,-3.4045,-3.4911,-3.5348,-3.5601,-3.571,-3.5841,-3.5942,-3.5996,-3.5996,-3.5996,-3.5996,0.0,0.0,0.0,0.0,0.0,0.0,0.0,0.0,0.0,0.0,-3.5391,-3.5254,-3.4375,0.0,0.0,0.0,0.0,0.0,-3.1523,-3.1504,-3.1406,0.0,0.0,0.0,0.0,0.0,0.0,0.0,0.0,0.0,0.0,0.0,0.0,0.0,0.0,0.0,0.0,0.0,0.0,0.0,0.0,0.0,0.0,0.0,0.0,0.0,0.0,0.0,0.0,0.0,-4.6308,-4.6308,-4.6308,-4.6308,-4.6308,-4.6308,-4.6308,-4.6308,-4.6308,-4.6308,-4.6308,-4.6308,-4.582,-4.5058,0.0,-4.5547,-4.4394,-4.5742,-4.6016,-4.5644,-4.6113,-4.6308,-4.6308,-4.6308,-4.6308,-4.6308,0.0,0.0,0.0,0.0,0.0,0.0,0.0,0.0,0.0,0.0,0.0,0.0,0.0,0.0,0.0,0.0,0.0,0.0,0.0,-3.0404,-3.0692,-3.1371,-3.141,-3.1679,-3.2275,-3.2083,-3.2718,-3.4205,-3.4205,-3.4641,-3.55,-3.5538,-3.5616,-3.5675,-3.578,-3.5877,-3.593,-3.5954,-3.5974,-3.5975,0.0,0.0,0.0,0.0,0.0,0.0,0.0,0.0,0.0,0.0,0.0,0.0,0.0,0.0,0.0,0.0,-3.2207,-3.1797,-3.1328,-3.1191,-3.1113,0.0,0.0,0.0,0.0,0.0,0.0,0.0,0.0,0.0,0.0,0.0,0.0,0.0,0.0,0.0,0.0,0.0,0.0,0.0,0.0,0.0,0.0,0.0,0.0,0.0,0.0,0.0,0.0,0.0,-4.6308,-4.6308,-4.6308,-4.6191,-4.5996,-4.5996,-4.5996,-4.5996,-4.6191,-4.6191,-4.5996,-4.6211,-4.582,-4.5058,-4.5918,-4.543,-4.4121,-4.5664,-4.5918,-4.5371,-4.6035,-4.6308,-4.6308,-4.6308,-4.6308,-4.6308,0.0,0.0,0.0,0.0,0.0,0.0,0.0,0.0,0.0,0.0,0.0,0.0,0.0,0.0,0.0,0.0,0.0,0.0,0.0,-3.0404,-3.0423,-3.05,-3.05,-3.1602,-3.3975,-3.3237,-3.3276,-3.4205,-3.4205,-3.4641,-3.55,-3.5494,-3.5534,-3.5606,-3.5616,-3.567,-3.5729,-3.5849,-3.5907,-3.591,-3.5974,0.0,0.0,0.0,0.0,0.0,0.0,0.0,0.0,0.0,0.0,0.0,0.0,0.0,0.0,0.0,-3.2207,-3.1152,-3.1894,-3.2109,-3.1719,-3.0098,-3.0351,0.0,-3.2871,-3.3262,0.0,0.0,0.0,0.0,0.0,0.0,0.0,0.0,0.0,0.0,0.0,0.0,0.0,0.0,0.0,0.0,0.0,0.0,0.0,0.0,0.0,0.0,0.0,0.0,0.0,-4.6308,-4.6308,-4.5918,-4.5098,-4.5098,-4.5098,-4.5098,-4.5918,-4.5879,-4.5117,-4.5937,-4.582,-4.5058,-4.5918,-4.5762,-4.498,-4.5918,-4.6269,-4.6211,-4.6289,-4.6308,-4.6308,-4.6308,-4.6308,-4.6308,0.0,0.0,0.0,0.0,0.0,0.0,0.0,0.0,0.0,0.0,0.0,0.0,0.0,0.0,0.0,0.0,0.0,0.0,0.0,-3.0404,-3.0635,-3.1173,-3.1212,-3.1891,-3.3353,-3.3064,-3.3333,-3.4205,-3.4737,-3.5173,-3.55,-3.55,-3.554,-3.5611,-3.5611,-3.5644,-3.5707,-3.5758,-3.5812,-3.5903,-3.5938,-3.5952,0.0,0.0,0.0,0.0,0.0,0.0,0.0,0.0,0.0,0.0,0.0,0.0,0.0,0.0,-3.2207,-3.166,-3.1445,-3.1797,-3.1914,-3.0703,-3.1055,0.0,0.0,-3.4238,0.0,0.0,0.0,0.0,0.0,0.0,0.0,0.0,0.0,0.0,0.0,0.0,0.0,0.0,0.0,0.0,0.0,0.0,0.0,0.0,0.0,0.0,0.0,0.0,0.0,-4.4687,-4.4687,-4.4512,-4.4199,-4.4199,-4.3926,-4.3398,-4.4277,-4.4512,-4.4199,-4.4531,-4.4219,-4.3457,-4.4883,-4.4687,-4.3535,-4.5488,-4.5976,-4.5547,-4.6094,-4.6308,-4.6308,-4.6308,-4.6308,-4.6308,0.0,0.0,0.0,0.0,0.0,0.0,0.0,0.0,0.0,0.0,0.0,0.0,0.0,0.0,0.0,0.0,0.0,0.0,-3.0404,-3.0404,-3.0673,-3.125,-3.1288,-3.1545,-3.2102,-3.2622,-3.3179,-3.3801,-3.4661,-3.5231,-3.55,-3.55,-3.5663,-3.5946,-3.5676,-3.5731,-3.5993,-3.5779,-3.5716,-3.5808,-3.5831,-3.5889,0.0,0.0,0.0,0.0,0.0,0.0,0.0,0.0,0.0,0.0,0.0,0.0,0.0,0.0,0.0,-3.125,-3.0644,-3.0918,-3.123,0.0,0.0,0.0,0.0,0.0,0.0,0.0,0.0,0.0,0.0,0.0,0.0,0.0,0.0,0.0,0.0,0.0,0.0,0.0,0.0,0.0,0.0,0.0,0.0,0.0,0.0,0.0,0.0,0.0,0.0,0.0,-4.3691,-4.3574,-4.3281,-4.3281,-4.2851,-4.2031,-4.2637,-4.3047,-4.3301,-4.3574,-4.3379,-4.2871,-4.4062,-4.4062,-4.3359,-4.5156,-4.5703,-4.5469,-4.6074,-4.6308,-4.6308,-4.6308,-4.6308,-4.6308,0.0,0.0,0.0,0.0,0.0,0.0,0.0,0.0,0.0,0.0,0.0,0.0,0.0,0.0,0.0,0.0,0.0,0.0,-3.0404,-3.0423,-3.0423,-3.0423,-3.0423,-3.0423,-3.0423,-3.2045,-3.2891,-3.291,-3.3801,-3.4641,-3.5481,-3.55,-3.5923,-3.6654,-3.5865,-3.5942,-3.6649,-3.5913,-3.5605,-3.5601,-3.5663,-3.5772,-3.5901,0.0,0.0,0.0,0.0,0.0,0.0,0.0,0.0,0.0,0.0,0.0,0.0,0.0,-3.0957,-2.9609,-2.9609,-2.9629,0.0,0.0,0.0,0.0,0.0,0.0,0.0,0.0,0.0,0.0,0.0,0.0,0.0,0.0,0.0,0.0,0.0,0.0,0.0,0.0,0.0,0.0,0.0,0.0,0.0,0.0,0.0,0.0,0.0,0.0,0.0,0.0,-4.3672,-4.3262,-4.2402,-4.2383,-4.1992,-4.1191,-4.1191,-4.1621,-4.2422,-4.3281,-4.3672,-4.3672,-4.3672,-4.418,-4.4961,-4.498,-4.5508,-4.6308,-4.6308,-4.6308,-4.6308,-4.6308,-4.6308,-4.6308,0.0,0.0,0.0,0.0,0.0,0.0,0.0,0.0,0.0,0.0,0.0,0.0,0.0,0.0,0.0,0.0,0.0,0.0,-3.1346,-3.1833,-3.216,-3.216,-3.216,-3.216,-3.216,-3.2083,-3.2622,-3.3821,-3.4699,-3.493,-3.4603,-3.5212,-3.5635,-3.5846,-3.5615,-3.5635,-3.5834,-3.5618,-3.555,-3.5591,-3.5611,-3.5739,-3.5901,0.0,0.0,0.0,0.0,0.0,0.0,0.0,0.0,0.0,0.0,0.0,0.0,-3.1465,-3.0918,-3.0508,-3.0508,0.0,0.0,0.0,0.0,0.0,0.0,0.0,0.0,0.0,0.0,0.0,0.0,0.0,0.0,0.0,0.0,0.0,0.0,0.0,0.0,0.0,0.0,0.0,0.0,0.0,0.0,0.0,0.0,0.0,0.0,0.0,0.0,0.0,-4.1933,-4.1816,-4.1562,-4.1562,-4.1445,-4.1191,-4.1191,-4.1328,-4.1562,-4.1816,-4.1933,-4.1973,-4.2539,-4.2617,-4.2422,-4.3594,-4.4961,-4.6308,-4.6308,-4.6308,-4.6308,-4.6308,-4.6308,-4.6308,0.0,0.0,0.0,0.0,0.0,0.0,0.0,0.0,0.0,0.0,0.0,0.0,0.0,0.0,0.0,0.0,0.0,0.0,0.0,-3.2622,-3.2891,-3.2891,-3.2891,-3.2891,-3.2891,-3.2429,-3.2526,-3.3199,-3.3737,-3.4064,-3.4205,-3.4737,-3.5346,-3.5981,-3.5981,-3.5981,-3.5981,-3.5981,-3.6003,-3.6039,-3.6039,-3.614,-3.6294,0.0,0.0,0.0,0.0,0.0,0.0,0.0,0.0,0.0,0.0,0.0,0.0,-3.1152,-3.0644,-3.0371,-3.0371,0.0,0.0,0.0,0.0,0.0,0.0,0.0,0.0,0.0,0.0,0.0,0.0,0.0,0.0,0.0,0.0,0.0,0.0,0.0,0.0,0.0,0.0,0.0,0.0,0.0,0.0,0.0,0.0,0.0,0.0,0.0,0.0,0.0,-4.0176,-4.0332,-4.0684,-4.0684,-4.0859,-4.1191,-4.1191,-4.1191,-4.1191,-4.1191,-4.1191,-4.123,-4.2051,-4.2129,-4.1777,-4.3144,-4.4512,-4.5781,-4.5781,-4.5996,-4.6308,-4.6308,-4.6308,-4.6308,0.0,0.0,0.0,0.0,0.0,0.0,0.0,0.0,0.0,0.0,-3.2256,0.0,0.0,0.0,0.0,0.0,0.0,0.0,0.0,-3.3083,-3.3141,-3.3141,-3.3141,-3.3103,-3.3026,-3.2949,-3.2545,-3.1814,-3.1814,-3.2583,-3.409,-3.4167,-3.5064,-3.6596,-3.6596,-3.6596,-3.6596,-3.6596,-3.6596,-3.6596,-3.6596,-3.6665,-3.6783,-3.6868,0.0,0.0,0.0,0.0,0.0,0.0,0.0,0.0,0.0,0.0,-3.2031,-3.1152,-3.0273,-2.9629,0.0,0.0,0.0,0.0,0.0,0.0,0.0,0.0,0.0,0.0,0.0,0.0,0.0,0.0,0.0,0.0,0.0,0.0,0.0,0.0,0.0,0.0,0.0,0.0,0.0,0.0,0.0,0.0,0.0,0.0,0.0,0.0,0.0,-3.8594,-3.8594,-3.8984,-3.9766,-3.9785,-4.0176,0.0,-4.0957,-4.0957,-4.0976,-4.1133,-4.1191,-4.123,-4.1973,-4.2324,-4.2461,-4.334,-4.4219,-4.5019,-4.5098,-4.5605,-4.6308,-4.6308,-4.6308,-4.6308,0.0,0.0,0.0,0.0,0.0,0.0,0.0,0.0,0.0,0.0,0.0,0.0,0.0,0.0,0.0,0.0,0.0,0.0,0.0,-3.4564,-3.4942,-3.4942,-3.4942,-3.4622,-3.3936,-3.3256,-3.2814,-3.2641,-3.2641,-3.2833,-3.3179,-3.3878,-3.4757,-3.575,-3.575,-3.575,-3.575,-3.575,-3.575,-3.575,-3.575,-3.5817,-3.5892,-3.5959,-3.5947,0.0,0.0,0.0,0.0,0.0,0.0,0.0,-3.2812,-3.2344,-3.2031,-3.1152,-3.0273,0.0,0.0,0.0,0.0,0.0,0.0,0.0,0.0,0.0,0.0,0.0,0.0,0.0,0.0,0.0,0.0,0.0,0.0,0.0,0.0,0.0,0.0,0.0,0.0,0.0,0.0,0.0,0.0,0.0,0.0,0.0,0.0,0.0,0.0,-3.8574,-3.8594,-3.8691,-3.8887,-3.8887,-3.8965,0.0,-3.916,-3.916,-3.9219,-4.0586,-4.1191,-4.1211,-4.1387,-4.1816,-4.2461,-4.334,-4.4219,-4.5078,-4.5742,-4.6133,-4.6308,-4.6308,-4.6308,-4.6308,0.0,0.0,0.0,0.0,0.0,0.0,0.0,0.0,0.0,0.0,0.0,0.0,0.0,0.0,0.0,0.0,0.0,0.0,0.0,0.0,-3.55,-3.55,-3.55,-3.5084,-3.4225,-3.3744,-3.3314,-3.2891,-3.2891,-3.3103,-3.3526,-3.3994,-3.4661,-3.5519,-3.5904,-3.5865,-3.5538,-3.5904,-3.6077,-3.6077,-3.6077,-3.61,-3.6141,-3.6265,-3.6119,-3.5817,-3.5953,0.0,0.0,0.0,0.0,0.0,0.0,0.0,-3.2493,-3.1269,0.0,0.0,0.0,0.0,0.0,0.0,0.0,0.0,0.0,0.0,0.0,0.0,0.0,0.0,0.0,0.0,0.0,0.0,0.0,0.0,0.0,0.0,0.0,0.0,0.0,0.0,0.0,0.0,0.0,0.0,0.0,0.0,0.0,-3.6055,-3.6074,-3.6113,-3.6523,-3.6934,-3.7344,-3.7773,-3.8184,-3.8594,-3.8594,-3.8828,-3.9258,-4.0156,-4.0801,-4.1191,-4.1191,-4.1445,-4.1855,-4.2324,-4.3008,-4.3848,-4.4707,-4.5312,-4.5723,-4.6152,-4.6308,-4.6308,0.0,0.0,0.0,0.0,0.0,0.0,0.0,0.0,0.0,0.0,0.0,0.0,0.0,0.0,0.0,0.0,0.0,0.0,0.0,0.0,0.0,-3.55,-3.55,-3.5084,-3.4225,-3.4205,-3.3859,-3.3122,-3.2968,-3.3353,-3.4205,-3.4205,-3.4584,-3.5288,-3.5962,-3.5808,-3.5096,-3.575,-3.6038,-3.6058,-3.6219,-3.6276,-3.6311,-3.6624,-3.632,-3.5703,-3.5878,-3.5451,-3.4919,-3.5694,0.0,0.0,0.0,0.0,-3.2966,0.0,0.0,0.0,0.0,0.0,0.0,0.0,0.0,0.0,0.0,0.0,0.0,0.0,0.0,0.0,0.0,0.0,0.0,0.0,0.0,0.0,0.0,0.0,0.0,0.0,0.0,0.0,0.0,0.0,0.0,0.0,0.0,0.0,-3.4512,-3.4473,-3.4141,-3.3418,-3.4101,-3.4824,-3.5547,-3.6426,-3.7207,-3.793,-3.8086,-3.8691,-3.9687,-3.9687,-4.0234,-4.1191,-4.1191,-4.1191,-4.1211,-4.1348,-4.1797,-4.25,-4.3535,-4.4375,-4.5117,-4.5976,-4.6308,-4.6308,0.0,0.0,0.0,0.0,0.0,0.0,0.0,0.0,0.0,0.0,0.0,0.0,0.0,0.0,0.0,0.0,0.0,0.0,0.0,0.0,0.0,-3.55,-3.55,-3.5084,-3.4225,-3.4205,-3.4148,-3.4032,-3.3276,-3.3353,-3.4205,-3.4205,-3.4263,-3.4379,-3.4494,-3.4045,-3.3256,-3.3353,-3.341,-3.3468,-3.4218,-3.4533,-3.4629,-3.5463,-3.5713,-3.5616,-3.5703,-3.5654,-3.5567,-3.5696,-3.5645,0.0,0.0,0.0,0.0,0.0,0.0,0.0,0.0,0.0,0.0,0.0,0.0,0.0,0.0,0.0,0.0,0.0,0.0,0.0,0.0,0.0,0.0,0.0,0.0,0.0,0.0,0.0,0.0,0.0,0.0,0.0,0.0,0.0,0.0,0.0,0.0,0.0,-3.3574,-3.3574,-3.3516,-3.3398,-3.3516,-3.3633,-3.375,-3.4609,-3.5117,-3.5234,-3.5996,-3.7207,-3.8769,-3.8769,-3.9668,-4.1191,-4.1191,-4.1191,-4.125,-4.1953,-4.2305,-4.2558,-4.4199,-4.4902,-4.5117,-4.5976,-4.6308,-4.6308,0.0,0.0,0.0,0.0,0.0,0.0,0.0,0.0,0.0,0.0,0.0,0.0,0.0,0.0,0.0,0.0,0.0,0.0,0.0,0.0,0.0,-3.55,-3.55,-3.5327,-3.4949,-3.493,-3.493,-3.493,-3.4545,-3.4545,0.0,-3.493,-3.441,-3.3468,-3.3468,-3.3256,-3.2891,-3.2891,-3.2891,-3.2929,-3.3314,-3.3199,-3.2948,-3.4339,-3.4589,-3.4323,-3.5344,-3.569,-3.5646,-3.5686,-3.5646,-3.532,-3.3704,0.0,0.0,0.0,0.0,0.0,0.0,0.0,0.0,0.0,0.0,0.0,0.0,0.0,0.0,0.0,0.0,0.0,0.0,0.0,0.0,0.0,0.0,0.0,0.0,0.0,0.0,0.0,0.0,0.0,0.0,0.0,0.0,0.0,0.0,-3.3127,-3.2754,-3.2653,-3.2438,-3.2012,-3.2461,-3.2734,-3.2734,-3.3555,-3.4219,-3.4707,-3.5586,-3.666,-3.7891,-3.8379,-3.9551,-4.1191,-4.1191,-4.1191,-4.123,-4.1582,-4.1738,-4.1894,-4.3613,-4.4277,-4.4433,-4.5801,-4.6308,-4.6308,0.0,0.0,0.0,0.0,0.0,0.0,0.0,0.0,0.0,0.0,0.0,0.0,0.0,0.0,0.0,0.0,0.0,0.0,0.0,0.0,0.0,0.0,-3.55,-3.55,-3.55,-3.55,-3.55,-3.55,-3.5269,-3.5173,-3.5154,-3.4942,-3.416,0.0,-3.2891,-3.2795,-3.2583,-3.2352,-3.2256,-3.2256,-3.2256,-3.191,-3.1518,-3.2814,-3.2938,-3.2648,-3.4363,-3.4952,-3.4993,-3.548,-3.5574,-3.5258,-3.3896,0.0,0.0,0.0,0.0,0.0,0.0,0.0,0.0,0.0,0.0,0.0,0.0,0.0,0.0,0.0,0.0,0.0,0.0,0.0,0.0,0.0,0.0,0.0,0.0,0.0,0.0,0.0,0.0,0.0,0.0,0.0,0.0,0.0,0.0,-3.2313,-3.1827,-3.1701,-3.143,-3.0877,-3.1504,-3.1875,-3.1875,-3.2891,-3.3945,-3.5039,-3.5684,-3.6465,-3.7324,-3.7969,-3.9219,-4.0879,-4.1094,-4.1191,-4.1191,-4.1191,-4.1191,-4.1348,-4.2793,-4.3379,-4.3555,-4.5078,-4.5781,-4.5976,0.0,0.0,0.0,0.0,0.0,0.0,0.0,0.0,0.0,0.0,0.0,0.0,-3.55,-3.55,-3.55,-3.55,0.0,0.0,0.0,0.0,0.0,0.0,0.0,0.0,-3.55,-3.55,-3.55,-3.55,-3.4661,0.0,-3.4244,-3.341,-3.2987,-3.2891,-3.2891,-3.2487,-3.1718,0.0,0.0,0.0,0.0,-3.05,-3.0481,-3.0569,0.0,0.0,0.0,0.0,-3.3288,-3.495,-3.5514,-3.5334,0.0,0.0,0.0,0.0,0.0,0.0,0.0,0.0,0.0,0.0,0.0,0.0,0.0,0.0,0.0,0.0,0.0,0.0,0.0,0.0,0.0,0.0,0.0,0.0,0.0,0.0,0.0,0.0,0.0,0.0,0.0,0.0,0.0,0.0,0.0,-3.0725,-3.0695,-3.0732,-3.0755,-3.0717,-3.0876,-3.0976,-3.0976,-3.2598,-3.4258,-3.5937,-3.5976,-3.6465,-3.7305,-3.7344,-3.832,-4.0019,-4.084,-4.1191,-4.1191,-4.1191,-4.1191,-4.1289,-4.2148,-4.2461,-4.2578,-4.3496,-4.4355,-4.5078,0.0,0.0,0.0,0.0,0.0,0.0,0.0,0.0,0.0,0.0,0.0,0.0,0.0,-3.55,-3.55,-3.55,-3.55,0.0,0.0,0.0,0.0,0.0,0.0,0.0,0.0,-3.6,-3.6019,-3.55,-3.5192,-3.5026,-3.5026,-3.4712,-3.4577,-3.45,-3.2852,-3.1968,-3.1641,-3.0769,0.0,0.0,0.0,0.0,0.0,0.0,0.0,0.0,0.0,0.0,0.0,0.0,0.0,0.0,0.0,0.0,0.0,0.0,0.0,0.0,0.0,0.0,0.0,0.0,0.0,0.0,0.0,0.0,0.0,0.0,0.0,0.0,0.0,0.0,0.0,0.0,0.0,0.0,0.0,0.0,0.0,0.0,0.0,0.0,0.0,0.0,0.0,0.0,0.0,0.0,-2.8999,-2.8982,-2.9244,-2.9849,-2.9957,-3.0289,-3.0898,-3.2559,-3.3711,-3.4336,-3.5469,-3.6152,-3.6484,-3.7031,-3.7637,-3.8301,-3.9746,-4.0684,-4.1191,-4.1191,-4.1191,-4.1289,-4.209,-4.2402,-4.2578,-4.4004,-4.4726,-4.5078,0.0,0.0,0.0,0.0,0.0,0.0,0.0,0.0,0.0,-3.3551,0.0,0.0,0.0,0.0,-3.55,-3.55,-3.55,-3.55,-3.55,-3.575,0.0,0.0,0.0,0.0,0.0,-3.6019,-3.6038,-3.55,-3.55,-3.55,-3.55,-3.55,-3.55,-3.5404,-3.3122,-3.2102,0.0,0.0,0.0,-3.0308,0.0,0.0,-2.8736,0.0,0.0,0.0,0.0,0.0,0.0,0.0,0.0,0.0,0.0,0.0,0.0,0.0,0.0,0.0,0.0,0.0,0.0,0.0,0.0,0.0,0.0,0.0,0.0,0.0,0.0,0.0,0.0,0.0,0.0,0.0,0.0,0.0,0.0,0.0,0.0,0.0,0.0,0.0,0.0,0.0,0.0,0.0,0.0,0.0,-2.8025,-2.8016,-2.8443,-2.9401,-2.9478,-3.0088,-3.1328,-3.2441,-3.3281,-3.3848,-3.5019,-3.5723,-3.6016,-3.6601,-3.7012,-3.7363,-3.8516,-3.9687,-4.0781,-4.1074,-4.1191,-4.125,-4.1797,-4.1992,-4.2168,-4.3594,-4.4316,-4.4687,0.0,0.0,0.0,0.0,0.0,0.0,0.0,0.0,-3.1968,-3.2827,0.0,0.0,0.0,0.0,0.0,-3.5493,-3.55,-3.55,-3.55,-3.6231,0.0,0.0,0.0,0.0,0.0,-3.5519,-3.5519,-3.55,-3.55,-3.55,-3.55,-3.55,-3.55,-3.5423,-3.368,-3.2891,-3.2795,0.0,-3.0404,-3.0269,0.0,-2.8929,-3.0154,0.0,0.0,0.0,-3.1314,-3.166,0.0,0.0,0.0,0.0,0.0,0.0,0.0,0.0,0.0,0.0,0.0,0.0,0.0,0.0,0.0,0.0,0.0,0.0,0.0,0.0,0.0,0.0,0.0,0.0,0.0,0.0,0.0,0.0,0.0,0.0,0.0,0.0,0.0,0.0,0.0,0.0,0.0,0.0,0.0,-2.7818,-2.7818,-2.7907,-2.8411,-2.9429,-2.949,-3.0342,-3.2148,-3.2187,-3.3027,-3.4668,-3.4687,-3.5156,-3.5996,-3.5996,-3.6465,-3.7266,-3.7305,-3.8281,-3.9922,-4.0801,-4.1172,-4.1191,-4.1191,-4.1191,-4.1308,-4.2109,-4.2949,-4.3828,0.0,0.0,0.0,0.0,0.0,0.0,0.0,-3.0706,-3.1539,0.0,0.0,0.0,-3.5084,-3.5207,-3.5207,-3.5207,-3.5383,-3.55,-3.55,-3.5712,-3.5731,-3.5519,-3.6269,-3.6327,-3.5519,-3.6077,-3.6077,-3.55,-3.55,-3.55,-3.55,-3.55,-3.55,0.0,-3.368,-3.2891,-3.2795,-3.1115,0.0,0.0,-2.9904,-2.9256,0.0,0.0,0.0,0.0,0.0,-3.0621,-3.1737,0.0,-3.2833,-3.3987,0.0,0.0,0.0,0.0,0.0,0.0,-3.3276,0.0,0.0,0.0,0.0,0.0,0.0,0.0,0.0,0.0,0.0,0.0,0.0,0.0,0.0,0.0,0.0,0.0,0.0,0.0,0.0,0.0,0.0,0.0,0.0,0.0,0.0,0.0,-2.5904,-2.6019,-2.6019,-2.6636,-2.7458,-2.8468,-2.9109,-3.0024,-3.125,-3.1875,-3.2715,-3.3769,-3.4394,-3.5156,-3.5996,-3.5948,-3.6056,-3.6349,-3.7561,-3.8361,-3.8891,-3.9862,-4.0625,-4.1191,-4.1191,-4.1191,-4.1308,-4.2109,-4.2949,-4.3828,0.0,0.0,0.0,0.0,0.0,0.0,0.0,-3.1165,-3.1806,0.0,0.0,0.0,-3.4822,-3.523,-3.5306,-3.4954,-3.5182,-3.5327,-3.5327,-3.5746,-3.5846,-3.5519,-3.6269,-3.6327,-3.5519,-3.5962,-3.5962,-3.55,-3.55,-3.55,-3.55,-3.55,-3.55,-3.5442,0.0,0.0,0.0,0.0,0.0,0.0,-2.9635,0.0,0.0,-2.9204,-2.9473,0.0,0.0,0.0,-3.2083,-3.1385,-3.2275,0.0,0.0,0.0,0.0,0.0,0.0,0.0,0.0,0.0,0.0,0.0,0.0,0.0,0.0,-2.8715,0.0,0.0,0.0,0.0,0.0,0.0,0.0,0.0,0.0,0.0,0.0,0.0,0.0,0.0,0.0,0.0,0.0,0.0,0.0,-2.5397,-2.5352,-2.5326,-2.5308,-2.5788,-2.6693,-2.8055,-2.8598,-2.9526,-3.0898,-3.1406,-3.2226,-3.3353,-3.3861,-3.4735,-3.5874,-3.5825,-3.5829,-3.5887,-3.7233,-3.8049,-3.8445,-3.9031,-4.0037,-4.1191,-4.1149,-4.1126,-4.1203,-4.1991,-4.2591,-4.3216,0.0,0.0,0.0,0.0,0.0,0.0,0.0,-3.1963,-3.2389,0.0,-3.3576,-3.3915,-3.4658,-3.5413,-3.5574,-3.485,-3.4983,-3.5105,-3.5105,-3.6013,-3.625,-3.5538,-3.6192,-3.6231,-3.5519,-3.55,-3.55,-3.55,-3.55,-3.55,-3.55,-3.55,-3.55,-3.5462,0.0,0.0,0.0,0.0,0.0,-3.0135,-2.8736,-2.9486,0.0,0.0,-3.0583,0.0,-3.1775,-3.2025,-3.241,-3.1,-3.1519,0.0,0.0,0.0,0.0,0.0,-3.434,0.0,0.0,0.0,0.0,0.0,0.0,0.0,-3.0056,-2.9088,-2.8082,0.0,0.0,0.0,0.0,0.0,0.0,0.0,0.0,0.0,0.0,0.0,0.0,0.0,0.0,0.0,0.0,-2.5603,-2.5551,-2.5421,-2.5406,-2.5371,-2.5293,-2.5308,-2.6105,-2.7887,-2.8048,-2.8938,-3.0722,-3.0839,-3.1691,-3.3301,-3.3296,-3.4145,-3.5703,-3.5693,-3.5689,-3.5748,-3.6612,-3.7521,-3.8387,-3.8387,-3.9492,-4.1151,-4.0934,-4.0914,-4.1057,-4.1714,-4.2074,-4.2463,0.0,0.0,0.0,0.0,0.0,0.0,0.0,-3.1925,-3.2142,-3.3817,-3.4643,-3.5051,-3.494,-3.5318,-3.5513,-3.5357,-3.5182,-3.5105,-3.5105,-3.5488,-3.5654,-3.5519,-3.5654,-3.5654,-3.55,-3.55,-3.55,-3.55,-3.55,-3.55,-3.55,-3.55,-3.55,-3.5462,0.0,0.0,0.0,0.0,0.0,-2.939,-2.9756,0.0,-2.9646,-3.0006,-3.0025,-2.9915,-3.0462,-3.075,-3.0942,0.0,-3.166,-3.2179,0.0,0.0,0.0,0.0,0.0,0.0,0.0,0.0,0.0,0.0,0.0,0.0,-3.2508,-3.1659,-3.0805,0.0,0.0,0.0,0.0,0.0,0.0,0.0,0.0,0.0,0.0,0.0,0.0,0.0,0.0,0.0,0.0,-2.5633,-2.5563,-2.5498,-2.5376,-2.5317,-2.5308,-2.5308,-2.5815,-2.6948,-2.7643,-2.8579,-2.9752,-3.0359,-3.156,-3.3301,-3.3259,-3.4085,-3.5703,-3.5638,-3.5631,-3.567,-3.6547,-3.7419,-3.8248,-3.8302,-3.9387,-4.0969,-4.0237,-4.032,-4.0866,-4.1003,-4.1949,-4.3194,0.0,0.0,0.0,0.0,0.0,0.0,0.0,0.0,-3.3083,-3.4417,-3.57,-3.6293,-3.5711,-3.6159,-3.6342,-3.5935,-3.6017,-3.5922,-3.5543,-3.5875,-3.5923,-3.5519,-3.55,-3.55,-3.55,-3.55,-3.55,-3.55,-3.55,-3.55,-3.55,-3.55,-3.5038,-3.4212,0.0,0.0,0.0,0.0,-3.2564,-3.0948,-3.0558,0.0,-2.9146,-2.9583,-2.9756,-2.9813,-3.0231,-3.0404,-3.0538,-3.141,-3.1968,0.0,0.0,-3.3859,-3.4379,0.0,-3.5192,-3.4949,0.0,0.0,0.0,-3.4968,0.0,0.0,0.0,-3.2387,-3.1456,0.0,0.0,0.0,0.0,0.0,0.0,0.0,0.0,0.0,0.0,0.0,0.0,0.0,0.0,0.0,0.0,-2.5636,-2.5567,-2.5515,-2.5387,-2.5308,-2.5308,-2.5308,-2.5751,-2.6711,-2.7608,-2.8518,-2.9486,-3.0264,-3.1495,-3.3142,-3.3118,-3.3977,-3.5605,-3.5574,-3.5552,-3.559,-3.6433,-3.7085,-3.7588,-3.802,-3.8991,-4.0167,-3.9715,-4.0049,-4.0801,-4.1153,-4.184,-4.2717,0.0,0.0,0.0,0.0,0.0,0.0,0.0,0.0,-3.41,-3.4894,-3.6321,-3.7015,-3.6358,-3.6725,-3.6762,-3.6101,-3.6217,-3.6131,-3.5692,-3.612,-3.6049,-3.5288,-3.5558,-3.5577,-3.525,-3.5404,-3.55,-3.55,-3.55,-3.55,-3.55,-3.55,-3.475,0.0,0.0,0.0,0.0,0.0,0.0,-3.2333,0.0,-3.0467,-2.98,-2.9473,-2.989,-3.0635,-3.0462,-3.0404,-3.0538,-3.141,0.0,-3.2737,-3.3045,-3.3526,0.0,0.0,0.0,0.0,0.0,0.0,0.0,0.0,0.0,-3.4283,0.0,0.0,0.0,0.0,0.0,0.0,0.0,0.0,0.0,0.0,0.0,0.0,0.0,0.0,0.0,0.0,0.0,0.0,0.0,-2.5602,-2.5547,-2.5493,-2.5387,-2.5327,-2.5322,-2.5326,-2.5701,-2.6527,-2.7566,-2.8463,-2.9218,-3.0186,-3.1445,-3.2997,-3.2991,-3.3867,-3.55,-3.55,-3.55,-3.5538,-3.6192,-3.6614,-3.69,-3.756,-3.8431,-3.9371,-3.9381,-4.0028,-4.0984,-4.1582,-4.2,-4.247,-2.9115,-2.9629,0.0,0.0,0.0,0.0,0.0,0.0,-3.41,-3.4894,-3.5844,-3.6395,-3.6303,-3.5683,0.0,-3.5169,0.0,0.0,-3.4768,0.0,-3.5002,-3.4372,-3.5776,-3.5872,-3.4379,-3.5096,-3.55,-3.55,-3.55,-3.55,-3.55,-3.55,0.0,0.0,-3.4603,0.0,0.0,0.0,-3.2833,0.0,-3.2083,-3.2564,0.0,-3.0827,-3.0788,-3.1448,-3.0673,-3.0404,-3.0538,0.0,-3.1756,-3.2102,0.0,-3.3583,0.0,0.0,0.0,0.0,0.0,0.0,0.0,0.0,-3.5423,0.0,0.0,0.0,-3.3865,0.0,0.0,0.0,0.0,0.0,0.0,0.0,0.0,0.0,0.0,0.0,0.0,0.0,0.0,0.0,0.0,0.0,-2.5444,-2.5506,-2.5431,-2.5391,-2.5383,-2.5447,-2.5534,-2.5647,-2.724,-2.8157,-2.8259,-2.9763,-3.1353,-3.2997,-3.2937,-3.3827,-3.55,-3.55,-3.55,-3.5519,-3.5596,-3.6052,-3.6727,-3.6824,-3.7824,-3.9309,-3.9373,-4.032,-4.1686,-4.1758,-4.2739,-4.4047,-3.0301,-3.0283,0.0,0.0,0.0,0.0,0.0,0.0,-3.4802,-3.5642,-3.6486,-3.7165,0.0,0.0,0.0,0.0,0.0,-3.493,0.0,0.0,-3.5521,-3.5426,-3.6088,-3.6146,-3.5434,-3.5463,-3.5424,-3.5273,-3.5424,-3.55,-3.55,-3.55,0.0,0.0,-3.4075,0.0,-3.2601,0.0,0.0,0.0,0.0,0.0,0.0,-3.0944,-3.0393,-3.0694,-3.0483,-3.0404,-3.0462,0.0,-3.1602,0.0,0.0,0.0,0.0,0.0,0.0,0.0,0.0,0.0,0.0,0.0,0.0,0.0,0.0,0.0,-3.4814,0.0,0.0,0.0,0.0,0.0,0.0,0.0,0.0,0.0,0.0,0.0,0.0,0.0,0.0,0.0,0.0,0.0,0.0,0.0,0.0,-2.5359,-2.5395,-2.5425,-2.5704,-2.63,-2.7474,-2.8324,-2.8788,-3.0432,-3.1811,-3.2943,-3.3423,-3.4295,-3.55,-3.55,-3.55,-3.55,-3.55,-3.5692,-3.6038,-3.65,-3.743,-3.8592,-3.9126,-4.0337,-4.1865,-4.2374,-4.3297,-4.4374,-3.125,0.0,0.0,0.0,0.0,0.0,0.0,0.0,0.0,0.0,0.0,0.0,-3.8303,-3.7973,0.0,0.0,-3.5386,-3.476,0.0,0.0,-3.5282,0.0,0.0,0.0,0.0,0.0,0.0,0.0,0.0,0.0,0.0,0.0,0.0,0.0,0.0,-3.3268,-3.1958,0.0,0.0,-3.3137,-3.3327,-3.2993,-3.2231,-3.0863,-3.0216,-3.0047,-3.0305,-3.0355,-3.0343,-3.0661,-3.1558,0.0,-3.209,0.0,0.0,0.0,0.0,0.0,-3.5798,0.0,0.0,0.0,0.0,0.0,0.0,0.0,0.0,0.0,0.0,0.0,0.0,0.0,0.0,0.0,0.0,0.0,0.0,0.0,0.0,0.0,0.0,0.0,0.0,0.0,0.0,-2.5406,-2.535,-2.5357,-2.5398,-2.5434,-2.5902,-2.687,-2.7696,-2.8498,-2.9291,-3.0952,-3.2173,-3.291,-3.3782,-3.4661,-3.55,-3.55,-3.55,-3.55,-3.55,-3.55,-3.5577,-3.6635,-3.743,-3.8104,-3.9207,-4.0527,-4.1904,-4.2777,-4.3758,-4.4739,-3.125,-3.2008,0.0,0.0,0.0,0.0,0.0,0.0,0.0,0.0,0.0,0.0,0.0,0.0,0.0,0.0,0.0,-3.1666,-3.1864,0.0,-3.3401,0.0,0.0,-3.6073,0.0,0.0,0.0,0.0,0.0,0.0,0.0,0.0,0.0,0.0,0.0,-3.3631,-3.3289,-3.2581,-3.1931,-3.1375,-3.1382,-3.0755,-2.992,0.0,-3.0738,-3.0047,-3.0305,0.0,0.0,-3.1296,-3.1698,0.0,0.0,0.0,0.0,0.0,0.0,0.0,0.0,0.0,0.0,-3.5477,0.0,0.0,0.0,0.0,-3.5481,0.0,0.0,0.0,0.0,0.0,0.0,0.0,0.0,0.0,0.0,0.0,0.0,0.0,0.0,0.0,0.0,0.0,0.0,-2.5391,-2.5395,-2.5398,-2.539,-2.5511,-2.5991,-2.6871,-2.7746,-2.8558,-2.9291,-3.0952,-3.2173,-3.291,-3.3782,-3.4661,-3.55,-3.55,-3.55,-3.55,-3.55,-3.55,-3.5635,-3.7276,-3.7969,-3.8161,-3.9823,-4.1008,-4.1904,-4.2777,-4.4143,-4.5556,0.0,0.0,0.0,0.0,0.0,0.0,0.0,-3.5261,0.0,0.0,0.0,0.0,0.0,0.0,-3.4454,0.0,0.0,-3.1783,-3.0798,-3.3271,0.0,0.0,0.0,-3.6773,0.0,0.0,0.0,0.0,0.0,0.0,0.0,0.0,0.0,0.0,0.0,-3.308,0.0,0.0,0.0,0.0,0.0,-3.0534,-3.0478,0.0,0.0,-2.9804,-2.9904,-2.9966,0.0,-3.03,-3.076,-3.1265,-3.1421,-3.2029,-3.2777,-3.3261,-3.3609,0.0,0.0,0.0,-3.5288,-3.6092,0.0,0.0,0.0,0.0,0.0,0.0,0.0,0.0,0.0,0.0,0.0,0.0,0.0,0.0,0.0,0.0,0.0,0.0,0.0,0.0,0.0,0.0,0.0,-2.5326,-2.533,-2.5346,0.0,-2.5981,-2.6761,-2.773,-2.8473,-2.9554,-3.1002,-3.2019,-3.2946,-3.3782,-3.4641,-3.5212,-3.55,-3.55,-3.55,-3.55,-3.55,-3.55,-3.5596,-3.6692,-3.7488,-3.8104,-3.9265,-4.0566,-4.1904,-4.2777,-4.3797,-4.4816,-3.2601,0.0,0.0,0.0,0.0,0.0,0.0,0.0,0.0,0.0,-3.6468,0.0,-3.6303,0.0,-3.4362,0.0,-3.2339,-3.1733,-3.0687,-3.2839,0.0,-3.2551,-3.5026,0.0,0.0,0.0,0.0,0.0,0.0,-3.5229,0.0,0.0,0.0,0.0,0.0,0.0,0.0,0.0,-3.1237,0.0,0.0,-3.0281,0.0,0.0,-2.9682,-2.9992,0.0,-2.9748,-2.9771,-2.9722,-3.0072,-3.0572,-3.0744,-3.1542,-3.25,-3.2983,-3.3512,-3.4202,-3.541,-3.5343,0.0,-3.6051,-3.5885,0.0,-3.55,0.0,0.0,0.0,0.0,0.0,0.0,0.0,0.0,0.0,0.0,0.0,0.0,0.0,0.0,0.0,0.0,0.0,0.0,0.0,-2.5635,-2.5327,-2.5308,-2.5322,0.0,0.0,-2.7159,-2.8122,-2.8867,-3.009,-3.1881,-3.2554,-3.3333,-3.4205,-3.5084,-3.55,-3.55,-3.55,-3.55,-3.55,-3.55,-3.5654,-3.5981,-3.6808,-3.768,-3.8546,-3.94,-4.0392,-4.145,-4.2316,-4.3335,-4.4412,0.0,0.0,0.0,0.0,-3.4472,0.0,0.0,0.0,-3.656,0.0,-3.6725,-3.6211,-3.6174,-3.5389,-3.4252,-3.2674,-3.188,0.0,-3.136,-3.221,0.0,0.0,-3.2981,-3.3271,-3.2011,0.0,0.0,0.0,0.0,0.0,0.0,0.0,0.0,0.0,-3.4529,0.0,-3.1397,-3.1397,-3.0614,-2.9382,-2.9419,-2.9922,-3.0522,-2.9469,-2.9721,-3.0567,-2.9936,-2.958,-2.9424,-2.9654,-2.9726,-2.9832,-3.0441,-3.0666,-3.0954,-3.2268,-3.2656,-3.2957,-3.4341,-3.4694,-3.4841,-3.5369,0.0,0.0,0.0,0.0,-3.5481,0.0,0.0,0.0,0.0,0.0,0.0,0.0,0.0,0.0,0.0,0.0,0.0,0.0,0.0,0.0,0.0,-2.6135,-2.625,-2.5423,-2.5365,0.0,0.0,0.0,-2.7284,-2.8131,-2.8982,-3.0234,-3.1932,-3.2626,-3.3391,-3.4263,-3.5096,-3.55,-3.55,-3.55,-3.55,-3.55,-3.5538,-3.5981,-3.6769,-3.77,-3.8546,-3.9381,-4.0189,-4.0535,-4.0669,-4.1546,-4.2893,-4.4412,-3.3495,-3.366,-3.3807,0.0,-3.4472,-3.5298,0.0,0.0,0.0,0.0,-3.5862,-3.5114,-3.4504,-3.3715,-3.2803,-3.1788,-3.2063,0.0,0.0,0.0,0.0,-3.1488,-3.35,-3.427,-3.3338,-3.4214,0.0,-3.528,0.0,0.0,-3.499,0.0,0.0,0.0,0.0,0.0,-3.1397,-3.1397,-3.0515,-2.9156,-2.9757,-3.0475,0.0,0.0,-3.0423,-3.1095,-3.0334,-2.9789,-2.9475,-2.9931,-3.0061,-3.0198,-3.0959,-3.1617,-3.2262,-3.3214,-3.3495,-3.367,-3.4481,-3.4694,-3.4841,-3.5369,-3.55,-3.55,0.0,0.0,0.0,0.0,0.0,0.0,0.0,0.0,0.0,0.0,0.0,0.0,0.0,0.0,0.0,0.0,0.0,0.0,-2.7313,-2.6851,-2.6505,-2.6269,-2.6269,0.0,0.0,0.0,0.0,-2.89,-3.0337,-3.1617,-3.2714,-3.3483,-3.4295,-3.5173,-3.5385,-3.55,-3.55,-3.55,-3.55,-3.5538,-3.6135,-3.65,-3.6808,-3.8334,-3.9111,-3.9381,-4.0189,-4.0893,-4.1566,-4.245,-4.3412,-4.4412,-3.3807,0.0,0.0,-3.4022,0.0,0.0,-3.5742,0.0,0.0,-3.634,-3.5536,0.0,-3.4362,-3.3623,-3.2797,-3.199,-3.2027,0.0,0.0,0.0,0.0,-3.248,-3.3408,-3.3573,-3.2761,-3.3537,0.0,-3.4234,0.0,0.0,-3.4696,0.0,0.0,0.0,0.0,-3.3215,0.0,-3.1562,-3.087,-3.0099,-3.054,0.0,0.0,-3.1035,-3.0999,-3.1397,-3.1292,-3.0378,-2.9322,-2.9975,-3.021,-3.0338,-3.1146,-3.1953,-3.2748,-3.3568,-3.3876,-3.4068,-3.458,-3.4793,-3.4972,-3.541,-3.55,-3.55,-3.55,-3.55,-3.525,0.0,0.0,0.0,0.0,0.0,0.0,0.0,0.0,0.0,0.0,0.0,0.0,0.0,0.0,0.0,-2.9044,-2.789,-2.7178,-2.7178,0.0,0.0,0.0,0.0,0.0,-2.9205,-3.1196,-3.2499,-3.2997,-3.4179,-3.5007,-3.55,-3.55,-3.55,-3.55,-3.55,-3.55,-3.5538,-3.6346,-3.6923,-3.7373,-3.8738,-3.9515,-3.9881,-4.0323,-4.1027,-4.1904,-4.2777,-4.3605,-4.4412,0.0,0.0,0.0,0.0,0.0,0.0,0.0,-3.634,0.0,-3.6229,0.0,-3.4839,-3.4839,-3.4229,-3.3476,-3.2674,0.0,-3.2265,-3.3568,-3.243,-3.2351,-3.3733,-3.3036,-3.232,-3.1727,-3.2302,0.0,0.0,0.0,0.0,0.0,0.0,0.0,0.0,0.0,0.0,0.0,-3.1733,-3.1397,0.0,-3.1513,-3.1971,-3.2509,-3.1825,-3.1549,-3.1654,-3.2344,-3.1115,-2.9299,-3.021,-3.0522,-3.065,-3.1329,-3.2118,-3.2894,-3.3587,-3.3999,-3.4258,-3.4622,-3.4898,-3.5155,-3.5432,-3.55,-3.5462,-3.5365,-3.5327,-3.5038,-3.4064,-3.3878,-3.343,0.0,0.0,0.0,0.0,0.0,0.0,0.0,0.0,0.0,0.0,0.0,0.0,0.0,0.0,0.0,0.0,0.0,0.0,0.0,0.0,0.0,-2.9358,-3.1724,0.0,-3.3165,0.0,-3.5558,-3.5654,-3.5558,-3.55,-3.55,-3.55,-3.5558,-3.5692,-3.6519,-3.7353,-3.8238,-3.9111,-3.9881,-4.0496,-4.0496,-4.1104,-4.2058,-4.2816,-4.3682,-4.4586,0.0,0.0,0.0,0.0,0.0,-3.6835,-3.5247,-3.5862,-3.6193,-3.5334,-3.4509,-3.4009,-3.4009,-3.388,-3.3476,-3.2674,-3.3091,0.0,0.0,0.0,0.0,-3.3788,-3.3036,-3.2839,-3.3366,-3.2871,-3.3243,0.0,0.0,0.0,0.0,0.0,0.0,0.0,0.0,0.0,-3.2546,-3.1733,0.0,-3.147,-3.2118,-3.2472,-3.2583,-3.2436,-3.2381,-3.2399,-3.2546,-3.1482,-3.021,-3.1684,-3.2179,-3.2197,-3.2344,-3.2944,-3.3623,-3.3752,-3.3999,-3.4258,-3.4622,-3.4898,-3.5155,-3.5432,-3.55,-3.5308,-3.4584,-3.443,-3.3987,-3.2449,-3.2141,-3.2045,-3.1756,0.0,0.0,0.0,0.0,0.0,0.0,0.0,0.0,0.0,0.0,0.0,0.0,0.0,0.0,0.0,0.0,0.0,0.0,0.0,0.0,0.0,-3.1965,0.0,0.0,0.0,-3.5827,-3.6481,-3.5827,-3.55,-3.55,-3.55,-3.5865,-3.6538,-3.7411,-3.8277,-3.915,-3.9958,-4.0362,-4.0496,-4.0496,-4.147,-4.2893,-4.3047,-4.4066,-4.5402,0.0,0.0,0.0,0.0,0.0,0.0,0.0,-3.5861,0.0,-3.5114,-3.4656,-3.4417,-3.4417,-3.4045,-3.3642,-3.3256,-3.3201,-3.3201,-3.322,-3.3201,-3.3366,-3.377,-3.344,0.0,-3.3788,-3.2596,-3.2779,-3.438,0.0,0.0,0.0,0.0,0.0,0.0,0.0,-3.3587,0.0,0.0,0.0,-3.2669,-3.3073,-3.322,-3.322,-3.322,-3.2949,-3.2656,-3.306,-3.2192,-3.0999,-3.2197,-3.2601,-3.2601,-3.2601,-3.2858,-3.3191,-3.3345,-3.3283,-3.3214,-3.3488,-3.4086,-3.4664,-3.4794,-3.5173,-3.5269,-3.4398,-3.4205,-3.3725,-3.2045,-3.1698,-3.1564,-3.1115,-3.141,0.0,0.0,0.0,0.0,0.0,0.0,0.0,0.0,0.0,0.0,0.0,0.0,0.0,0.0,0.0,0.0,0.0,0.0,0.0,0.0,0.0,0.0,0.0,0.0,0.0,-3.6077,-3.5692,-3.55,-3.5519,-3.5923,-3.6327,-3.6769,-3.8104,-3.8911,-3.9361,-4.0169,-4.0496,-4.0535,-4.0989,-4.195,-4.3143,-4.3566,-4.4509,-4.5594,0.0,-3.5863,0.0,0.0,-3.7055,0.0,-3.5894,-3.5878,-3.5716,-3.4857,-3.4747,-3.4747,-3.4747,-3.4192,-3.3807,-3.3807,-3.322,-3.3128,-3.3752,-3.322,-3.3146,-3.377,-3.3807,-3.3807,-3.3807,-3.2394,-3.243,0.0,0.0,0.0,0.0,0.0,0.0,0.0,0.0,0.0,0.0,0.0,-3.3807,-3.3807,-3.3807,-3.3807,-3.377,-3.3605,-3.3146,-3.2656,-3.3128,-3.248,-3.1507,-3.2137,-3.2339,-3.2399,-3.2761,-3.2619,-3.2414,-3.2797,-3.2548,-3.2194,-3.252,-3.3184,-3.3827,-3.4,-3.4422,-3.4575,-3.3712,-3.3548,-3.3153,-3.1648,-3.1385,-3.1212,-3.0538,-3.0962,0.0,0.0,0.0,0.0,0.0,0.0,0.0,0.0,0.0,0.0,0.0,0.0,0.0,0.0,0.0,0.0,-3.0635,-3.0673,0.0,0.0,0.0,-3.3949,-3.3468,0.0,-3.6212,0.0,-3.5577,-3.55,-3.5538,-3.6327,-3.6692,-3.6788,-3.8546,-3.94,-3.9611,-4.0246,-4.0496,-4.0593,-4.147,-4.2335,-4.3201,-4.3989,-4.4855,-4.5594,0.0,0.0,0.0,0.0,0.0,0.0,0.0,-3.5614,-3.4821,-3.4027,-3.3917,-3.3917,-3.3917,-3.3844,-3.3807,-3.3807,-3.3733,-3.3715,-3.3807,-3.3733,-3.3715,-3.3807,-3.3807,-3.3807,-3.3807,-3.2931,-3.328,0.0,0.0,0.0,0.0,0.0,0.0,0.0,0.0,0.0,0.0,-3.3807,-3.3807,-3.3807,-3.3807,-3.3807,-3.3715,-3.2986,-3.2674,-3.2509,-3.1861,-3.1525,-3.1415,-3.1488,-3.1513,-3.1782,-3.322,-3.2687,-3.1654,-3.2419,-3.2253,-3.2003,-3.275,-3.2681,-3.2569,-3.3289,-3.2995,-3.2304,-3.1472,-3.1453,-3.1309,-3.0359,-3.0356,-3.05,-3.0423,-3.0462,-3.0981,0.0,0.0,0.0,0.0,0.0,0.0,0.0,0.0,0.0,0.0,0.0,0.0,0.0,0.0,-3.0654,-3.1525,-3.1583,-3.191,-3.2641,0.0,-3.4545,-3.525,-3.5481,-3.5942,-3.6577,-3.5846,-3.55,-3.5538,-3.6327,-3.6692,-3.6788,-3.8546,-3.9708,-4.04,-4.0477,-4.0496,-4.0593,-4.147,-4.2335,-4.3201,-4.3989,-4.4855,-4.5594,0.0,0.0,0.0,0.0,0.0,0.0,0.0,-3.5224,-3.4711,-3.3917,-3.3807,-3.3807,-3.3807,-3.3807,-3.3807,-3.3807,-3.3807,-3.3807,-3.3807,-3.3807,-3.3807,-3.3807,-3.3807,-3.3807,-3.3807,-3.3005,-3.3151,0.0,0.0,0.0,0.0,0.0,0.0,0.0,0.0,-3.41,-3.3807,-3.3807,-3.3807,-3.3807,-3.3807,-3.3807,-3.3715,-3.2913,-3.2601,-3.2491,-3.1678,-3.1091,-3.0742,-3.125,-3.1397,-3.1507,-3.2168,-3.1586,-3.076,-3.127,-3.0917,-3.0553,-3.15,-3.16,-3.1674,-3.2468,-3.2449,-3.1995,-3.1174,-3.1056,-3.0869,-2.9991,-2.9904,-2.9985,-2.9985,-3.0507,-3.0986,0.0,0.0,0.0,0.0,0.0,0.0,0.0,0.0,0.0,0.0,0.0,0.0,0.0,0.0,0.0,-3.0904,-3.1429,-3.1852,-3.2179,0.0,-3.4379,-3.4718,-3.5231,-3.5654,-3.5981,-3.5654,-3.575,-3.625,-3.7103,-3.8027,-3.9027,-3.9727,-4.0208,-4.0496,-4.0496,-4.0496,-4.065,-4.2047,-4.2797,-4.3258,-4.4586,-4.5306,-4.5594,-3.7855,0.0,-3.7606,0.0,-3.7043,-3.6652,-3.5224,-3.4802,-3.4435,-3.3862,-3.3807,-3.3807,-3.3807,-3.3807,-3.3807,-3.3807,-3.3807,-3.3807,-3.3807,-3.3807,-3.3807,-3.3807,-3.3807,0.0,-3.3807,-3.3238,-3.3238,-3.3807,-3.3463,0.0,0.0,0.0,0.0,0.0,-3.4045,-3.4027,-3.3807,-3.3807,-3.3807,-3.3807,-3.3807,-3.3807,-3.3697,-3.2651,-3.2381,-3.2436,-3.1146,-3.0485,-3.0246,-3.0577,-3.0852,-3.114,-3.1604,-3.1035,-3.0319,-3.099,-3.0613,-3.0193,-3.1136,-3.1077,-3.1013,-3.206,-3.196,-3.153,-3.1192,-3.1185,-3.1083,-3.0508,-3.0413,-3.0413,-3.0413,-3.0835,-3.108,-3.0773,0.0,0.0,0.0,0.0,0.0,0.0,0.0,-3.0788,0.0,0.0,0.0,0.0,0.0,0.0,-3.1481,-3.1852,0.0,0.0,0.0,0.0,0.0,-3.5192,-3.55,-3.55,-3.55,-3.5923,-3.6731,-3.7603,-3.8911,-4.0496,-4.0246,-4.0285,-4.0496,-4.0496,-4.0496,-4.0669,-4.2412,-4.3104,-4.3297,-4.4979,-4.5594,-4.5594,-3.7689,-3.7694,-3.7511,-3.7492,-3.6835,-3.6028,-3.5133,-3.4325,-3.3807,-3.3807,-3.3807,-3.3807,-3.3807,-3.3807,-3.3807,-3.3807,-3.3807,-3.3807,-3.3807,-3.3807,-3.3807,0.0,0.0,-3.3807,-3.3807,-3.3788,-3.3788,-3.3807,0.0,0.0,-3.3825,0.0,-3.4564,-3.3825,-3.4637,-3.4546,-3.3807,-3.3807,-3.3807,-3.3807,-3.3807,-3.3807,-3.3623,-3.2021,-3.1916,-3.2289,-2.9886,-2.9537,-3.0081,-2.9299,-2.9555,-3.0485,-3.2087,-3.1494,-3.0522,-3.2118,-3.2008,-3.1544,-3.2357,-3.1421,-3.0589,-3.2192,-3.1403,-3.0424,-3.1225,-3.1601,-3.1832,-3.2032,-3.2081,-3.2081,-3.2081,-3.1431,-3.1239,-3.2303,0.0,0.0,0.0,0.0,0.0,0.0,-3.1698,-3.1679,-3.1679,0.0,0.0,0.0,0.0,0.0,0.0,0.0,0.0,-3.5404,-3.5462,0.0,-3.5481,-3.5481,-3.55,-3.55,-3.55,-3.5923,-3.6731,-3.7603,-3.8911,-4.0458,-3.9669,-3.9765,-4.0496,-4.0496,-4.0496,-4.0669,-4.2412,-4.3104,-4.3297,-4.4979,-4.5594,-4.5594,-3.6854,-3.7183,-3.7144,-3.6009,-3.5573,-3.5133,-3.4307,-3.3972,-3.3807,-3.3807,-3.3807,-3.3807,-3.3807,-3.3311,-3.3201,0.0,-3.3311,-3.322,0.0,-3.3807,-3.3807,-3.3807,-3.3275,-3.2968,-3.2968,-3.243,-3.243,-3.2968,0.0,0.0,0.0,-3.4064,-3.4045,-3.3807,-3.4082,-3.4045,-3.3807,-3.3807,-3.3807,-3.3807,-3.3807,-3.3807,-3.3678,-3.2614,-3.2045,-3.1678,-3.0907,-3.0448,-3.0246,-3.054,-3.0797,-3.1201,-3.2271,-3.188,-3.1109,-3.1623,-3.1599,-3.158,-3.2381,-3.1825,-3.1274,-3.2339,-3.1806,-3.1091,-3.1342,-3.1612,-3.1821,-3.1888,-3.1898,-3.1667,-3.0939,-3.0743,-3.0677,-3.0605,-3.0486,0.0,0.0,0.0,0.0,0.0,-3.15,-3.1058,0.0,-3.1698,0.0,0.0,0.0,0.0,0.0,0.0,0.0,0.0,-3.5192,0.0,-3.55,-3.55,-3.5788,-3.6327,-3.6327,-3.7065,-3.8507,-3.9342,-3.9996,-4.0496,-4.0227,-4.0265,-4.0496,-4.0496,-4.0854,-4.1508,-4.2643,-4.3431,-4.4047,-4.519,-4.5594,-4.5594,-3.674,-3.6905,-3.6721,-3.5665,-3.5224,-3.4729,-3.3917,-3.3807,-3.3807,-3.3807,-3.3807,-3.3807,-3.3807,-3.3091,0.0,-3.3733,-3.3348,-3.3256,-3.377,-3.3532,-3.3476,-3.3788,-3.3036,-3.2729,-3.3041,0.0,0.0,-3.3041,-3.2748,-3.2858,-3.3348,-3.3348,-3.3513,-3.3807,-3.3807,-3.3807,-3.3807,-3.3807,-3.3807,-3.3807,-3.3807,-3.3807,-3.3715,-3.2913,-3.2485,-3.221,-3.1617,-3.1274,-3.1127,-3.1329,-3.1599,-3.1935,-3.2436,-3.2467,-3.2302,-3.2302,-3.2302,-3.2412,-3.2908,-3.2467,-3.2045,-3.2852,-3.2449,-3.1935,-3.2228,-3.2422,-3.2548,-3.2548,-3.2548,-3.2341,-3.1679,-3.1508,-3.1281,-3.0602,-3.0749,-3.0992,-3.1046,0.0,0.0,0.0,0.0,0.0,0.0,-3.2583,0.0,0.0,0.0,0.0,0.0,0.0,0.0,-3.468,-3.5212,0.0,-3.55,-3.5808,-3.6192,-3.6712,-3.7353,-3.8257,-3.9323,-4.0131,-4.0496,-4.0496,-4.0496,-4.0496,-4.0496,-4.0496,-4.1008,-4.1885,-4.2758,-4.3585,-4.4412,-4.5287,-4.5594,-4.5594,-3.7037,-3.6776,0.0,0.0,-3.5445,0.0,-3.3917,-3.3807,-3.3807,-3.3807,-3.3807,-3.377,-3.3715,-3.3041,-3.2876,-3.3568,0.0,0.0,0.0,-3.306,-3.3023,-3.377,-3.2981,-3.2871,-3.3623,-3.3587,-3.3605,-3.3715,-3.2981,-3.2619,-3.2674,-3.2619,-3.3036,-3.3807,-3.3807,-3.3807,-3.3807,-3.3807,-3.3807,-3.3807,-3.3807,-3.3807,-3.3715,-3.2981,-3.3109,-3.3532,-3.2082,-3.2008,-3.2491,-3.1788,-3.2063,-3.2674,-3.2674,-3.3201,-3.3807,-3.3807,-3.3807,-3.3807,-3.3807,-3.3256,-3.2858,-3.3605,-3.3238,-3.2889,-3.365,-3.3829,-3.3829,-3.3829,-3.3829,-3.3797,-3.3733,-3.3321,-3.2728,-3.1849,-3.2156,-3.1901,-3.0235,0.0,0.0,0.0,0.0,0.0,0.0,-3.4038,-3.3859,0.0,0.0,0.0,0.0,0.0,-3.4718,-3.5481,-3.5558,-3.5577,-3.5577,-3.6385,-3.6827,-3.6904,-3.8584,-3.9381,-3.9419,-4.0169,-4.0496,-4.0496,-4.0496,-4.0496,-4.0496,-4.0496,-4.1046,-4.1962,-4.2777,-4.3624,-4.4489,-4.5306,-4.5594,-4.5594,0.0,0.0,-3.5899,-3.4614,-3.4229,-3.4027,-3.3825,-3.3807,-3.3807,-3.3807,-3.3807,-3.3568,-3.2949,-3.2711,-3.243,-3.2021,-3.254,-3.2876,-3.2876,-3.3293,-3.3605,-3.3788,-3.243,-3.177,-3.1966,-3.1366,-3.1659,-3.2876,-3.2693,-3.2913,-3.3495,-3.2894,-3.3036,-3.3807,-3.3807,-3.3807,-3.3807,-3.3807,-3.3807,-3.3807,-3.3807,-3.3807,-3.377,-3.3587,-3.3256,-3.2913,-3.3146,-3.2963,-3.2656,-3.3091,-3.3366,-3.3532,-3.3532,-3.3642,-3.3807,-3.3807,-3.3807,-3.3807,-3.3807,-3.366,-3.3568,-3.3752,-3.366,-3.3616,-3.4031,-3.4117,-3.4117,-3.4117,-3.4117,-3.3858,-3.3038,-3.2963,-3.2542,-3.1115,-3.1158,-3.1067,-3.0136,-3.0106,0.0,0.0,-3.2016,-3.2248,-3.3655,-3.4038,-3.4109,0.0,0.0,0.0,0.0,-3.5776,-3.5923,-3.5519,-3.6096,-3.6423,-3.6423,-3.7257,-3.8027,-3.87,-3.9727,-4.0227,-4.0227,-4.0419,-4.0496,-4.0496,-4.0496,-4.0496,-4.0496,-4.0496,-4.1412,-4.2816,-4.3028,-4.3989,-4.5325,-4.5518,-4.5594,-4.5594,-3.5787,-3.5973,-3.5881,-3.4582,-3.4045,-3.3807,-3.3807,-3.3807,-3.3807,-3.3807,-3.3476,-3.3091,-3.2656,-3.2284,-3.1733,-3.0907,-3.1586,-3.221,-3.2583,-3.2669,-3.3018,-3.377,-3.2614,-3.2118,-3.2485,-3.2063,-3.21,-3.2601,-3.2601,-3.2821,-3.3238,-3.2803,-3.3225,-3.4325,-3.3972,-3.4009,-3.4307,-3.3972,-3.3807,-3.3807,-3.3807,-3.3807,-3.3807,-3.3807,-3.3532,-3.322,-3.3642,-3.3532,-3.322,-3.3642,-3.3807,-3.3807,-3.3807,-3.3807,-3.3807,-3.3807,-3.3807,-3.3807,-3.3807,-3.3807,-3.3807,-3.3807,-3.3807,-3.3842,-3.3986,-3.4006,-3.4006,-3.4006,-3.4006,-3.3844,-3.3264,-3.3074,-3.2553,-3.1198,-3.1063,-3.0947,-3.0362,-3.0366,0.0,-3.2543,-3.2456,-3.272,-3.3856,-3.4363,-3.4611,-3.4611,0.0,0.0,-3.6058,-3.6846,-3.6904,-3.6077,-3.6865,-3.7296,-3.7296,-3.8161,-3.9008,-3.9842,-4.0285,-4.0496,-4.0496,-4.0496,-4.0496,-4.0496,-4.0496,-4.0727,-4.1085,-4.1085,-4.2104,-4.3643,-4.3643,-4.4451,-4.5594,-4.5594,-4.5594,-4.5594,-3.6494,-3.6424,-3.6174,-3.5169,-3.4435,-3.3935,-3.3825,-3.3697,-3.3623,-3.3623,-3.2926,-3.2362,-3.2252,-3.1623,-3.0889,-3.0099,-3.0742,-3.1549,-3.2375,-3.1898,-3.2247,-3.3733,-3.3036,-3.2913,-3.3605,-3.3623,-3.3348,-3.2784,-3.2656,-3.2656,-3.2784,-3.2656,-3.339,-3.4784,-3.41,-3.4192,-3.4766,-3.41,-3.3807,-3.3807,-3.3807,-3.3807,-3.3807,-3.3807,-3.3807,-3.3807,-3.3807,-3.3807,-3.3807,-3.3807,-3.3807,-3.3807,-3.3807,-3.3807,-3.3807,-3.3807,-3.3807,-3.3807,-3.3807,-3.3807,-3.3807,-3.3807,-3.3807,-3.3807,-3.3807,-3.3807,-3.3807,-3.3807,-3.3807,-3.3807,-3.3807,-3.3371,-3.2692,-3.174,-3.1362,-3.1111,-3.0825,0.0,-3.159,-3.2858,-3.3203,-3.3567,-3.4149,-3.4706,-3.51,-3.5268,-3.6117,-3.6702,0.0,-3.7719,-3.7853,-3.7123,-3.7815,-3.8257,-3.8373,-3.9111,-3.9823,-4.0496,-4.0496,-4.0496,-4.0496,-4.0496,-4.0573,-4.0708,-4.0708,-4.1181,-4.2,-4.2,-4.2912,-4.4297,-4.4297,-4.4836,-4.5594,-4.5594,-4.5594,-4.5594,-3.6721,-3.6997,-3.6817,-3.5279,-3.4912,-3.4582,-3.3899,-3.322,-3.2784,-3.2784,-3.2082,-3.1329,-3.065,-3.0467,-3.0063,-2.9262,-2.9922,-3.0723,-3.1531,-3.2118,-3.2821,-3.3752,-3.3036,-3.2656,-3.2784,-3.2784,-3.3073,-3.3605,-3.2931,-3.2949,-3.3605,-3.2913,-3.3096,-3.399,-3.3862,-3.3862,-3.3972,-3.3844,-3.3807,-3.3807,-3.3807,-3.3807,-3.3807,-3.3807,-3.3807,-3.3807,-3.3807,-3.3807,-3.3807,-3.3807,-3.3807,-3.3807,-3.3807,-3.3807,-3.3807,-3.3807,-3.3807,-3.3807,-3.3807,-3.3807,-3.3807,-3.3807,-3.3807,-3.3807,-3.3807,-3.3807,-3.3807,-3.3807,-3.3807,-3.3807,-3.3807,-3.3371,-3.2867,-3.2482,-3.1444,-3.0915,-3.1536,0.0,-3.102,-3.279,-3.3037,-3.3351,-3.4125,-3.4551,-3.5135,-3.6049,-3.6273,-3.6774,-3.775,-3.8623,-3.9034,-3.8892,-3.9034,-3.9419,-4.0112,-4.0246,-4.0381,-4.0496,-4.0496,-4.0496,-4.0496,-4.0496,-4.0893,-4.1604,-4.1604,-4.2085,-4.2893,-4.2893,-4.3451,-4.4297,-4.4297,-4.4836,-4.5594,-4.5594,-4.5594,-4.5594,-3.6816,-3.6786,-3.645,-3.5224,-3.4637,-3.4215,-3.3862,-3.3296,-3.299,-3.323,-3.1986,-3.1021,-3.0846,-3.0081,-2.939,-2.9023,-2.9739,-3.054,-3.136,-3.2155,-3.2949,-3.3752,-3.344,-3.3256,-3.3256,-3.3256,-3.344,-3.3807,-3.344,-3.344,-3.3788,-3.3421,-3.3665,-3.4417,-3.399,-3.4045,-3.4417,-3.399,-3.3807,-3.3807,-3.3807,-3.3807,-3.3807,-3.3807,-3.3807,-3.3807,-3.3807,-3.3807,-3.3807,-3.3807,-3.3807,-3.3807,-3.3807,-3.3807,-3.3807,-3.3807,-3.3807,-3.3807,-3.3807,-3.3807,-3.3807,-3.3807,-3.3807,-3.3807,-3.3807,-3.3807,-3.3807,-3.3807,-3.3807,-3.3807,-3.3807,-3.3239,-3.2736,-3.2608,-3.1834,0.0,0.0,-3.1935,-3.2138,-3.3296,-3.342,-3.3746,-3.4546,-3.4931,-3.5587,-3.6642,-3.73,-3.7948,-3.8654,-3.9496,-3.9958,-3.9958,-3.9958,-4.0131,-4.0496,-4.0496,-4.0496,-4.0496,-4.0496,-4.0496,-4.0516,-4.0989,-4.1162,-4.1143,-4.2085,-4.2739,-4.3124,-4.3566,-4.4239,-4.4998,-4.4998,-4.5248,-4.5594,-4.5594,-4.5594,-4.5594,-3.693,-3.6608,-3.6153,-3.5279,-3.4471,-3.3886,-3.3684,-3.3081,-3.2774,-3.309,-3.1438,-3.0333,-3.0558,-2.9558,-2.89,-2.8998,-2.985,-3.0704,-3.149,-3.2379,-3.3146,-3.377,-3.3807,-3.3807,-3.3807,-3.3807,-3.3807,-3.3807,-3.3807,-3.3807,-3.3807,-3.3807,-3.4137,-3.4692,-3.4082,-3.4137,-3.4674,-3.4064,-3.3807,-3.3807,-3.3807,-3.3807,-3.3807,-3.3807,-3.3807,-3.3807,-3.3807,-3.3807,-3.3807,-3.3807,-3.3807,-3.3807,-3.3807,-3.3807,-3.3807,-3.3807,-3.3807,-3.3844,-3.4027,-3.4082,-3.4027,-3.3844,-3.3935,-3.4027,-3.3844,-3.3807,-3.3807,-3.3807,-3.3807,-3.3807,-3.3807,-3.3146,-3.2656,-3.2839,0.0,0.0,0.0,-3.2896,-3.3124,-3.3723,-3.3972,-3.4307,-3.4949,-3.5469,-3.6227,-3.7324,-3.8278,-3.9047,-3.9538,-4.0169,-4.0496,-4.0496,-4.0496,-4.0496,-4.0496,-4.0496,-4.0496,-4.0496,-4.0496,-4.0612,-4.0816,-4.1489,-4.1643,-4.1458,-4.2797,-4.3489,-4.372,-4.4355,-4.4998,-4.5594,-4.5594,-4.5594,-4.5594,-4.5594,-4.5594,-4.5594,-3.7177,-3.695,-3.6512,-3.5698,-3.4886,-3.4111,-3.3352,-3.2,-3.1078,-3.1106,-2.9638,-2.847,-2.8184,-2.8335,-2.8591,-2.8976,-3.0126,-3.1165,-3.1913,-3.3049,-3.3733,-3.3807,-3.3807,-3.3807,-3.3807,-3.3807,-3.3807,-3.3807,-3.3807,-3.3807,-3.3807,-3.3807,-3.3825,-3.3899,-3.3825,-3.3825,-3.388,-3.3825,-3.3807,-3.3807,-3.3807,-3.3807,-3.3807,-3.3807,-3.3807,-3.3807,-3.3807,-3.3807,-3.3807,-3.3807,-3.3807,-3.3807,-3.3807,-3.3807,-3.3807,-3.3807,-3.3807,-3.3972,-3.4711,-3.4912,-3.4729,-3.399,-3.4362,-3.4729,-3.3972,-3.3807,-3.3807,-3.3807,-3.3807,-3.3807,-3.3807,-3.3146,-3.2839,-3.3587,0.0,0.0,-3.3495,-3.3086,-3.2921,-3.3715,-3.4454,-3.4931,-3.5004,-3.5983,-3.7081,-3.8222,-3.8669,-3.9341,-4.0354,-4.0477,-4.0496,-4.0496,-4.0496,-4.0496,-4.0496,-4.0496,-4.0496,-4.0496,-4.0496,-4.0912,-4.172,-4.1769,-4.2604,-4.4028,-4.4162,-4.4662,-4.5421,-4.5479,-4.5537,-4.5594,-4.5594,-4.5594,-4.5594,-4.5594,-4.5594,-4.5594,-3.6704,-3.6091,-3.5453,-3.5167,-3.4062,-3.3118,-3.2814,-3.2004,-3.1409,-3.1227,-2.9968,-2.8969,-2.8687,-2.8304,-2.834,-2.8945,-3.0173,-3.1195,-3.1942,-3.3127,-3.3807,-3.3807,-3.3807,-3.3807,-3.3807,-3.3807,-3.3807,-3.3807,-3.3807,-3.3807,-3.3807,-3.3807,-3.3807,-3.3807,-3.3807,-3.3807,-3.3807,-3.3807,-3.3807,-3.3807,-3.3807,-3.3807,-3.3807,-3.3807,-3.3807,-3.3807,-3.3807,-3.3807,-3.3807,-3.3807,-3.3807,-3.3807,-3.3807,-3.4137,-3.4747,-3.5789,-3.5367,-3.4729,-3.5587,-3.5055,-3.4192,-3.388,-3.4027,-3.4192,-3.3862,-3.3807,-3.3807,-3.3807,-3.3807,-3.3807,-3.3807,-3.355,-3.344,-3.3752,0.0,-3.3848,-3.4454,-3.4747,-3.5018,-3.5312,-3.5624,-3.6009,-3.6505,-3.6942,-3.7734,-3.9048,-3.9269,-3.968,-4.0462,-4.0496,-4.0496,-4.0496,-4.0496,-4.0496,-4.0496,-4.0496,-4.0496,-4.0516,-4.1046,-4.1489,-4.1846,-4.2874,-4.3431,-4.3605,-4.4643,-4.4998,-4.4836,-4.5383,-4.5594,-4.5594,-4.5594,-4.5594,-4.5594,-4.5594,-4.5594,-4.5594,-3.6104,-3.5289,-3.4551,-3.4322,-3.316,-3.2282,-3.2282,-3.1795,-3.1394,-3.1208,-3.0209,-2.9398,-2.9103,-2.8671,-2.8654,-2.9299,-3.0269,-3.1153,-3.1892,-3.323,-3.3922,-3.3807,-3.3807,-3.3807,-3.3807,-3.4045,-3.4064,-3.3807,-3.4321,-3.4321,-3.3807,-3.4064,-3.4045,-3.3807,-3.3807,-3.3807,-3.3807,-3.3807,-3.3807,-3.3807,-3.3807,-3.3807,-3.3807,-3.3807,-3.3807,-3.3807,-3.3807,-3.3807,-3.3807,-3.3807,-3.3807,-3.3807,-3.3807,-3.4192,-3.4839,-3.6005,-3.5514,-3.4802,-3.5661,-3.5055,-3.4119,-3.3862,-3.399,-3.4119,-3.3862,-3.3807,-3.3807,-3.3807,-3.3807,-3.388,-3.4137,-3.4192,-3.4266,-3.4541,-3.5041,-3.5408,-3.5408,-3.5917,-3.6303,-3.6303,-3.6505,-3.693,-3.7556,-3.7947,-3.8553,-3.9538,-3.9709,-3.9934,-4.0356,-4.0457,-4.0496,-4.0496,-4.0496,-4.0496,-4.0496,-4.0496,-4.065,-4.0912,-4.1508,-4.2077,-4.2624,-4.3778,-4.4143,-4.3951,-4.5094,-4.5267,-4.4739,-4.5344,-4.5594,-4.5594,-4.5594,-4.5594,-4.5594,-4.5594,-4.5594,-4.5594,-3.5448,-3.4705,-3.3942,-3.3217,-3.2363,-3.1807,-3.1807,-3.1167,-3.0699,-3.0699,-2.9989,-2.9369,-2.9047,-2.9299,-2.9661,-3.0059,-3.0468,-3.1028,-3.1772,-3.3444,-3.4232,-3.383,-3.3807,-3.3807,-3.3807,-3.4582,-3.4601,-3.3807,-3.5459,-3.544,-3.3825,-3.4619,-3.4564,-3.3807,-3.3807,-3.3807,-3.3807,-3.3807,-3.3807,-3.3807,-3.3807,-3.3807,-3.3807,-3.3807,-3.3807,-3.3807,-3.3807,-3.3807,-3.3807,-3.3807,-3.3807,-3.3807,-3.3807,-3.3807,-3.3807,-3.3825,-3.3807,-3.399,-3.4784,-3.5004,-3.4821,-3.4027,-3.4399,-3.4784,-3.399,-3.3807,-3.3807,-3.3807,-3.3807,-3.4064,-3.4857,-3.5023,-3.5298,-3.6156,-3.6303,-3.6303,-3.6303,-3.6303,-3.6321,-3.6321,-3.7015,-3.7602,-3.788,-3.8932,-3.9599,-3.9599,-3.9912,-4.0101,-4.011,-4.0356,-4.0496,-4.0489,-4.0496,-4.0516,-4.0516,-4.0516,-4.0931,-4.1788,-4.1808,-4.2701,-4.4297,-4.4316,-4.4778,-4.5594,-4.5594,-4.5594,-4.5594,-4.5594,-4.5594,-4.5594,-4.5594,-4.5594,-4.5594,-4.5594,-4.5594,-4.5594,-3.4785,-3.3727,-3.281,-3.2571,-3.1903,-3.1389,-3.1389,-3.1185,-3.0861,-3.035,-3.0076,-2.9697,-2.9079,-2.9084,-2.9408,-3.004,-3.093,-3.2142,-3.374,-3.4665,-3.511,-3.4999,-3.4771,-3.4637,-3.4637,-3.4307,-3.4045,-3.3807,-3.4857,-3.5133,-3.4656,-3.4894,-3.4876,-3.4619,-3.4045,-3.3807,-3.3807,-3.3807,-3.3807,-3.3807,-3.3807,-3.3807,-3.3807,-3.3807,-3.3807,-3.3807,-3.3807,-3.3807,-3.3807,-3.3807,-3.3807,-3.3899,-3.4454,-3.4252,-3.4027,-3.5202,-3.5128,-3.4692,-3.4931,-3.5004,-3.5096,-3.5459,-3.5261,-3.4949,-3.4692,-3.4211,-3.3972,-3.4527,-3.4637,-3.4894,-3.5771,-3.5917,-3.6009,-3.6266,-3.6776,-3.7144,-3.7144,-3.7624,-3.7973,-3.7973,-3.8193,-3.8367,-3.8449,-3.8946,-3.9339,-3.9587,-3.9912,-4.024,-4.0564,-4.0347,-4.012,-3.9874,-4.0868,-4.13,-4.1064,-4.13,-4.1546,-4.1808,-4.2989,-4.3816,-4.4316,-4.494,-4.5344,-4.5594,-4.5594,-4.5594,-4.5594,-4.5594,-4.5594,-4.5594,-4.5594,-4.5594,-4.5594,-4.5594,-4.5594,-4.5594,-3.4184,-3.3339,-3.2544,-3.1972,-3.1515,-3.119,-3.119,-3.119,-3.1038,-3.0598,-3.0548,-3.0362,-2.9924,-2.9873,-3.004,-3.0497,-3.1428,-3.2822,-3.4806,-3.5243,-3.5651,-3.6146,-3.5643,-3.5418,-3.5518,-3.5349,-3.511,-3.4798,-3.5587,-3.5844,-3.55,-3.5169,-3.5004,-3.4954,-3.4174,-3.3807,-3.3807,-3.3807,-3.3807,-3.3807,-3.3807,-3.3807,-3.3807,-3.3807,-3.3807,-3.3807,-3.3807,-3.3807,-3.3807,-3.3807,-3.3807,-3.388,-3.4362,-3.4192,-3.399,-3.5018,-3.5151,-3.5004,-3.5004,-3.5261,-3.5734,-3.656,-3.5642,-3.4619,-3.4931,-3.4619,-3.4509,-3.5334,-3.55,-3.5771,-3.6615,-3.7019,-3.7257,-3.7257,-3.7918,-3.8337,-3.8025,-3.8395,-3.8707,-3.8707,-3.8707,-3.8732,-3.8859,-3.8994,-3.9238,-3.9576,-3.9912,-4.0364,-4.0961,-4.0844,-4.0836,-4.0993,-4.1853,-4.2211,-4.2001,-4.2537,-4.2797,-4.2797,-4.3816,-4.447,-4.4836,-4.5364,-4.5594,-4.5594,-4.5594,-4.5594,-4.5594,-4.5594,-4.5594,-4.5594,-4.5594,-4.5594,-4.5594,-4.5594,-4.5594,-4.5594,-3.3761,-3.3457,-3.2983,-3.163,-3.1393,-3.136,-3.1309,-3.1292,-3.1258,-3.1207,-3.119,-3.119,-3.119,-3.119,-3.119,-3.119,-3.1938,-3.323,-3.5192,-3.5376,-3.5911,-3.7079,-3.6409,-3.6164,-3.6432,-3.7011,-3.6989,-3.6303,-3.7107,-3.7125,-3.6376,-3.5591,-3.5188,-3.5078,-3.4284,-3.3862,-3.3807,-3.3807,-3.3807,-3.3807,-3.3807,-3.3807,-3.3807,-3.3807,-3.3807,-3.3807,-3.3807,-3.3807,-3.3807,-3.388,-3.3954,-3.4027,-3.4027,-3.4027,-3.4027,-3.4027,-3.4527,-3.5133,-3.5133,-3.5697,-3.6468,-3.7217,-3.5679,-3.4229,-3.5041,-3.5169,-3.5353,-3.6229,-3.6413,-3.6652,-3.7456,-3.8248,-3.8817,-3.8817,-3.9423,-3.9643,-3.8909,-3.8762,-3.8707,-3.8707,-3.8707,-3.8788,-3.9036,-3.9141,-3.9412,-3.9896,-4.0146,-4.0633,-4.1443,-4.1693,-4.2192,-4.2988,-4.3101,-4.3167,-4.3175,-4.4,-4.4374,-4.4297,-4.4374,-4.4836,-4.5594,-4.5594,-4.5594,-4.5594,-4.5594,-4.5594,-4.5594,-4.5594,-4.5594,-4.5594,-4.5594,-4.5594,-4.5594,-4.5594,-4.5594,-4.5594,-3.432,-3.3795,-3.3305,-3.2983,-3.2933,-3.273,-3.2158,-3.2056,-3.1853,-3.1275,-3.119,-3.119,-3.119,-3.119,-3.119,-3.119,-3.2391,-3.3838,-3.5443,-3.5924,-3.6284,-3.6563,-3.6804,-3.7112,-3.754,-3.649,-3.6048,-3.6303,-3.7107,-3.7419,-3.7235,-3.7052,-3.6615,-3.5973,-3.5114,-3.438,-3.3807,-3.3807,-3.3807,-3.3807,-3.3807,-3.3807,-3.3807,-3.3807,-3.3807,-3.3807,-3.3807,-3.3807,-3.3899,-3.4527,-3.5188,-3.5752,-3.5752,-3.5752,-3.5752,-3.5752,-3.5881,-3.6028,-3.6028,-3.6156,-3.634,-3.6505,-3.6156,-3.5973,-3.6776,-3.6468,-3.6248,-3.707,-3.7235,-3.7492,-3.8285,-3.9093,-3.9643,-3.9643,-3.979,-3.9827,-3.9662,-3.9093,-3.8707,-3.8707,-3.8707,-3.8719,-3.8773,-3.955,-4.0726,-4.2373,-4.1968,-4.2028,-4.2815,-4.2332,-4.2132,-4.2306,-4.3188,-4.3664,-4.3732,-4.4775,-4.4979,-4.4316,-4.4998,-4.5421,-4.5594,-4.5594,-4.5594,-4.5594,-4.5594,-4.5594,-4.5594,-4.5594,-4.5594,-4.5594,-4.5594,-4.5594,-4.5594,-4.5594,-4.5594,-4.5594,-3.4556,-3.4184,-3.3812,-3.3457,-3.3406,-3.3152,-3.2412,-3.2293,-3.2039,-3.1292,-3.119,-3.119,-3.119,-3.119,-3.1478,-3.2188,-3.3271,-3.4404,-3.5532,-3.5854,-3.6028,-3.6028,-3.6291,-3.6786,-3.7542,-3.6738,-3.6668,-3.7441,-3.7492,-3.7694,-3.8046,-3.729,-3.6703,-3.6266,-3.5389,-3.4546,-3.3807,-3.3807,-3.3807,-3.3807,-3.3807,-3.3807,-3.3807,-3.3807,-3.3807,-3.3807,-3.3807,-3.3807,-3.399,-3.522,-3.5646,-3.5752,-3.6174,-3.6303,-3.6303,-3.6303,-3.656,-3.6795,-3.6395,-3.6593,-3.6868,-3.6868,-3.7147,-3.7441,-3.7492,-3.718,-3.7107,-3.79,-3.8392,-3.8778,-3.9184,-4.023,-4.091,-4.0524,-4.0799,-4.091,-4.0524,-4.012,-3.9829,-3.9829,-3.9829,-3.9829,-3.9829,-4.0493,-4.1353,-4.2406,-4.2221,-4.2423,-4.3259,-4.2888,-4.2937,-4.3513,-4.4105,-4.4512,-4.471,-4.5311,-4.5364,-4.494,-4.5383,-4.5594,-4.5594,-4.5594,-4.5594,-4.5594,-4.5594,-4.5594,-4.5594,-4.5594,-4.5594,-4.5594,-4.5594,-4.5594,-4.5594,-4.5594,-4.5594,-4.5594,-3.481,-3.4692,-3.4489,-3.3897,-3.3795,-3.3525,-3.2801,-3.2682,-3.2412,-3.1664,-3.1579,-3.1579,-3.1579,-3.1579,-3.2121,-3.3474,-3.415,-3.481,-3.5549,-3.56,-3.56,-3.56,-3.56,-3.6054,-3.7039,-3.7058,-3.7596,-3.8707,-3.8028,-3.8046,-3.867,-3.7331,-3.6633,-3.6468,-3.561,-3.4766,-3.4009,-3.3862,-3.3807,-3.3807,-3.3807,-3.388,-3.4009,-3.4009,-3.41,-3.4229,-3.4229,-3.4321,-3.4633,-3.6028,-3.6119,-3.5756,-3.6486,-3.6707,-3.6707,-3.6707,-3.7165,-3.7566,-3.689,-3.7309,-3.7915,-3.7915,-3.8524,-3.8946,-3.8282,-3.8117,-3.8285,-3.8982,-3.9643,-4.0102,-4.0102,-4.1313,-4.2084,-4.1407,-4.1864,-4.2066,-4.1389,-4.1187,-4.1095,-4.1095,-4.1095,-4.115,-4.1279,-4.1561,-4.1805,-4.1994,-4.2224,-4.2705,-4.3479,-4.3465,-4.3951,-4.5066,-4.5052,-4.5211,-4.5605,-4.5594,-4.5594,-4.5594,-4.5594,-4.5594,-4.5594,-4.5594,-4.5594,-4.5594,-4.555,-4.555,-4.5605,-4.555,-4.5559,-4.5594,-4.5594,-4.5594,-4.5594,-4.5594,-4.5594,-4.5594,-3.5464,-3.5447,-3.5414,-3.5312,-3.5295,-3.5042,-3.432,-3.4206,-3.3931,-3.3203,-3.3102,-3.3102,-3.3102,-3.3102,-3.344,-3.4269,-3.4438,-3.481,-3.5549,-3.56,-3.56,-3.56,-3.56,-3.5876,-3.6498,-3.6519,-3.7228,-3.8707,-3.8597,-3.8597,-3.8707,-3.8487,-3.7991,-3.7309,-3.6486,-3.5661,-3.4784,-3.41,-3.3807,-3.3807,-3.3807,-3.4229,-3.4839,-3.4839,-3.5298,-3.5954,-3.5954,-3.6395,-3.7033,-3.7254,-3.7716,-3.823,-3.834,-3.8377,-3.8377,-3.8377,-3.845,-3.8505,-3.8395,-3.8964,-3.9585,-3.9585,-4.0175,-4.0747,-4.0636,-4.06,-4.0636,-4.0747,-4.0857,-4.093,-4.093,-4.168,-4.2268,-4.2158,-4.2231,-4.2268,-4.2158,-4.1535,-4.1095,-4.1095,-4.1095,-4.137,-4.2066,-4.2189,-4.2606,-4.3613,-4.3711,-4.3938,-4.4397,-4.4093,-4.4269,-4.5074,-4.4825,-4.4966,-4.5586,-4.5594,-4.5594,-4.5594,-4.5594,-4.5594,-4.5594,-4.5594,-4.5594,-4.5577,-4.5283,-4.5332,-4.5577,-4.5292,-4.5332,-4.5594,-4.5594,-4.5594,-4.5594,-4.5594,-4.5594,-4.5594,-3.56,-3.56,-3.56,-3.56,-3.56,-3.5346,-3.4607,-3.4489,-3.4235,-3.3508,-3.3406,-3.3406,-3.3406,-3.3778,-3.415,-3.4455,-3.4878,-3.5245,-3.5583,-3.56,-3.56,-3.56,-3.56,-3.5854,-3.6374,-3.6395,-3.7001,-3.8249,-3.8249,-3.8417,-3.8707,-3.8707,-3.8267,-3.7474,-3.7125,-3.6505,-3.5697,-3.5349,-3.5202,-3.5202,-3.5202,-3.5404,-3.5734,-3.5734,-3.5973,-3.6358,-3.6813,-3.6905,-3.6978,-3.7863,-3.8102,-3.8102,-3.856,-3.8707,-3.8799,-3.9239,-3.9056,-3.8909,-3.9808,-3.9974,-4.001,-4.0469,-4.1185,-4.1772,-4.1772,-4.2121,-4.2194,-4.1279,-4.1462,-4.1772,-4.1772,-4.2433,-4.2965,-4.2965,-4.2965,-4.2965,-4.2965,-4.2653,-4.2433,-4.2433,-4.2433,-4.258,-4.2928,-4.2965,-4.3179,-4.3673,-4.3726,-4.3788,-4.3977,-4.3804,-4.3958,-4.4482,-4.4346,-4.4521,-4.5033,-4.5033,-4.5033,-4.5033,-4.5033,-4.514,-4.5322,-4.5322,-4.5222,-4.5033,-4.5085,-4.5191,-4.5322,-4.5352,-4.5476,-4.5594,-4.5594,-4.5594,-4.5594,-4.5594,-4.5594,-4.5577]},{"header":{"parameterUnit":"m.s-1","parameterCategory":1,"la1":30.6,"la2":28.766,"lo1":-90.7593,"lo2":-88.6598,"dy":0.0162,"dx":0.0183,"nx":116,"ny":114,"refTime":"2023-02-23T18:00:00:Z","depth":0,"parameterNumber":3,"parameterNumberName":"V-component_of_WINDS"},"data":[0.0,0.0,0.0,0.0,0.0,0.0,0.0,0.0,0.0,0.0,0.0,0.0,0.0,0.0,0.0,0.0,0.0,0.0,0.0,0.0,0.0,0.0,0.0,0.0,0.0,0.0,0.0,0.0,0.0,0.0,0.0,0.0,0.0,0.0,0.0,0.0,0.0,0.0,0.0,0.0,0.0,0.0,0.0,0.0,0.0,0.0,0.0,0.0,0.0,0.0,0.0,0.0,0.0,0.0,0.0,0.0,0.0,0.0,0.0,0.0,0.0,0.0,0.0,0.0,0.0,0.0,0.0,0.0,0.0,0.0,0.0,0.0,0.0,0.0,0.0,0.0,0.0,0.0,0.0,0.0,0.0,0.0,0.0,0.0,0.0,0.0,0.0,0.0,0.0,0.0,0.0,0.0,0.0,0.0,0.0,0.0,0.0,0.0,0.0,0.0,0.0,0.0,0.0,0.0,0.0,0.0,0.0,0.0,0.0,0.0,0.0,0.0,0.0,0.0,0.0,0.0,0.0,0.0,0.0,0.0,0.0,0.0,0.0,0.0,0.0,0.0,0.0,0.0,0.0,0.0,0.0,0.0,0.0,0.0,0.0,0.0,0.0,0.0,0.0,0.0,0.0,0.0,0.0,0.0,0.0,0.0,0.0,0.0,0.0,0.0,0.0,0.0,0.0,0.0,0.0,0.0,0.0,0.0,0.0,0.0,0.0,0.0,0.0,0.0,0.0,0.0,0.0,0.0,0.0,0.0,0.0,0.0,0.0,0.0,0.0,0.0,0.0,0.0,0.0,0.0,0.0,0.0,0.0,0.0,0.0,0.0,0.0,0.0,0.0,0.0,0.0,0.0,0.0,0.0,0.0,0.0,0.0,0.0,0.0,0.0,0.0,0.0,0.0,0.0,0.0,0.0,0.0,0.0,0.0,0.0,0.0,0.0,0.0,0.0,0.0,0.0,0.0,0.0,0.0,0.0,0.0,0.0,0.0,0.0,0.0,0.0,0.0,0.0,0.0,0.0,0.0,0.0,0.0,0.0,0.0,0.0,0.0,0.0,0.0,0.0,0.0,0.0,0.0,0.0,0.0,0.0,0.0,0.0,0.0,0.0,0.0,0.0,0.0,0.0,0.0,0.0,0.0,0.0,0.0,0.0,0.0,0.0,0.0,0.0,0.0,0.0,0.0,0.0,0.0,0.0,0.0,0.0,0.0,0.0,0.0,0.0,0.0,0.0,0.0,0.0,0.0,0.0,0.0,0.0,0.0,0.0,0.0,0.0,0.0,0.0,0.0,0.0,0.0,0.0,0.0,0.0,0.0,0.0,0.0,0.0,0.0,0.0,0.0,0.0,0.0,0.0,0.0,0.0,0.0,0.0,0.0,0.0,0.0,0.0,0.0,0.0,0.0,0.0,0.0,0.0,0.0,0.0,0.0,0.0,0.0,0.0,0.0,0.0,0.0,0.0,0.0,0.0,0.0,0.0,0.0,0.0,0.0,0.0,0.0,0.0,0.0,0.0,0.0,0.0,0.0,0.0,0.0,0.0,0.0,0.0,0.0,0.0,0.0,0.0,0.0,0.0,0.0,0.0,0.0,0.0,0.0,0.0,0.0,0.0,0.0,0.0,0.0,0.0,0.0,0.0,0.0,0.0,0.0,0.0,0.0,0.0,0.0,0.0,0.0,0.0,0.0,0.0,0.0,0.0,0.0,0.0,0.0,0.0,0.0,0.0,0.0,0.0,0.0,0.0,0.0,0.0,0.0,0.0,0.0,0.0,0.0,0.0,0.0,0.0,0.0,0.0,0.0,0.0,0.0,0.0,0.0,0.0,0.0,0.0,0.0,0.0,0.0,0.0,0.0,0.0,0.0,0.0,0.0,0.0,0.0,0.0,0.0,0.0,0.0,0.0,0.0,0.0,0.0,0.0,0.0,0.0,0.0,0.0,0.0,0.0,0.0,0.0,0.0,0.0,0.0,0.0,0.0,0.0,0.0,0.0,0.0,0.0,0.0,0.0,0.0,0.0,0.0,0.0,0.0,0.0,0.0,0.0,0.0,0.0,0.0,0.0,0.0,0.0,0.0,0.0,0.0,0.0,0.0,0.0,0.0,0.0,0.0,0.0,0.0,0.0,0.0,0.0,0.0,0.0,0.0,0.0,0.0,0.0,0.0,0.0,0.0,0.0,0.0,0.0,0.0,0.0,0.0,0.0,0.0,0.0,0.0,0.0,0.0,0.0,0.0,0.0,0.0,0.0,0.0,0.0,0.0,0.0,0.0,0.0,0.0,0.0,0.0,0.0,0.0,0.0,0.0,0.0,0.0,0.0,0.0,0.0,0.0,0.0,0.0,0.0,0.0,0.0,0.0,0.0,0.0,0.0,0.0,0.0,0.0,0.0,0.0,0.0,0.0,0.0,0.0,0.0,0.0,0.0,0.0,0.0,0.0,0.0,0.0,0.0,0.0,0.0,0.0,0.0,0.0,0.0,0.0,0.0,0.0,0.0,0.0,0.0,0.0,0.0,0.0,0.0,0.0,0.0,0.0,0.0,0.0,0.0,0.0,0.0,0.0,0.0,0.0,0.0,0.0,0.0,0.0,0.0,0.0,0.0,0.0,0.0,0.0,0.0,0.0,0.0,0.0,0.0,0.0,0.0,0.0,0.0,0.0,0.0,0.0,0.0,0.0,0.0,0.0,0.0,0.0,0.0,0.0,0.0,0.0,0.0,0.0,0.0,0.0,0.0,0.0,0.0,0.0,0.0,0.0,0.0,0.0,0.0,0.0,0.0,0.0,0.0,0.0,0.0,0.0,0.0,0.0,0.0,0.0,0.0,0.0,0.0,0.0,0.0,0.0,0.0,0.0,0.0,0.0,0.0,0.0,0.0,0.0,0.0,0.0,0.0,0.0,0.0,0.0,0.0,0.0,0.0,0.0,0.0,0.0,0.0,0.0,0.0,0.0,0.0,0.0,0.0,0.0,0.0,0.0,0.0,0.0,0.0,0.0,0.0,0.0,0.0,0.0,0.0,0.0,0.0,0.0,0.0,0.0,0.0,0.0,0.0,0.0,0.0,0.0,0.0,0.0,0.0,0.0,0.0,0.0,0.0,0.0,0.0,0.0,0.0,0.0,0.0,0.0,0.0,0.0,0.0,0.0,0.0,0.0,0.0,0.0,0.0,0.0,0.0,0.0,0.0,0.0,0.0,0.0,0.0,0.0,0.0,0.0,0.0,0.0,0.0,0.0,0.0,0.0,0.0,0.0,0.0,0.0,0.0,0.0,0.0,0.0,0.0,0.0,0.0,0.0,0.0,0.0,0.0,0.0,0.0,0.0,0.0,0.0,0.0,0.0,0.0,0.0,0.0,0.0,0.0,0.0,0.0,0.0,0.0,0.0,0.0,0.0,0.0,0.0,0.0,0.0,0.0,0.0,0.0,0.0,0.0,0.0,0.0,0.0,0.0,0.0,0.0,0.0,0.0,0.0,0.0,0.0,0.0,0.0,0.0,0.0,0.0,0.0,0.0,0.0,0.0,0.0,0.0,0.0,0.0,0.0,0.0,0.0,0.0,0.0,0.0,0.0,0.0,0.0,0.0,0.0,0.0,0.0,0.0,0.0,0.0,0.0,0.0,0.0,0.0,0.0,0.0,0.0,0.0,0.0,0.0,0.0,0.0,0.0,0.0,0.0,0.0,0.0,0.0,0.0,0.0,0.0,0.0,0.0,0.0,0.0,0.0,0.0,0.0,0.0,0.0,0.0,0.0,0.0,0.0,0.0,0.0,0.0,0.0,0.0,0.0,0.0,0.0,0.0,0.0,0.0,0.0,0.0,0.0,0.0,0.0,0.0,0.0,0.0,0.0,0.0,0.0,0.0,0.0,0.0,0.0,0.0,0.0,0.0,0.0,0.0,0.0,0.0,0.0,0.0,0.0,0.0,0.0,0.0,0.0,0.0,0.0,0.0,0.0,0.0,0.0,0.0,0.0,0.0,0.0,0.0,0.0,0.0,0.0,0.0,0.0,0.0,0.0,0.0,0.0,0.0,0.0,0.0,0.0,0.0,0.0,0.0,0.0,0.0,0.0,0.0,0.0,0.0,0.0,0.0,0.0,0.0,0.0,0.0,0.0,0.0,0.0,0.0,0.0,0.0,0.0,0.0,0.0,0.0,0.0,0.0,0.0,0.0,0.0,0.0,0.0,0.0,0.0,0.0,0.0,0.0,0.0,0.0,0.0,0.0,0.0,0.0,0.0,0.0,0.0,0.0,0.0,0.0,0.0,0.0,0.0,0.0,0.0,0.0,0.0,0.0,0.0,0.0,0.0,0.0,0.0,0.0,0.0,0.0,0.0,0.0,0.0,0.0,0.0,0.0,0.0,0.0,0.0,0.0,0.0,0.0,0.0,0.0,0.0,0.0,0.0,0.0,0.0,0.0,0.0,0.0,0.0,0.0,0.0,0.0,0.0,0.0,0.0,0.0,0.0,0.0,0.0,0.0,0.0,0.0,0.0,0.0,0.0,0.0,0.0,0.0,0.0,0.0,0.0,0.0,0.0,0.0,0.0,0.0,0.0,0.0,0.0,0.0,0.0,0.0,0.0,0.0,0.0,0.0,0.0,0.0,0.0,0.0,0.0,0.0,0.0,0.0,0.0,0.0,0.0,0.0,0.0,0.0,0.0,0.0,0.0,0.0,0.0,0.0,0.0,0.0,0.0,0.0,0.0,0.0,0.0,0.0,0.0,0.0,0.0,0.0,0.0,0.0,0.0,0.0,0.0,0.0,0.0,0.0,0.0,0.0,0.0,0.0,0.0,0.0,0.0,0.0,0.0,0.0,0.0,0.0,0.0,0.0,0.0,0.0,0.0,0.0,0.0,0.0,0.0,0.0,0.0,0.0,0.0,0.0,0.0,0.0,0.0,0.0,0.0,0.0,0.0,0.0,0.0,0.0,0.0,0.0,0.0,0.0,0.0,0.0,0.0,0.0,0.0,0.0,0.0,0.0,0.0,0.0,0.0,0.0,0.0,0.0,0.0,0.0,0.0,0.0,0.0,0.0,0.0,0.0,0.0,0.0,0.0,0.0,0.0,0.0,0.0,0.0,0.0,0.0,0.0,0.0,0.0,0.0,0.0,0.0,0.0,0.0,0.0,0.0,0.0,0.0,0.0,0.0,0.0,0.0,0.0,0.0,0.0,0.0,0.0,0.0,0.0,0.0,0.0,0.0,0.0,0.0,0.0,0.0,0.0,0.0,0.0,0.0,0.0,0.0,0.0,0.0,0.0,0.0,0.0,0.0,0.0,0.0,0.0,0.0,0.0,0.0,0.0,0.0,0.0,0.0,0.0,0.0,0.0,0.0,0.0,0.0,0.0,0.0,0.0,0.0,0.0,0.0,0.0,0.0,0.0,0.0,0.0,0.0,0.0,0.0,0.0,0.0,0.0,0.0,0.0,0.0,0.0,0.0,0.0,0.0,0.0,0.0,0.0,0.0,0.0,0.0,0.0,0.0,0.0,0.0,0.0,0.0,0.0,0.0,0.0,0.0,0.0,0.0,0.0,0.0,0.0,0.0,0.0,0.0,0.0,0.0,0.0,0.0,0.0,0.0,0.0,0.0,0.0,0.0,0.0,0.0,0.0,0.0,0.0,0.0,0.0,0.0,0.0,0.0,0.0,0.0,0.0,0.0,0.0,0.0,0.0,0.0,0.0,0.0,0.0,0.0,0.0,0.0,0.0,0.0,0.0,0.0,0.0,0.0,0.0,0.0,0.0,0.0,0.0,0.0,0.0,0.0,0.0,0.0,0.0,0.0,0.0,0.0,0.0,0.0,0.0,0.0,0.0,0.0,0.0,0.0,0.0,0.0,0.0,0.0,0.0,0.0,0.0,0.0,0.0,0.0,0.0,0.0,0.0,0.0,0.0,0.0,0.0,0.0,0.0,0.0,0.0,0.0,0.0,0.0,0.0,0.0,0.0,0.0,0.0,0.0,0.0,0.0,0.0,0.0,0.0,0.0,0.0,0.0,0.0,0.0,0.0,0.0,0.0,0.0,0.0,0.0,0.0,0.0,0.0,0.0,0.0,0.0,0.0,0.0,0.0,0.0,0.0,0.0,0.0,0.0,0.0,-0.6535,0.0,0.0,0.0,0.0,0.0,0.0,0.0,0.0,0.0,0.0,0.0,0.0,0.0,0.0,0.0,0.0,0.0,0.0,0.0,0.0,0.0,0.0,0.0,0.0,0.0,0.0,0.0,0.0,0.0,0.0,0.0,0.0,0.0,0.0,0.0,0.0,0.0,0.0,0.0,0.0,0.0,0.0,0.0,0.0,0.0,0.0,0.0,0.0,0.0,0.0,0.0,0.0,0.0,0.0,0.0,0.0,0.0,0.0,0.0,0.0,0.0,0.0,0.0,0.0,0.0,0.0,0.0,0.0,0.0,0.0,0.0,0.0,0.0,0.0,0.0,0.0,0.0,0.0,0.0,0.0,0.0,0.0,0.0,0.0,0.0,0.0,0.0,0.0,0.0,0.0,0.0,0.0,0.0,0.0,0.0,0.0,0.0,0.0,0.0,0.0,0.0,0.0,0.0,0.0,0.0,0.0,0.0,0.0,0.0,0.0,0.0,0.0,0.0,0.0,0.0,0.0,-0.6651,0.0,0.0,0.0,0.0,0.0,0.0,0.0,0.0,0.0,0.0,0.0,0.0,0.0,0.0,0.0,0.0,0.0,0.0,0.0,0.0,0.0,0.0,0.0,0.0,0.0,0.0,0.0,0.0,0.0,0.0,0.0,0.0,0.0,0.0,0.0,0.0,0.0,0.0,0.0,0.0,0.0,0.0,0.0,0.0,0.0,0.0,0.0,0.0,0.0,0.0,0.0,0.0,0.0,0.0,0.0,0.0,0.0,0.0,0.0,0.0,0.0,0.0,0.0,0.0,0.0,0.0,0.0,0.0,0.0,0.0,0.0,0.0,0.0,0.0,0.0,0.0,0.0,0.0,0.0,0.0,0.0,0.0,0.0,0.0,0.0,0.0,0.0,0.0,0.0,0.0,0.0,0.0,0.0,0.0,0.0,0.0,0.0,0.0,0.0,0.0,0.0,0.0,0.0,0.0,0.0,0.0,0.0,0.0,-0.4853,-0.484,-0.484,-0.484,-0.4769,-0.4663,-0.4908,-0.5433,-0.619,0.0,0.0,0.0,0.0,0.0,0.0,0.0,0.0,0.0,0.0,0.0,0.0,0.0,0.0,0.0,0.0,0.0,0.0,0.0,0.0,0.0,0.0,0.0,0.0,0.0,0.0,0.0,0.0,0.0,0.0,0.0,0.0,0.0,0.0,0.0,0.0,0.0,0.0,0.0,0.0,0.0,0.0,0.0,0.0,0.0,0.0,0.0,0.0,0.0,0.0,0.0,0.0,0.0,0.0,0.0,0.0,0.0,0.0,0.0,0.0,0.0,0.0,0.0,0.0,0.0,0.0,0.0,0.0,0.0,0.0,0.0,0.0,0.0,0.0,0.0,0.0,0.0,0.0,0.0,0.0,0.0,0.0,0.0,0.0,0.0,0.0,0.0,-0.3569,-0.3808,0.0,0.0,0.0,0.0,0.0,0.0,0.0,0.0,0.0,0.0,0.0,0.0,0.0,-0.4908,-0.4887,-0.4789,-0.4721,-0.4718,-0.4614,-0.4549,-0.4549,-0.4549,-0.4539,-0.4522,-0.4559,0.0,-0.5104,-0.5185,0.0,0.0,0.0,0.0,0.0,0.0,0.0,0.0,0.0,0.0,0.0,0.0,0.0,0.0,0.0,0.0,0.0,0.0,0.0,0.0,0.0,0.0,0.0,0.0,0.0,0.0,0.0,0.0,0.0,0.0,0.0,0.0,0.0,0.0,0.0,0.0,0.0,0.0,0.0,0.0,0.0,0.0,0.0,0.0,0.0,0.0,0.0,0.0,0.0,0.0,0.0,0.0,0.0,0.0,0.0,0.0,0.0,0.0,0.0,0.0,0.0,0.0,0.0,0.0,0.0,0.0,0.0,0.0,0.0,0.0,0.0,0.0,0.0,0.0,0.0,0.0,0.0,0.0,0.0,0.0,0.0,0.0,0.0,0.0,0.0,-0.3213,-0.3668,-0.3875,-0.4559,-0.5066,0.0,0.0,0.0,0.0,0.0,0.0,0.0,0.0,0.0,-0.5005,-0.4877,-0.4792,-0.4792,-0.4665,-0.459,-0.459,-0.4522,-0.4491,-0.4491,-0.4491,-0.4491,-0.4491,-0.4491,-0.4566,-0.4674,-0.485,-0.4986,-0.5111,0.0,0.0,0.0,0.0,-0.5572,-0.5644,0.0,0.0,0.0,0.0,0.0,0.0,0.0,0.0,0.0,0.0,0.0,0.0,0.0,0.0,0.0,0.0,0.0,0.0,0.0,0.0,0.0,0.0,0.0,0.0,0.0,0.0,0.0,0.0,0.0,0.0,0.0,0.0,0.0,0.0,0.0,0.0,0.0,0.0,0.0,0.0,0.0,0.0,0.0,0.0,0.0,0.0,0.0,0.0,0.0,0.0,0.0,0.0,0.0,0.0,0.0,0.0,0.0,0.0,0.0,0.0,0.0,0.0,0.0,0.0,0.0,0.0,0.0,0.0,0.0,0.0,0.0,0.0,0.0,0.0,0.0,0.0,0.0,-0.3155,-0.3637,-0.3903,-0.4544,-0.5036,0.0,0.0,0.0,0.0,0.0,0.0,-0.5093,-0.4999,-0.4975,-0.5042,-0.4863,-0.4748,-0.4748,-0.4665,-0.4586,-0.4549,-0.459,-0.4586,-0.4549,-0.4549,-0.4549,-0.4545,-0.4508,-0.4491,-0.4508,-0.4707,-0.4758,-0.4728,-0.5132,-0.5226,-0.5213,-0.5403,-0.5498,-0.5539,0.0,0.0,0.0,0.0,0.0,0.0,0.0,0.0,0.0,0.0,0.0,0.0,0.0,0.0,0.0,0.0,0.0,0.0,0.0,0.0,0.0,0.0,0.0,0.0,0.0,0.0,0.0,0.0,0.0,0.0,0.0,0.0,0.0,0.0,0.0,0.0,0.0,0.0,0.0,0.0,0.0,0.0,0.0,0.0,0.0,0.0,0.0,0.0,0.0,0.0,0.0,0.0,0.0,0.0,0.0,0.0,0.0,0.0,0.0,0.0,0.0,0.0,0.0,0.0,0.0,0.0,0.0,0.0,0.0,0.0,0.0,0.0,0.0,0.0,0.0,0.0,0.0,0.0,0.0,-0.3772,-0.4241,0.0,0.0,0.0,0.0,-0.509,-0.5093,-0.5093,-0.51,-0.5093,-0.5029,-0.4904,-0.4884,-0.4877,-0.4877,-0.487,-0.4823,-0.468,-0.4826,-0.4819,-0.4677,-0.4677,-0.4677,-0.467,-0.4552,-0.4491,-0.4491,-0.4505,-0.4593,-0.4707,-0.4874,-0.5108,-0.5365,-0.5203,-0.5247,-0.5365,0.0,0.0,0.0,0.0,0.0,0.0,0.0,0.0,0.0,0.0,0.0,0.0,0.0,0.0,0.0,0.0,0.0,0.0,0.0,0.0,0.0,0.0,0.0,0.0,0.0,0.0,0.0,0.0,0.0,0.0,0.0,0.0,0.0,0.0,0.0,0.0,0.0,0.0,0.0,0.0,0.0,0.0,0.0,0.0,0.0,0.0,0.0,0.0,0.0,0.0,0.0,0.0,0.0,0.0,0.0,0.0,0.0,0.0,0.0,0.0,0.0,0.0,0.0,0.0,0.0,0.0,0.0,0.0,0.0,0.0,0.0,0.0,0.0,0.0,0.0,0.0,0.0,0.0,0.0,-0.4788,-0.498,0.0,-0.5457,-0.5403,-0.5372,-0.5423,-0.5335,-0.5321,-0.542,-0.5204,-0.5164,-0.5345,-0.507,-0.4931,-0.5022,-0.4935,-0.4891,-0.484,-0.4864,-0.486,-0.484,-0.484,-0.484,-0.4833,-0.4779,-0.4755,-0.4755,-0.4755,-0.4731,-0.4707,-0.486,-0.4986,-0.5081,-0.5086,-0.5133,-0.5213,0.0,0.0,0.0,0.0,0.0,0.0,0.0,0.0,0.0,0.0,0.0,0.0,0.0,0.0,0.0,0.0,0.0,0.0,0.0,0.0,0.0,0.0,0.0,0.0,0.0,0.0,0.0,0.0,0.0,0.0,0.0,0.0,0.0,0.0,0.0,0.0,0.0,0.0,0.0,0.0,0.0,0.0,0.0,0.0,0.0,0.0,0.0,0.0,0.0,0.0,0.0,0.0,0.0,0.0,0.0,0.0,0.0,0.0,0.0,0.0,0.0,0.0,0.0,0.0,0.0,0.0,0.0,0.0,0.0,0.0,0.0,0.0,0.0,0.0,0.0,0.0,0.0,0.0,-0.4862,-0.4916,-0.5222,-0.5356,-0.5204,-0.5385,-0.5569,-0.5586,-0.5528,-0.5539,-0.5654,-0.5423,-0.5399,-0.5654,-0.5325,-0.5213,-0.5322,-0.5264,-0.5192,-0.5145,-0.5145,-0.5118,-0.5067,-0.4982,-0.4958,-0.4958,-0.4911,-0.4887,-0.4891,-0.4938,-0.4931,-0.4843,-0.4897,-0.4982,-0.5074,-0.5083,-0.5164,-0.5294,0.0,0.0,0.0,0.0,0.0,0.0,0.0,0.0,0.0,0.0,0.0,0.0,0.0,0.0,0.0,0.0,0.0,0.0,0.0,0.0,0.0,0.0,0.0,0.0,0.0,0.0,0.0,0.0,0.0,0.0,0.0,0.0,0.0,0.0,0.0,0.0,0.0,0.0,0.0,0.0,0.0,0.0,0.0,0.0,0.0,0.0,0.0,0.0,0.0,0.0,0.0,0.0,0.0,0.0,0.0,0.0,0.0,0.0,0.0,0.0,0.0,0.0,0.0,0.0,0.0,0.0,0.0,0.0,0.0,0.0,0.0,0.0,0.0,0.0,0.0,0.0,-0.4887,-0.4981,-0.4821,-0.4129,-0.4851,-0.5036,-0.4159,-0.49,-0.5498,-0.5613,-0.562,-0.5677,-0.5817,-0.5684,-0.5667,-0.5803,-0.5671,-0.5661,-0.58,-0.58,-0.5732,-0.5596,-0.5561,-0.5518,-0.5402,-0.5187,-0.5088,-0.511,-0.4972,-0.4911,-0.4921,-0.5052,-0.511,-0.51,-0.4958,-0.5108,-0.5378,-0.5192,-0.5328,-0.5562,0.0,0.0,0.0,0.0,0.0,0.0,0.0,0.0,0.0,0.0,0.0,0.0,0.0,0.0,0.0,0.0,0.0,0.0,0.0,0.0,0.0,0.0,0.0,0.0,0.0,0.0,0.0,0.0,0.0,0.0,0.0,0.0,0.0,0.0,0.0,0.0,0.0,0.0,0.0,0.0,0.0,0.0,0.0,0.0,0.0,0.0,0.0,0.0,0.0,0.0,0.0,0.0,0.0,0.0,0.0,0.0,0.0,0.0,0.0,0.0,0.0,0.0,0.0,0.0,0.0,0.0,0.0,0.0,0.0,0.0,0.0,0.0,0.0,0.0,0.0,-0.3836,-0.4766,-0.4458,-0.4456,-0.5204,-0.5048,-0.5153,-0.5745,-0.6132,-0.6349,-0.6393,-0.6291,-0.6286,-0.6323,-0.6047,-0.5888,-0.5929,-0.582,-0.5762,-0.58,-0.58,-0.5783,-0.5742,-0.4956,-0.4971,-0.5677,-0.4827,-0.4882,-0.561,-0.5467,-0.5406,-0.5399,-0.5328,-0.5362,-0.5447,-0.5298,-0.532,-0.5388,-0.5347,-0.5385,-0.545,0.0,0.0,0.0,0.0,0.0,0.0,0.0,0.0,0.0,0.0,0.0,0.0,0.0,0.0,0.0,0.0,0.0,0.0,0.0,0.0,0.0,0.0,0.0,0.0,0.0,0.0,0.0,0.0,0.0,0.0,0.0,0.0,0.0,0.0,0.0,0.0,0.0,0.0,0.0,0.0,0.0,0.0,0.0,0.0,0.0,0.0073,0.0519,0.1053,0.1562,0.1285,0.0,0.0,0.0,0.0,0.0,0.0,0.0,0.0,0.0,0.0,0.0,0.0,0.0,0.0,0.0,0.0,0.0,0.0,0.0,0.0,0.0,0.0,0.0,0.0,-0.4502,-0.4364,-0.5179,-0.4518,-0.4292,-0.5168,-0.5342,-0.5481,-0.5811,-0.6306,-0.6607,-0.6607,-0.6562,-0.6484,-0.6426,-0.6159,-0.6023,-0.6125,-0.5976,-0.5928,-0.5993,-0.5993,-0.5993,-0.5993,-0.5301,-0.5271,-0.5858,-0.5177,-0.5222,0.0,-0.5715,-0.5677,-0.5671,-0.5583,-0.5599,0.0,0.0,0.0,0.0,0.0,-0.545,-0.5395,0.0,0.0,0.0,0.0,0.0,0.0,0.0,0.0,0.0,0.0,0.0,0.0,0.0,0.0,0.0,0.0,0.0,0.0,0.0,0.0,0.0,0.0,0.0,0.0,0.0,0.0,0.0,0.0,0.0,0.0,0.0,0.0,0.0,0.0,0.0,0.0,0.0,0.0,0.0,0.0,0.0,0.0,0.0,0.0,0.0,0.0121,0.1088,0.1408,0.1492,0.2294,0.0,0.0,0.0,0.0,0.0,0.0,0.0,0.0,0.0,0.0,0.0,0.0,0.0,0.0,0.0,0.0,0.0,0.0,0.0,0.0,0.0,0.0,0.0,0.0,-0.5266,-0.5592,-0.5878,-0.4981,-0.4424,-0.4696,-0.5604,-0.5905,-0.5214,-0.6009,-0.6579,-0.6566,-0.6562,-0.6501,-0.6358,0.0,0.0,0.0,0.0,-0.6152,-0.6347,-0.6351,-0.6351,-0.6347,-0.6055,-0.5954,-0.6064,-0.5815,-0.5792,-0.5901,-0.5867,-0.5854,-0.585,-0.5817,-0.58,-0.5772,-0.5528,-0.5583,-0.5762,-0.5616,-0.5532,-0.5443,0.0,0.0,0.0,0.0,0.0,0.0,0.0,0.0,0.0,0.0,0.0,0.0,0.0,0.0,0.0,0.0,0.0,0.0,0.0,0.0,0.0,0.0,0.0,0.0,0.0,0.0,0.0,0.0,0.0,0.0,0.0,0.0,0.0,0.0,0.0,0.0,0.0,0.0,0.0,0.0,0.0,0.0,0.0,0.0,0.0,0.004,0.023,0.0921,0.1568,0.083,0.1088,0.1515,0.0571,0.0,0.0,0.0,0.0,0.0,0.0,0.0,0.0,0.0,0.0,0.0,0.0,0.0,0.0,0.0,0.0,0.0,0.0,0.0,0.0,-0.5593,-0.5114,-0.5124,-0.6351,-0.5583,-0.5229,-0.6034,-0.5797,-0.5828,-0.6453,-0.6814,-0.692,-0.6851,-0.6841,-0.6773,-0.6624,-0.6471,-0.6458,-0.661,-0.6468,-0.6461,-0.6614,-0.6617,-0.6617,-0.6617,0.0,0.0,-0.6529,-0.5635,-0.5705,-0.6515,-0.6313,-0.6211,-0.619,-0.5905,-0.58,-0.5783,-0.5613,-0.5583,-0.5613,-0.5494,-0.5573,-0.5698,0.0,0.0,0.0,0.0,0.0,0.0,0.0,0.0,0.0,0.0,0.0,0.0,0.0,0.0,0.0,0.0,0.0,0.0,0.0,0.0,0.0,0.0,0.0,0.0,0.0,0.0,0.0,0.0,0.0,0.0,0.0,0.0,0.0,0.0,0.0,0.0,0.0,0.0,0.0,0.0,0.0,0.0,0.0,0.0,0.0,0.0085,0.0617,0.1127,0.1548,0.1474,0.1489,0.1435,0.0831,0.0369,0.0,0.0,0.0,0.0,0.0,0.0,0.0,0.0,0.0,0.0,0.0,0.0,0.0,0.0,0.0,-0.5278,0.0,0.0,-0.4792,-0.5115,-0.4392,-0.4054,-0.4786,-0.5114,-0.5577,-0.6497,-0.6258,-0.6284,-0.6833,-0.695,-0.696,-0.6889,-0.6886,-0.6861,-0.6709,-0.6627,-0.662,-0.6698,-0.6627,-0.6624,-0.6702,-0.6702,-0.6702,-0.6702,-0.615,-0.6194,-0.6698,-0.615,-0.6194,-0.6688,-0.6504,-0.645,-0.6464,-0.623,-0.6051,-0.5908,-0.5837,-0.5762,-0.5688,-0.561,-0.5674,-0.5789,0.0,0.0,0.0,0.0,0.0,0.0,0.0,0.0,0.0,0.0,0.0,0.0,0.0,0.0,0.0,0.0,0.0,0.0,0.0,0.0,0.0,0.0,0.0,0.0,0.0,0.0,0.0,0.0,0.0,0.0,0.0,0.0,0.0,0.0,0.0,0.0,0.0,0.0,0.0,0.0,0.0,0.0,0.0,0.0,0.0,0.0091,0.0965,0.1205,0.1176,0.2036,0.1744,0.1056,0.103,0.055,0.0,0.0,0.0,0.0,0.0,0.0,0.0,0.0,0.0,0.0,0.0,0.0,-0.5368,-0.5406,-0.5452,-0.5524,-0.5529,-0.4753,-0.4223,-0.455,-0.4024,-0.3667,-0.3919,-0.502,-0.6059,-0.6747,-0.6803,-0.6834,-0.6913,-0.6927,-0.6916,-0.6886,-0.691,-0.6862,-0.6753,-0.6746,-0.6756,-0.6783,-0.6759,-0.6759,-0.6783,-0.6787,-0.6787,-0.6787,-0.6787,-0.6787,-0.6787,-0.6787,-0.6787,-0.6776,-0.6627,-0.6491,-0.6354,-0.6249,-0.5894,-0.5424,-0.5424,-0.5358,-0.5325,-0.5686,-0.5837,-0.5848,0.0,0.0,0.0,0.0,0.0,0.0,0.0,0.0,0.0,0.0,0.0,0.0,0.0,0.0,0.0,0.0,0.0,0.0,0.0,0.0,0.0,0.0,0.0,0.0,0.0,0.0,0.0,0.0,0.0,0.0,0.0,0.0,0.0,0.0,0.0,0.0,0.0,0.0,0.0,0.0,0.0,0.0,0.0,0.0,0.0,0.0,0.0133,0.0167,0.0157,0.0275,0.0228,0.0147,0.0154,0.0076,0.0,0.0,0.0,0.0,0.0,-0.0465,-0.1259,-0.2385,-0.3243,-0.4124,0.0,0.0,-0.5177,-0.5361,-0.5685,-0.5497,-0.4119,-0.4276,-0.471,-0.5009,-0.5073,-0.5592,-0.6923,-0.7155,-0.7213,-0.7302,-0.7173,-0.7055,-0.7071,-0.7071,-0.7021,-0.6896,-0.7001,-0.7011,-0.6869,-0.6859,-0.6916,-0.7045,-0.6927,-0.692,-0.7045,-0.7048,-0.7048,-0.7048,-0.7048,-0.7048,-0.7048,-0.7048,-0.7048,-0.7041,-0.6896,-0.6171,-0.5103,-0.5067,-0.4437,-0.3412,-0.3412,-0.3407,-0.361,-0.5202,-0.5976,-0.6071,0.0,0.0,0.0,0.0,0.0,0.0,0.0,0.0,0.0,0.0,0.0,0.0,0.0,0.0,0.0,0.0,0.0,0.0,0.0,0.0,0.0,0.0,0.0,0.0,0.0,0.0,0.0,0.0,0.0,0.0,0.0,0.0,0.0,0.0,0.0,0.0,0.0,0.0,0.0,0.0,0.0,0.0,0.0,0.0,0.0,0.0,0.0,0.0,0.0,0.0,0.0,0.0,0.0,0.0,0.0,0.0,0.0,0.0,0.0,-0.0593,0.0,0.0,-0.3513,-0.4485,-0.5574,-0.5798,-0.5842,-0.6037,-0.6212,-0.5901,-0.4556,-0.4116,-0.4033,0.0,-0.3827,-0.3931,-0.5298,-0.5978,-0.6343,-0.6227,-0.6735,-0.7095,-0.7095,-0.7095,-0.7071,-0.7011,-0.7061,-0.7068,-0.7011,-0.7007,-0.7034,-0.7095,-0.7038,-0.7038,-0.7095,-0.7095,-0.7095,-0.7095,-0.7095,-0.7095,-0.7095,-0.7095,-0.7051,-0.693,-0.6293,-0.558,-0.4861,-0.4206,-0.3635,-0.3096,-0.3096,-0.3096,-0.3208,-0.3953,-0.432,-0.4349,0.0,0.0,0.0,0.0,0.0,0.0,0.0,0.0,0.0,0.0,0.0,0.0,0.0,0.0,0.0,0.0,0.0,0.0,0.0,0.0,0.0,0.0,0.0,0.0,0.0,0.0,0.0,0.0,0.0,0.0,0.0,0.0,0.0,0.0,0.0,0.0,0.0,0.0,0.0,0.0,0.0,0.0,0.0,0.0,0.0,0.0,0.0,0.0,0.0,0.0,0.0,0.0,0.0,0.0,0.0,0.0,0.0,0.0,0.0,0.0,0.0,-0.2252,-0.3511,-0.4765,-0.5507,-0.6061,-0.6498,-0.6603,-0.6621,-0.6214,-0.5021,-0.4003,-0.3583,-0.425,-0.333,-0.3158,-0.4831,-0.5666,-0.6059,-0.5909,-0.6545,-0.7038,-0.7038,-0.7071,-0.7095,-0.7095,-0.7095,-0.7095,-0.7095,-0.7095,-0.6962,-0.665,-0.665,-0.647,-0.6154,-0.647,-0.665,-0.665,-0.665,-0.6786,-0.7098,-0.678,-0.659,-0.6427,-0.5356,-0.459,-0.3972,-0.3192,-0.2618,-0.2242,-0.2242,-0.2242,-0.2244,-0.2258,-0.2625,-0.3056,0.0,0.0,0.0,0.0,0.0,0.0,0.0,0.0,0.0,0.0,0.0,0.0,0.0,0.0,0.0,0.0,0.0,0.0,0.0,0.0,0.0,0.0,0.0,0.0,0.0,0.0,0.0,0.0,0.0,0.0,0.0,0.0,0.0,0.0,0.0,0.0,0.0,0.0,0.0,0.0,0.0,0.0,0.0,0.0,0.0,0.0,0.0,0.0,0.0,0.0,0.0,0.0,0.0,0.0,0.0,0.0,0.0,0.0,0.0,0.0,-0.1156,-0.1323,-0.3024,-0.4753,-0.4904,-0.5909,-0.6801,-0.681,-0.6793,-0.6393,-0.5061,-0.3993,-0.3846,-0.5489,-0.4744,-0.4828,-0.735,-0.759,-0.7439,-0.7094,-0.6977,-0.6893,0.0,-0.7014,-0.7095,-0.7095,-0.7095,-0.7095,-0.7095,-0.7095,-0.6605,-0.5492,-0.5447,-0.491,-0.3703,-0.4865,-0.5447,-0.5447,-0.5447,-0.6027,-0.7054,-0.5972,-0.5461,-0.5359,-0.4193,-0.3001,-0.1873,-0.1879,-0.1172,-0.0087,-0.0087,-0.0087,-0.0087,-0.0089,-0.135,-0.2972,0.0,0.0,0.0,0.0,0.0,0.0,0.0,0.0,0.0,0.0,0.0,0.0,0.0,0.0,0.0,0.0,0.0,0.0,0.0,0.0,0.0,0.0,0.0,0.0,0.0,0.0,0.0,0.0,0.0,0.0,0.0,0.0,0.0,0.0,0.0,0.0,0.0,0.0,0.0,0.0,0.0,0.0,0.0,0.0,0.0,0.0,0.0,0.0,0.0,0.0,0.0,0.0,0.0,0.0,0.0,0.0,0.0,0.0,0.0,0.0,-0.0567,-0.1425,-0.2863,-0.4293,-0.5038,-0.6272,-0.7145,-0.6907,-0.6793,-0.6338,-0.4988,-0.4466,-0.4455,-0.5237,-0.5172,-0.5656,-0.7421,-0.7709,-0.759,-0.7142,-0.719,0.0,0.0,0.0,0.0,-0.7088,-0.7238,-0.7292,-0.7292,-0.6551,-0.5945,-0.5529,-0.465,-0.4018,-0.3599,-0.401,-0.4191,-0.4191,-0.4191,-0.4829,-0.5927,-0.4726,-0.4204,-0.4137,-0.2912,-0.216,-0.1734,-0.094,-0.0355,0.0,0.0,0.0,0.0,0.0,-0.0445,-0.1009,0.0,0.0,0.0,0.0,0.0,0.0,0.0,0.0,0.0,0.0,0.0,0.0,0.0,0.0,0.0,0.0,0.0,0.0,0.0,0.0,0.0,0.0,0.0,0.0,0.0,0.0,0.0,0.0,0.0,0.0,0.0,0.0,0.0,0.0,0.0,0.0,0.0,0.0,0.0,0.0,0.0,0.0,0.0,0.0,0.0,0.0,0.0,0.0,0.0,0.0,0.0,0.0,0.0,0.0,0.0,0.0,0.0,0.0,0.0,0.0,-0.0206,-0.0946,-0.2173,-0.3335,-0.4012,-0.5463,-0.6602,-0.6331,-0.6428,-0.631,-0.5414,-0.483,-0.4686,-0.5455,-0.5423,-0.5613,-0.6578,-0.7276,-0.7359,-0.6574,-0.7037,0.0,0.0,0.0,0.0,-0.7088,-0.7336,-0.7431,-0.7419,-0.6237,-0.5402,-0.4978,-0.3654,-0.2738,-0.233,-0.2748,-0.2934,-0.2981,-0.3399,-0.3771,-0.41,-0.3332,-0.2976,-0.2896,-0.1702,-0.1175,-0.112,-0.0323,0.0,0.0,0.0,0.0,0.0,0.0,0.0,0.0,0.0,0.0,0.0,0.0,0.0,0.0,0.0,0.0,0.0,0.0,0.0,0.0,0.0,0.0,0.0,0.0,0.0,0.0,0.0,0.0,0.0,0.0,0.0,0.0,0.0,0.0,0.0,0.0,0.0,0.0,0.0,0.0,0.0,0.0,0.0,0.0,0.0,0.0,0.0,0.0,0.0,0.0,0.0,0.0,0.0,0.0,0.0,0.0,0.0,0.0,0.0,0.0,0.0,0.0,0.0,0.0,0.0,0.0,0.0,0.0,0.0,0.0,-0.1001,-0.1995,-0.2005,-0.3733,-0.5308,-0.5122,-0.5719,-0.6272,0.0,0.0,-0.4609,-0.6228,-0.5554,-0.4911,-0.5186,-0.6475,-0.6936,0.0,0.0,0.0,0.0,0.0,0.0,-0.7122,0.0,-0.7539,-0.7309,-0.6164,-0.4946,-0.376,-0.2384,-0.1146,0.0,-0.1144,-0.1763,-0.1808,-0.29,-0.2855,-0.1812,-0.175,-0.1698,-0.1622,-0.0487,0.0,0.0,0.0,0.0,0.0,0.0,0.0,0.0,0.0,0.0,0.0,0.0,0.0,0.0,0.0,0.0,0.0,0.0,0.0,0.0,0.0,0.0,0.0,0.0,0.0,0.0,0.0,0.0,0.0,0.0,0.0,0.0,0.0,0.0,0.0,0.0,0.0,0.0,0.0,0.0,0.0,0.0,0.0,0.0,0.0,0.0,0.0,0.0,0.0,0.0,0.0,0.0,0.0,0.0,0.0,0.0,0.0,0.0,0.0,0.0,0.0,0.0,0.0,0.0,0.0,0.0,0.0,0.0,0.0,0.0,0.0,0.0,0.0,-0.1021,-0.1988,-0.1876,-0.3567,-0.5099,-0.4836,-0.5422,-0.5888,0.0,0.0,0.0,-0.6257,-0.6433,0.0,-0.6779,-0.7395,0.0,0.0,0.0,-0.7658,-0.7553,-0.76,0.0,0.0,-0.7556,-0.7199,-0.6252,-0.5043,-0.3811,-0.248,-0.1143,-0.0297,0.0,-0.0292,-0.0918,-0.1809,-0.1207,-0.1216,-0.1751,-0.0881,-0.044,-0.0439,-0.0147,0.0,0.0,0.0,0.0,0.0,0.0,0.0,0.0,0.0,0.0,0.0,0.0,0.0,0.0,0.0,0.0,0.0,0.0,0.0,0.0,0.0,0.0,0.0,0.0,0.0,0.0,0.0,0.0,0.0,0.0,0.0,0.0,0.0,0.0,0.0,0.0,0.0,0.0,0.0,0.0,0.0,0.0,0.0,0.0,0.0,0.0,0.0,0.0,0.0,0.0,0.0,0.0,0.0,0.0,0.0,0.0,0.0,0.0,0.0,0.0,0.0,0.0,0.0,0.0,0.0,0.0,0.0,0.0,0.0,0.0,0.0,0.0,0.0,-0.0543,-0.1209,-0.152,-0.2596,-0.3713,-0.4272,-0.4767,0.0,0.0,0.0,0.0,0.0,0.0,0.0,-0.6319,-0.7182,-0.7589,0.0,-0.7469,0.0,-0.7801,-0.7266,-0.6927,0.0,-0.6912,-0.658,-0.5856,-0.4076,-0.2765,-0.2013,-0.0706,0.0,0.0,0.0,-0.0346,-0.1026,-0.0346,-0.0348,-0.0993,-0.0298,0.0,0.0,0.0,0.0,0.0,0.0,0.0,0.0,0.0,0.0,0.0,0.0,0.0,0.0,0.0,0.0,0.0,0.0,0.0,0.0,0.0,0.0,0.0,0.0,0.0,0.0,0.0,0.0,0.0,0.0,0.0,0.0,0.0,0.0,0.0,0.0,0.0,0.0,0.0,0.0,0.0,0.0,0.0,0.0,0.0,0.0,0.0,0.0,0.0,0.0,0.0,0.0,0.0,0.0,0.0,0.0,0.0,0.0,0.0,0.0,0.0,0.0,0.0,0.0,0.0,0.0,0.0,0.0,0.0,0.0,0.0,0.0,0.0,0.0,0.0,0.0,0.0,-0.024,-0.1084,-0.1416,-0.2018,-0.3681,0.0,-0.4412,-0.5249,0.0,-0.5098,-0.5414,0.0,-0.5532,-0.5102,-0.6396,-0.7101,-0.6354,-0.7285,-0.7988,-0.7988,-0.668,-0.5873,-0.5972,-0.5677,-0.5438,-0.5296,-0.3188,-0.1913,-0.1762,-0.0605,0.0,0.0,0.0,0.0,0.0,0.0,0.0,0.0,0.0,0.0,0.0,0.0,0.0,0.0,0.0,0.0,0.0,0.0,0.0,0.0,0.0,0.0,0.0,0.0,0.0,0.0,0.0,0.0,0.0,0.0,0.0,0.0,0.0,0.0,0.0,0.0,0.0,0.0,0.0,0.0,0.0,0.0,0.0,0.0,0.0,0.0,0.0,0.0,0.0,0.0,0.0,0.0,0.0,0.0,0.0,0.0,0.0,0.0,0.0,0.0,0.0,0.0,0.0,0.0,0.0,0.0,0.0,0.0,0.0,0.0,0.0,0.0,0.0,0.0,0.0,0.0,0.0,0.0,0.0,0.0,0.0,0.0,0.0,0.0,0.0,0.0,-0.0231,-0.1103,-0.1311,0.0,0.0,0.0,-0.4308,-0.5229,-0.4827,0.0,-0.4661,0.0,0.0,0.0,0.0,-0.6617,0.0,0.0,0.0,0.0,0.0,0.0,0.0,0.0,-0.2661,-0.2652,-0.226,-0.1511,-0.0404,-0.0101,0.0,0.0,0.0,0.0,0.0,0.0,0.0,0.0,0.0,0.0,0.0,0.0,0.0,0.0,0.0,0.0,0.0,0.0,0.0,0.0,0.0,0.0,0.0,0.0,0.0,0.0,0.0,0.0,0.0,0.0,0.0,0.0,0.0604,0.0778,0.0629,0.0,0.0,0.0,0.0,0.0,0.0,0.0,0.0,0.0,0.0,0.0,0.0,0.0,0.0,0.0,0.0,0.0,0.0,0.0,0.0,0.0,0.0,0.0,0.0,0.0,0.0,0.0,0.0,0.0,0.0,0.0,0.0,0.0,0.0,0.0,0.0,0.0,0.0,0.0,0.0,0.0,0.0,0.0,0.0,0.0,0.0,0.0,0.0,0.0,0.0,0.0,-0.0228,-0.1081,0.0,0.0,0.0,0.0,-0.3747,-0.516,0.0,0.0,0.0,0.0,0.0,0.0,0.0,0.0,0.0,0.0,0.0,0.0,0.0,0.0,0.0,0.0,-0.126,-0.1962,-0.136,-0.0656,0.0,0.0,0.0,0.0,0.0,0.0,0.0,0.0,0.0,0.0,0.0,0.0,0.0,0.0,0.0,0.0,0.0,0.0,0.0,0.0,0.0,0.0,0.0,0.0,0.0,0.0,0.0,0.0,0.0,0.0,0.0,0.0,0.0308,0.0588,0.1274,0.1677,0.1515,0.0461,0.0345,0.0237,0.0,0.0,0.0,0.0,0.0,0.0,0.0,0.0,0.0,0.0,0.0,0.0,0.0,0.0,0.0,0.0,0.0,0.0,0.0,0.0,0.0,0.0,0.0,0.0,0.0,0.0,0.0,0.0,0.0,0.0,0.0,0.0,0.0,0.0,0.0,0.0,0.0,0.0,0.0,0.0,0.0,0.0,0.0,0.0,0.0,0.0,0.0,0.0,-0.0226,-0.1108,-0.0635,0.0,0.0,-0.3011,-0.2945,-0.4755,0.0,0.0,0.0,0.0,0.0,0.0,0.0,0.0,0.0,0.0,0.0,0.0,0.0,0.0,0.0,0.0,0.0,-0.1511,-0.0555,0.0,0.0,0.0,0.0,0.0,0.0,0.0,0.0,0.0,0.0,0.0,0.0,0.0,0.0,0.0,0.0,0.0,0.0,0.0,0.0,0.0,0.0,0.0,0.0,0.0,0.0,0.0,0.0,0.0,0.0,0.0,0.0,0.0,0.1251,0.1491,0.157,0.2397,0.2577,0.1559,0.1451,0.107,0.0,0.0,0.0,0.0,0.0,0.0,0.0,0.0,0.0,0.0,0.0,0.0,0.0,0.0,0.0,0.0,0.0,0.0,0.0,0.0,0.0,0.0,0.0,0.0,0.0,0.0,0.0,0.0,0.0,0.0,0.0,0.0,0.0,0.0,0.0,0.0,0.0,0.0,0.0,0.0,0.0,0.0,0.0,0.0,0.0,0.0,0.0,0.0,-0.0223,-0.1104,0.0,0.0,-0.244,-0.2075,-0.1976,-0.3782,-0.2711,0.0,0.0,0.0,0.0,0.0,0.0,0.0,0.0,0.0,0.0,0.0,0.0,0.0,0.0,0.0,0.0,-0.0202,-0.005,0.0,0.0,0.0,0.0,0.0,0.0,0.0,0.0,0.0,0.0,0.0,0.0,0.0,0.0,0.0,0.0,0.0,0.0,0.0,0.0,0.0,0.0,0.0,0.0,0.0,0.0,0.0,0.0,0.0,0.0,0.0,0.0,0.0,0.1344,0.1638,0.2287,0.3287,0.3821,0.3489,0.3409,0.2458,0.0,0.0,0.0,0.0,0.0,0.0,0.0,0.0,0.0,0.0,0.0,0.0,0.0,0.0,0.0,0.0,0.0,0.0,0.0,0.0,0.0,0.0,0.0,0.0,0.0,0.0,0.0,0.0,0.0,0.0,0.0,0.0,0.0,0.0,0.0,0.0,0.0,0.0,0.0,0.0,0.0,0.0,0.0,0.0,0.0,0.0,0.0,0.0,-0.0087,-0.0424,0.0,0.0,-0.1587,-0.1574,-0.1683,-0.2976,-0.2163,-0.164,0.0,0.0,0.0,0.0,0.0,0.0,0.0,0.0,0.0,0.0,0.0,0.0,0.0,0.0,0.0,0.0,0.0,0.0,0.0,0.0,0.0,0.0,0.0,0.0,0.0,0.0,0.0,0.0,0.0,0.0,0.0,0.0,0.0,0.0,0.0,0.0,0.0,0.0,0.0,0.0,0.0,0.0,0.0,0.0,0.0,0.0,0.0,0.0,0.0,0.2062,0.2118,0.2413,0.3189,0.421,0.4853,0.4702,0.4533,0.3472,0.1105,0.0,0.0,0.0,0.0,0.0,0.0,0.0,0.0,0.0,0.0,0.0,0.0,0.0,0.0,0.0,0.0,0.0,0.0,0.0,0.0,0.0,0.0,0.0,0.0,0.0,0.0,0.0,0.0,0.0,0.0,0.0,0.0,0.0,0.0,0.0,0.0,0.0,0.0,0.0,0.0,0.0,0.0,0.0,0.0,0.0,0.0,0.0,0.0,0.0,0.0,0.0,-0.0777,-0.1106,-0.1487,-0.2153,-0.1745,-0.1554,0.0,0.0,0.0,0.0,0.0,0.0,0.0,0.0,0.0,0.0,0.0,0.0,0.0,0.0,0.0,0.0,0.0,0.0,0.0,0.0,0.0,0.0,0.0,0.0,0.0,0.0,0.0,0.0,0.0,0.0,0.0,0.0,0.0,0.0,0.0,0.0,0.0,0.0,0.0,0.0,0.0,0.0,0.0,0.0,0.0,0.0,0.0,0.0,0.0,0.0,0.401,0.4157,0.4198,0.5117,0.5495,0.4769,0.4393,0.3881,0.315,0.0,0.0,0.0,0.0,0.0,0.0,0.0,0.0,0.0,0.0,0.3547,0.2678,0.1756,0.0,0.0,0.0,0.0,0.0,0.0,0.0,0.0,0.0,0.0,0.0,0.0,0.0,0.0,0.0,0.0,0.0,0.0,0.0,0.0,0.0,0.0,0.0,0.0,0.0,0.0,0.0,0.0,0.0,0.0,0.0,0.0,0.0,0.0,0.0,0.0,0.0,0.0,0.0,-0.0706,-0.1318,-0.1321,-0.1292,-0.1315,-0.131,0.0,0.0,0.0,0.0,0.0,0.0,0.0,0.0,0.0,0.0,0.0,0.0,0.0,0.0,0.0,0.0,0.0,0.0,0.0,0.0,0.0,0.0,0.0,0.0,0.0,0.0,0.0,0.0,0.0,0.0,0.0,0.0,0.0,0.0,0.0,0.0,0.0,0.0,0.0,0.0,0.0,0.0,0.0,0.0,0.0,0.0,0.0,0.0,0.0,0.4012,0.411,0.4189,0.5052,0.5642,0.5588,0.5331,0.5116,0.4958,0.0,0.0,0.0,0.0,0.0,0.0,0.0,0.0,0.0,0.4957,0.4562,0.3719,0.2743,0.2009,0.1471,0.0463,0.0,0.0,0.0,0.0,0.0,0.0,0.0,0.0,0.0,0.0,0.0,0.0,0.0,0.0,0.0,0.0,0.0,0.0,0.0,0.0,0.0,0.0,0.0,0.0,0.0,0.0,0.0,0.0,0.0,0.0,0.0,0.0,0.0,0.0,0.0,0.0,-0.0236,-0.0409,-0.0428,-0.0396,-0.0658,-0.1383,0.0,0.0,0.0,0.0,0.0,0.0,0.0,0.0,0.0,0.0,0.0,0.0,0.0,0.0,0.0,0.0,0.0,0.0,0.0,0.0,0.0,0.0,0.0,0.0,0.0,0.0,0.0,0.0,0.0,0.0,0.0,0.0,0.0,0.0,0.0,0.0,0.0,0.0,0.0,0.0,0.0,0.0,0.0,0.0,0.0,0.0,0.0,0.0,0.0,0.4519,0.4548,0.4628,0.5157,0.5616,0.5911,0.5681,0.5586,0.5783,0.0,0.0,0.0,0.0,0.0,0.0,0.0,0.0,0.5395,0.5395,0.5164,0.4711,0.3736,0.2858,0.207,0.1085,0.0397,0.0,0.0,0.0,0.0,0.0,0.0,0.0,0.0,0.0,0.0,0.0,0.0,0.0,0.0,0.0,0.0,0.0,0.0,0.0,0.0,0.0,0.0,0.0,0.0,0.0,0.0,0.0,0.0,0.0,0.0,0.0,0.0,0.0,0.0,0.0,0.0,0.0,0.0,0.0,0.0,0.0,0.0,0.0,0.0,0.0,0.0,0.0,0.0,0.0,0.0,0.0,0.0,0.0,0.0,0.0,0.0,0.0,0.0,0.0,0.0,0.0,0.0,0.0,0.0,0.0,0.0,0.0,0.0,0.0,0.0,0.0,0.0,0.0,0.0,0.0,0.0,0.0,0.0,0.0,0.0,0.0,0.0,0.0,0.0,0.0,0.0,0.0,0.0,0.0,0.0,0.0,0.0,0.0,0.5395,0.5498,0.5739,0.5559,0.5504,0.0,0.0,0.0,0.0,0.0,0.0,0.0,0.0,0.0,0.5395,0.5395,0.5477,0.5606,0.4665,0.3781,0.2994,0.213,0.1134,0.0113,0.0111,0.0075,0.0,0.0,0.0,0.0,0.0,0.0,0.0,0.0,0.0,0.0,0.0,0.0,0.0,0.0,0.0,0.0,0.0,0.0,0.0,0.0,0.0,0.0,0.0,0.0,0.0,0.0,0.0,0.0,0.0,0.0,0.0,0.0,0.0,0.0,0.0,0.0,0.0,0.0,0.0,0.0,0.0,0.0,0.0,0.0,0.0,0.0,0.0,0.0,0.0,0.0,0.0,0.0,0.0,0.0,0.0,0.0,0.0,0.0,0.0,0.0,0.0,0.0,0.0,0.0,0.0,0.0,0.0,0.0,0.0,0.0,0.0,0.0,0.0,0.0,0.0,0.0,0.0,0.0,0.0,0.0,0.0,0.0,0.0,0.0,0.0,0.0,0.0,0.0,0.0,0.0,0.5395,0.5423,0.5491,0.5436,0.5423,0.0,0.0,0.0,0.0,0.0,0.0,0.0,0.0,0.0,0.5395,0.5395,0.5525,0.5752,0.4704,0.422,0.4263,0.3224,0.2189,0.1209,0.1239,0.0762,0.0,0.0,0.0,0.0,0.0,0.0,0.0,0.0,0.0,0.0,0.0,0.0,0.0,0.0,0.0,0.0,0.0,0.0,0.0,0.0,0.0,0.0,0.0,0.0,0.0,0.0,0.0,0.0,0.0,0.0,0.0,0.0,0.0,0.0,0.0,0.0,0.0,0.0,0.0,0.0,0.0,0.0,0.0,0.0,0.0,0.0,0.0,0.0,0.0,0.0,0.0,0.0,0.0,0.0,0.0,0.0,0.0,0.0,0.0,0.0,0.0,0.0,0.0,0.0,0.0,0.0,0.0,0.0,0.0,0.0,0.0,0.0,0.0,0.0,0.0,0.0,0.0,0.0,0.0,0.0,0.0,0.0,0.0,0.0,0.0,0.0,0.0,0.0,0.0,0.0,0.0,0.0,0.0,0.0,0.0,0.0,0.0,0.0,0.0,0.0,0.0,0.0,0.0,0.5395,0.5395,0.5395,0.5539,0.58,0.5222,0.4839,0.4686,0.4088,0.3029,0.1575,0.1077,0.0543,0.0,0.0,0.0,0.0,0.0,0.0,0.0,0.0,0.0,0.0,0.0,0.0,0.0,0.0,0.0,0.0,0.0,0.0,0.0,0.0,0.0,0.0,0.0,0.0,0.0,0.0,0.0,0.0,0.0,0.0,0.0,0.0,0.0,0.0,0.0,0.0,0.0,0.0,0.0,0.0,0.0,0.0,0.0,0.0,0.0,0.0,0.0,0.0,0.0,0.0,0.0,0.0,0.0,0.0,0.0,0.0,0.0,0.0,0.0,0.0,0.0,0.0,0.0,0.0,0.0,0.0,0.0,0.0,0.0,0.0,0.0,0.0,0.0,0.0,0.0,0.0,0.0,0.0,0.0,0.0,0.0,0.0,0.0,0.0,0.0,0.0,0.0,0.0,0.0,0.0,0.0,0.0,0.0,0.0,0.0,0.0,0.0,0.0,0.0,0.0,0.0,0.0,0.5395,0.5405,0.5429,0.5405,0.5539,0.58,0.58,0.5497,0.4894,0.4913,0.383,0.1802,0.0706,0.0157,0.0,0.0,0.0,0.0,0.0,0.0,0.0,0.0,0.0,0.0,0.0,0.0,0.0,0.0,0.0,0.0,0.0,0.0,0.0,0.0,0.0,0.0,0.0,0.0,0.0,0.0,0.0,0.0,0.0,0.0,0.0,0.0,0.0,0.0,0.0,0.0,0.0,0.0,0.0,0.0,0.0,0.0,0.0,0.0,0.0,0.0,0.0,0.0,0.0,0.0,0.0,0.0,0.0,0.0,0.0,0.0,0.0,0.0,0.0,0.0,0.0,0.0,0.0,0.0,0.0,0.0,0.0,0.0,0.0,0.0,0.0,0.0,0.0,0.0,0.0,0.0,0.0,0.0,0.0,0.0,0.0,0.0,0.0,0.0,0.0,0.0,0.0,0.0,0.0,0.0,0.0,0.0,0.0,0.0,0.0,0.0,0.0,0.0,0.0,0.0,0.0,0.5395,0.5395,0.5457,0.5552,0.5463,0.5539,0.58,0.58,0.5818,0.5801,0.5966,0.4924,0.2813,0.1801,0.0863,0.0,0.0,0.0,0.0,0.0,0.0,0.0,0.0,0.0,0.0,0.0,0.0,0.0,0.0,0.0,0.0,0.0,0.0,0.0,0.0,0.0,0.0,0.0,0.0,0.0,0.0,0.0,0.0,0.0,0.0,0.0,0.0,0.0,0.0,0.0,0.0,0.0,0.0,0.0,0.0,0.0,0.0,0.0,0.0,0.0,0.0,0.0,0.0,0.0,0.0,0.0,0.0,0.0,0.0,0.0,0.0,0.0,0.0,0.0,0.0,0.0,0.0,0.0,0.0,0.0,0.0,0.0,0.0,0.0,0.0,0.0,0.0,0.0,0.0,0.0,0.0,0.0,0.0,0.0,0.0,0.0,0.0,0.0,0.0,0.0,0.0,0.0,0.0,0.0,0.0,0.0,0.0,0.0,0.0,0.0,0.0,0.0,0.0,0.0,0.0,0.5433,0.5515,0.5518,0.5552,0.5589,0.5556,0.563,0.5925,0.5925,0.6003,0.6156,0.5678,0.4608,0.3046,0.2035,0.102,0.0,0.0,0.0,0.0,0.0,0.0,0.0,0.0,0.0,0.0,0.0,0.0,0.0,0.0,0.0,0.0,0.0,0.0,0.0,0.0,0.0,0.0,0.0,0.0,0.0,0.0,0.0,0.0,0.0,0.0,0.0,0.0,0.0,0.0,0.0,0.0,0.0,0.0,0.0,0.0,0.0,0.0,0.0,0.0,0.0,0.0,0.0,0.0,0.0,0.0,0.0,0.0,0.0,0.0,0.0,0.0,0.0,0.0,0.0,0.0,0.0,0.0,0.0,0.0,0.0,0.0,0.0,0.0,0.0,0.0,0.0,0.0,0.0,0.0,0.0,0.0,0.0,0.0,0.0,0.0,0.0,0.0,0.0,0.0,0.0,0.0,0.0,0.0,0.0,0.0,0.0,0.0,0.0,0.0,0.0,0.0,0.0,0.0,0.0,0.5395,0.5446,0.5532,0.5538,0.5586,0.5691,0.5657,0.5769,0.5993,0.5993,0.6108,0.63,0.547,0.4491,0.3435,0.2659,0.1723,0.0706,0.0471,0.0392,0.0353,0.0,0.0,0.0,0.0,0.0,0.0,0.0,0.0,0.0,0.0,0.0,0.0,0.0,0.0,0.0,0.0,0.0,0.0,0.0,0.0,0.0,0.0,0.0,0.0,0.0,0.0,0.0,0.0,0.0,0.0,0.0,0.0,0.0,0.0,0.0,0.0,0.0,0.0,0.0,0.0,0.0,0.0,0.0,0.0,0.0,0.0,0.0,0.0,0.0,0.0,0.0,0.0,0.0,0.0,0.0,0.0,0.0,0.0,0.0,0.0,0.0,0.0,0.0,0.0,0.0,0.0,0.0,0.0,0.0,0.0,0.0,0.0,0.0,0.0,0.0,0.0,0.0,0.0,0.0,0.0,0.0,0.0,0.0,0.0,0.0,0.0,0.0,0.0,0.0,0.0,0.0,0.0,0.0,0.0,0.0,0.5395,0.5399,0.5412,0.5412,0.5572,0.5952,0.5861,0.5867,0.5993,0.5993,0.6108,0.63,0.6219,0.5628,0.4569,0.4491,0.3867,0.2812,0.1879,0.1489,0.1411,0.0392,0.0,0.0,0.0,0.0,0.0,0.0,0.0,0.0,0.0,0.0,0.0,0.0,0.0,0.0,0.0,0.0,0.0,0.0,0.0,0.0,0.0,0.0,0.0,0.0,0.0,0.0,0.0,0.0,0.0,0.0,0.0,0.0,0.0,0.0,0.0,0.0,0.0,0.0,0.0,0.0,0.0,0.0,0.0,0.0,0.0,0.0,0.0,0.0,0.0,0.0,0.0,0.0,0.0,0.0,0.0,0.0,0.0,0.0,0.0,0.0,0.0,0.0,0.0,0.0,0.0,0.0,0.0,0.0,0.0,0.0,0.0,0.0,0.0,0.0,0.0,0.0,0.0,0.0,0.0,0.0,0.0,0.0,0.0,0.0,0.0,0.0,0.0,0.0,0.0,0.0,0.0,0.0,0.0,0.0,0.5395,0.5436,0.5532,0.5539,0.5623,0.5881,0.583,0.5878,0.5993,0.6125,0.6242,0.63,0.63,0.5709,0.4688,0.4688,0.41,0.3085,0.2696,0.219,0.1568,0.1176,0.0588,0.0,0.0,0.0,0.0,0.0,0.0,0.0,0.0,0.0,0.0,0.0,0.0,0.0,0.0,0.0,0.0,0.0,0.0,0.0,0.0,0.0,0.0,0.0,0.0,0.0,0.0,0.0,0.0,0.0,0.0,0.0,0.0,0.0,0.0,0.0,0.0,0.0,0.0,0.0,0.0,0.0,0.0,0.0,0.0,0.0,0.0,0.0,0.0,0.0,0.0,0.0,0.0,0.0,0.0,0.0,0.0,0.0,0.0,0.0,0.0,0.0,0.0,0.0,0.0,0.0,0.0,0.0,0.0,0.0,0.0,0.0,0.0,0.0,0.0,0.0,0.0,0.0,0.0,0.0,0.0,0.0,0.0,0.0,0.0,0.0,0.0,0.0,0.0,0.0,0.0,0.0,0.0,0.5395,0.5395,0.5443,0.5545,0.5552,0.5562,0.5661,0.5752,0.585,0.5922,0.6112,0.6252,0.63,0.63,0.5928,0.5252,0.5212,0.4823,0.4141,0.3761,0.3203,0.2543,0.2192,0.1449,0.0,0.0,0.0,0.0,0.0,0.0,0.0,0.0,0.0,0.0,0.0,0.0,0.0,0.0,0.0,0.0,0.0,0.0,0.0,0.0,0.0,0.0,0.0,0.0,0.0,0.0,0.0,0.0,0.0,0.0,0.0,0.0,0.0,0.0,0.0,0.0,0.0,0.0,0.0,0.0,0.0,0.0,0.0,0.0,0.0,0.0,0.0,0.0,0.0,0.0,0.0,0.0,0.0,0.0,0.0,0.0,0.0,0.0,0.0,0.0,0.0,0.0,0.0,0.0,0.0,0.0,0.0,0.0,0.0,0.0,0.0,0.0,0.0,0.0,0.0,0.0,0.0,0.0,0.0,0.0,0.0,0.0,0.0,0.0,0.0,0.0,0.0,0.0,0.0,0.0,0.0,0.0,0.5395,0.5399,0.5399,0.5399,0.5399,0.5399,0.5399,0.565,0.58,0.5803,0.5922,0.6108,0.6296,0.63,0.6375,0.6504,0.6364,0.6378,0.6421,0.5207,0.4727,0.4608,0.3552,0.2501,0.1607,0.0,0.0,0.0,0.0,0.0,0.0,0.0,0.0,0.0,0.0,0.0,0.0,0.0,0.0,0.0,0.0,0.0,0.0,0.0,0.0,0.0,0.0,0.0,0.0,0.0,0.0,0.0,0.0,0.0,0.0,0.0,0.0,0.0,0.0,0.0,0.0,0.0,0.0,0.0,0.0,0.0,0.0,0.0,0.0,0.0,0.0,0.0,0.0,0.0,0.0,0.0,0.0,0.0,0.0,0.0,0.0,0.0,0.0,0.0,0.0,0.0,0.0,0.0,0.0,0.0,0.0,0.0,0.0,0.0,0.0,0.0,0.0,0.0,0.0,0.0,0.0,0.0,0.0,0.0,0.0,0.0,0.0,0.0,0.0,0.0,0.0,0.0,0.0,0.0,0.0,0.0,0.5562,0.5613,0.5671,0.5671,0.5671,0.5671,0.5671,0.5657,0.5752,0.5925,0.6118,0.6159,0.6101,0.6248,0.6323,0.6361,0.632,0.6323,0.6318,0.596,0.5392,0.4686,0.4373,0.3166,0.1607,0.0,0.0,0.0,0.0,0.0,0.0,0.0,0.0,0.0,0.0,0.0,0.0,0.0,0.0,0.0,0.0,0.0,0.0,0.0,0.0,0.0,0.0,0.0,0.0,0.0,0.0,0.0,0.0,0.0,0.0,0.0,0.0,0.0,0.0,0.0,0.0,0.0,0.0,0.0,0.0,0.0,0.0,0.0,0.0,0.0,0.0,0.0,0.0,0.0,0.0,0.0,0.0,0.0,0.0,0.0,0.0,0.0,0.0,0.0,0.0,0.0,0.0,0.0,0.0,0.0,0.0,0.0,0.0,0.0,0.0,0.0,0.0,0.0,0.0,0.0,0.0,0.0,0.0,0.0,0.0,0.0,0.0,0.0,0.0,0.0,0.0,0.0,0.0,0.0,0.0,0.0,0.0,0.5752,0.58,0.58,0.58,0.58,0.58,0.5718,0.5735,0.5854,0.5949,0.6006,0.5993,0.6125,0.6272,0.6385,0.6385,0.6385,0.6385,0.6385,0.6025,0.5426,0.5426,0.4397,0.2856,0.0,0.0,0.0,0.0,0.0,0.0,0.0,0.0,0.0,0.0,0.0,0.0,0.0,0.0,0.0,0.0,0.0,0.0,0.0,0.0,0.0,0.0,0.0,0.0,0.0,0.0,0.0,0.0,0.0,0.0,0.0,0.0,0.0,0.0,0.0,0.0,0.0,0.0,0.0,0.0,0.0,0.0,0.0,0.0,0.0,0.0,0.0,0.0,0.0,0.0,0.0,0.0,0.0,0.0,0.0,0.0,0.0,0.0,0.0,0.0,0.0,0.0,0.0,0.0,0.0,0.0,0.0,0.0,0.0,0.0,0.0,0.0,0.0,0.0,0.0,0.0,0.0,0.0,0.0,0.0,0.0,0.0,0.0,0.5688,0.0,0.0,0.0,0.0,0.0,0.0,0.0,0.0,0.5833,0.5844,0.5844,0.5844,0.5837,0.5823,0.581,0.5739,0.561,0.561,0.5745,0.5973,0.5986,0.6183,0.6494,0.6494,0.6494,0.6494,0.6494,0.6494,0.6494,0.6494,0.5848,0.4761,0.3672,0.0,0.0,0.0,0.0,0.0,0.0,0.0,0.0,0.0,0.0,0.0,0.0,0.0,0.0,0.0,0.0,0.0,0.0,0.0,0.0,0.0,0.0,0.0,0.0,0.0,0.0,0.0,0.0,0.0,0.0,0.0,0.0,0.0,0.0,0.0,0.0,0.0,0.0,0.0,0.0,0.0,0.0,0.0,0.0,0.0,0.0,0.0,0.0,0.0,0.0,0.0,0.0,0.0,0.0,0.0,0.0,0.0,0.0,0.0,0.0,0.0,0.0,0.0,0.0,0.0,0.0,0.0,0.0,0.0,0.0,0.0,0.0,0.0,0.0,0.0,0.0,0.0,0.0,0.0,0.0,0.0,0.0,0.0,0.0,0.0,0.0,0.0,0.0,0.0,0.0,0.0,0.6095,0.6201,0.6201,0.6201,0.6105,0.5946,0.5864,0.5786,0.5755,0.5755,0.5789,0.585,0.5936,0.6129,0.6344,0.6344,0.6344,0.6344,0.6344,0.6344,0.6344,0.6344,0.5713,0.4646,0.3542,0.2514,0.0,0.0,0.0,0.0,0.0,0.0,0.0,0.0,0.0,0.0,0.0,0.0,0.0,0.0,0.0,0.0,0.0,0.0,0.0,0.0,0.0,0.0,0.0,0.0,0.0,0.0,0.0,0.0,0.0,0.0,0.0,0.0,0.0,0.0,0.0,0.0,0.0,0.0,0.0,0.0,0.0,0.0,0.0,0.0,0.0,0.0,0.0,0.0,0.0,0.0,0.0,0.0,0.0,0.0,0.0,0.0,0.0,0.0,0.0,0.0,0.0,0.0,0.0,0.0,0.0,0.0,0.0,0.0,0.0,0.0,0.0,0.0,0.0,0.0,0.0,0.0,0.0,0.0,0.0,0.0,0.0,0.0,0.0,0.0,0.0,0.0,0.0,0.0,0.0,0.0,0.0,0.63,0.63,0.63,0.6186,0.5996,0.5912,0.5874,0.58,0.58,0.5837,0.5911,0.5956,0.6112,0.6303,0.6371,0.6364,0.6306,0.6371,0.6402,0.6402,0.6402,0.6041,0.5401,0.3812,0.2843,0.2112,0.0549,0.0,0.0,0.0,0.0,0.0,0.0,0.0,0.0674,0.0136,0.0,0.0,0.0,0.0,0.0,0.0,0.0,0.0,0.0,0.0,0.0,0.0,0.0,0.0,0.0,0.0,0.0,0.0,0.0,0.0,0.0,0.0,0.0,0.0,0.0,0.0,0.0,0.0,0.0,0.0,0.0,0.0,0.0,0.0,0.0,0.0,0.0,0.0,0.0,0.0,0.0,0.0,0.0,0.0,0.0,0.0,0.0,0.0,0.0,0.0,0.0,0.0,0.0,0.0,0.0,0.0,0.0,0.0,0.0,0.0,0.0,0.0,0.0,0.0,0.0,0.0,0.0,0.0,0.0,0.0,0.0,0.0,0.0,0.0,0.0,0.0,0.0,0.0,0.0,0.0,0.0,0.63,0.63,0.6186,0.5996,0.5993,0.5932,0.584,0.5813,0.5881,0.5993,0.5993,0.6098,0.6262,0.6381,0.6354,0.6228,0.6344,0.6395,0.6399,0.6386,0.6396,0.6199,0.4294,0.3457,0.3124,0.1214,0.1122,0.1715,0.0818,0.0,0.0,0.0,0.0,0.1656,0.0,0.0,0.0,0.0,0.0,0.0,0.0,0.0,0.0,0.0,0.0,0.0,0.0,0.0,0.0,0.0,0.0,0.0,0.0,0.0,0.0,0.0,0.0,0.0,0.0,0.0,0.0,0.0,0.0,0.0,0.0,0.0,0.0,0.0,0.0,0.0,0.0,0.0,0.0,0.0,0.0,0.0,0.0,0.0,0.0,0.0,0.0,0.0,0.0,0.0,0.0,0.0,0.0,0.0,0.0,0.0,0.0,0.0,0.0,0.0,0.0,0.0,0.0,0.0,0.0,0.0,0.0,0.0,0.0,0.0,0.0,0.0,0.0,0.0,0.0,0.0,0.0,0.0,0.0,0.0,0.0,0.0,0.63,0.63,0.6186,0.5996,0.5993,0.5983,0.5963,0.5867,0.5881,0.5993,0.5993,0.6003,0.6023,0.6043,0.6003,0.5864,0.5881,0.5891,0.5901,0.6034,0.605,0.595,0.4905,0.4504,0.4334,0.3124,0.2767,0.2877,0.2731,0.2884,0.0,0.0,0.0,0.0,0.0,0.0,0.0,0.0,0.0,0.0,0.0,0.0,0.0,0.0,0.0,0.0,0.0,0.0,0.0,0.0,0.0,0.0,0.0,0.0,0.0,0.0,0.0,0.0,0.0,0.0,0.0,0.0,0.0,0.0,0.0,0.0,0.0,0.0,0.0,0.0,0.0,0.0,0.0,0.0,0.0,0.0,0.0,0.0,0.0,0.0,0.0,0.0,0.0,0.0,0.0,0.0,0.0,0.0,0.0,0.0,0.0,0.0,0.0,0.0,0.0,0.0,0.0,0.0,0.0,0.0,0.0,0.0,0.0,0.0,0.0,0.0,0.0,0.0,0.0,0.0,0.0,0.0,0.0,0.0,0.0,0.0,0.63,0.63,0.6269,0.6162,0.6159,0.6159,0.6159,0.6091,0.6091,0.0,0.6159,0.6067,0.5901,0.5901,0.5864,0.58,0.58,0.58,0.5806,0.5874,0.5854,0.5699,0.4902,0.4515,0.429,0.3403,0.3476,0.3904,0.3318,0.3904,0.465,0.332,0.0,0.0,0.0,0.0,0.0,0.0,0.0,0.0,0.0,0.0,0.0,0.0,0.0,0.0,0.0,0.0,0.0,0.0,0.0,0.0,0.0,0.0,0.0,0.0,0.0,0.0,0.0,0.0,0.0,0.0,0.0,0.0,0.0,0.0,0.1084,0.0071,0.0463,0.0495,0.0,0.0,0.0,0.0,0.0,0.0,0.0,0.0,0.0,0.0,0.0,0.0,0.0,0.0,0.0,0.0,0.0,0.0,0.0,0.0,0.0,0.0,0.0,0.0,0.0,0.0,0.0,0.0,0.0,0.0,0.0,0.0,0.0,0.0,0.0,0.0,0.0,0.0,0.0,0.0,0.0,0.0,0.0,0.0,0.0,0.0,0.0,0.63,0.63,0.63,0.63,0.63,0.63,0.6259,0.6242,0.6238,0.6201,0.6023,0.0,0.58,0.5783,0.5745,0.5705,0.5688,0.5688,0.5688,0.5627,0.5487,0.4941,0.4629,0.4443,0.3953,0.4292,0.4879,0.416,0.496,0.5979,0.4237,0.0,0.0,0.0,0.0,0.0,0.0,0.0,0.0,0.0,0.0,0.0,0.0,0.0,0.0,0.0,0.0,0.0,0.0,0.0,0.0,0.0,0.0,0.0,0.0,0.0,0.0,0.0,0.0,0.0,0.0,0.0,0.0,0.0,0.0,0.2118,0.0764,0.1072,0.0995,0.0337,0.0103,0.0,0.0,0.0,0.0,0.0,0.0,0.0,0.0,0.0,0.0,0.0,0.0,0.0,0.0,0.0,0.0,0.0,0.0,0.0,0.0,0.0,0.0,0.0,0.0,0.0,0.0,0.0,0.0,0.0,0.0,0.0,0.0,0.0,0.0,0.0,0.63,0.63,0.63,0.63,0.0,0.0,0.0,0.0,0.0,0.0,0.0,0.0,0.63,0.63,0.63,0.63,0.6112,0.0,0.6,0.5891,0.5817,0.58,0.58,0.5728,0.5593,0.0,0.0,0.0,0.0,0.5412,0.5409,0.5356,0.0,0.0,0.0,0.0,0.5795,0.6045,0.6222,0.623,0.0,0.0,0.0,0.0,0.0,0.0,0.0,0.0,0.0,0.0,0.0,0.0,0.0,0.0,0.0,0.0,0.0,0.0,0.0,0.0,0.0,0.0,0.0,0.0,0.0,0.0,0.0,0.0,0.0,0.0,0.0,0.0,0.0,0.0,0.0,0.2654,0.2551,0.1745,0.1276,0.124,0.0438,0.0,0.0,0.0,0.0,0.0,0.0,0.0,0.0,0.0,0.0,0.0,0.0,0.0,0.0,0.0,0.0,0.0,0.0,0.0,0.0,0.0,0.0,0.0,0.0,0.0,0.0,0.0,0.0,0.0,0.0,0.0,0.0,0.0,0.0,0.0,0.0,0.63,0.63,0.63,0.63,0.0,0.0,0.0,0.0,0.0,0.0,0.0,0.0,0.6388,0.6392,0.63,0.6245,0.6176,0.6176,0.616,0.6136,0.6122,0.5793,0.5637,0.5579,0.546,0.0,0.0,0.0,0.0,0.0,0.0,0.0,0.0,0.0,0.0,0.0,0.0,0.0,0.0,0.0,0.0,0.0,0.0,0.0,0.0,0.0,0.0,0.0,0.0,0.0,0.0,0.0,0.0,0.0,0.0,0.0,0.0,0.0,0.0,0.0,0.0,0.0,0.0,0.0,0.0,0.0,0.0,0.0,0.0,0.0,0.0,0.0,0.0,0.0,0.0,0.2441,0.2631,0.2558,0.2087,0.1177,0.0463,0.0,0.0,0.0,0.0,0.0,0.0,0.0,0.0,0.0,0.0,0.0,0.0,0.0,0.0,0.0,0.0,0.0,0.0,0.0,0.0,0.0,0.0,0.0,0.0,0.0,0.0,0.0,0.0,0.0,0.0,0.0,0.5991,0.0,0.0,0.0,0.0,0.63,0.63,0.63,0.63,0.63,0.6344,0.0,0.0,0.0,0.0,0.0,0.6392,0.6395,0.63,0.63,0.63,0.63,0.63,0.63,0.6282,0.584,0.5661,0.0,0.0,0.0,0.5378,0.0,0.0,0.5067,0.0,0.0,0.0,0.0,0.0,0.0,0.0,0.0,0.0,0.0,0.0,0.0,0.0,0.0,0.0,0.0,0.0,0.0,0.0,0.0,0.0,0.0,0.0,0.0,0.0,0.0,0.0,0.0,0.0,0.0,0.0,0.0,0.0,0.0,0.0,0.0,0.0,0.0,0.0,0.0,0.0,0.0,0.0,0.0,0.0,0.3162,0.3409,0.3115,0.2056,0.1416,0.0755,0.0,0.0,0.0,0.0,0.0,0.0,0.0,0.0,0.0,0.0,0.0,0.0,0.0,0.0,0.0,0.0,0.0,0.0,0.0,0.0,0.0,0.0,0.0,0.0,0.0,0.0,0.0,0.0,0.0,0.0,0.5745,0.5825,0.0,0.0,0.0,0.0,0.0,0.6338,0.63,0.63,0.63,0.6429,0.0,0.0,0.0,0.0,0.0,0.6303,0.6303,0.63,0.63,0.63,0.63,0.63,0.63,0.6286,0.5939,0.58,0.5783,0.0,0.5395,0.5371,0.0,0.5101,0.5351,0.0,0.0,0.0,0.5521,0.5583,0.0,0.0,0.0,0.0,0.0,0.0,0.0,0.0,0.0,0.0,0.0,0.0,0.0,0.0,0.0,0.0,0.0,0.0,0.0,0.0,0.0,0.0,0.0,0.0,0.0,0.0,0.0,0.0,0.0,0.0,0.0,0.0,0.0,0.0,0.0,0.0,0.0,0.0,0.0,0.4874,0.4874,0.4077,0.2861,0.1188,0.1126,0.0761,0.0,0.0,0.0,0.0,0.0,0.0,0.0,0.0039,0.004,0.0041,0.0041,0.0042,0.0044,0.0,0.0,0.0,0.0,0.0,0.0,0.0,0.0,0.0,0.0,0.0,0.0,0.0,0.0,0.0,0.0,0.8624,0.8083,0.0,0.0,0.0,0.7417,0.7403,0.7403,0.7403,0.6718,0.63,0.63,0.6337,0.634,0.6303,0.6436,0.6446,0.6303,0.6402,0.6402,0.63,0.63,0.63,0.63,0.63,0.63,0.0,0.5939,0.58,0.5783,0.5521,0.0,0.0,0.5306,0.5159,0.0,0.0,0.0,0.0,0.0,0.5399,0.5596,0.0,0.5789,0.5993,0.0,0.0,0.0,0.0,0.0,0.0,0.5867,0.0,0.0,0.0,0.0,0.0,0.0,0.0,0.0,0.0,0.0,0.0,0.0,0.0,0.0,0.0,0.0,0.0,0.0,0.0,0.0,0.0,0.0,0.0,0.0,0.0,0.0,0.0,0.4248,0.4617,0.4617,0.4487,0.3615,0.1959,0.2035,0.1442,0.0,0.0,0.0,0.0,0.0,0.0,0.0039,0.0784,0.1141,0.115,0.1148,0.1172,0.1103,0.0304,0.0,0.0,0.0,0.0,0.0,0.0,0.0,0.0,0.0,0.0,0.0,0.0,0.0,0.0,0.0,0.9491,0.897,0.0,0.0,0.0,0.8481,0.8539,0.8558,0.8432,0.7518,0.6907,0.6907,0.6585,0.6361,0.6303,0.6436,0.6446,0.6303,0.6381,0.6381,0.63,0.63,0.63,0.63,0.63,0.63,0.6289,0.0,0.0,0.0,0.0,0.0,0.0,0.5259,0.0,0.0,0.5117,0.5164,0.0,0.0,0.0,0.5657,0.5569,0.5691,0.0,0.0,0.0,0.0,0.0,0.0,0.0,0.0,0.0,0.0,0.0,0.0,0.0,0.0,0.2323,0.0,0.0,0.0,0.0,0.0,0.0,0.0,0.0,0.0,0.0,0.0,0.0,0.0,0.0,0.0,0.0,0.0,0.0,0.0,0.3259,0.3732,0.4153,0.4491,0.4576,0.387,0.2239,0.2313,0.1612,0.0,0.0,0.0211,0.0655,0.0665,0.0872,0.1331,0.1956,0.2231,0.2234,0.2318,0.2077,0.1553,0.0979,0.0437,0.0045,0.0539,0.0763,0.0809,0.1329,0.1487,0.1509,0.0,0.0,0.0,0.0,0.0,0.0,0.0,0.962,0.9135,0.0,0.9312,0.9406,0.9652,0.9779,0.9782,0.9542,0.8479,0.7783,0.7783,0.696,0.6433,0.6306,0.6422,0.6429,0.6303,0.63,0.63,0.63,0.63,0.63,0.63,0.63,0.63,0.6293,0.0,0.0,0.0,0.0,0.0,0.5347,0.5067,0.5199,0.0,0.0,0.5393,0.0,0.5603,0.5647,0.5715,0.5501,0.5593,0.0,0.0,0.0,0.0,0.0,0.6016,0.0,0.0,0.0,0.0,0.0,0.0,0.0,0.3458,0.2961,0.2395,0.0,0.0,0.0,0.0,0.0,0.0,0.0,0.0,0.0,0.0,0.0,0.0,0.0,0.0,0.0,0.0,0.1062,0.1675,0.3065,0.3345,0.3735,0.446,0.4491,0.3843,0.2378,0.2331,0.1643,0.0134,0.0235,0.0726,0.16,0.1709,0.2238,0.3124,0.324,0.3279,0.3285,0.3485,0.2953,0.197,0.197,0.125,0.0314,0.1385,0.1876,0.2152,0.3191,0.3588,0.3622,0.0,0.0,0.0,0.0,0.0,0.0,0.0,1.1188,1.0794,1.0501,1.0674,1.1136,1.2031,1.139,1.09,1.081,0.8976,0.7783,0.7783,0.6898,0.6327,0.6303,0.6327,0.6327,0.63,0.63,0.63,0.63,0.63,0.63,0.63,0.63,0.63,0.6293,0.0,0.0,0.0,0.0,0.0,0.5182,0.5247,0.0,0.5194,0.5291,0.5294,0.5241,0.5405,0.5457,0.5491,0.0,0.5583,0.5674,0.0,0.0,0.0,0.0,0.0,0.0,0.0,0.0,0.0,0.0,0.0,0.0,0.446,0.4028,0.3612,0.0,0.0,0.0,0.0,0.0,0.0,0.0,0.0,0.0,0.0,0.0,0.0,0.0,0.0,0.0,0.0,0.0755,0.148,0.2343,0.3566,0.4322,0.4491,0.4491,0.406,0.313,0.3241,0.2532,0.0909,0.1757,0.1965,0.16,0.2326,0.2795,0.3124,0.3982,0.4375,0.438,0.4447,0.4387,0.4189,0.3225,0.228,0.1475,0.1713,0.2378,0.3261,0.3497,0.367,0.3779,0.0,0.0,0.0,0.0,0.0,0.0,0.0,0.0,1.1837,1.1809,1.2162,1.2541,1.2954,1.2627,1.2336,1.2198,1.0158,0.8832,0.8738,0.7258,0.6375,0.6303,0.63,0.63,0.63,0.63,0.63,0.63,0.63,0.63,0.63,0.63,0.6218,0.6071,0.0,0.0,0.0,0.0,0.5742,0.5457,0.5423,0.0,0.5106,0.5216,0.5247,0.5257,0.5365,0.5395,0.5419,0.5538,0.5637,0.0,0.0,0.5932,0.6023,0.0,0.6245,0.6162,0.0,0.0,0.0,0.6166,0.0,0.0,0.0,0.448,0.4072,0.0,0.0,0.0,0.0,0.0,0.0,0.0,0.0,0.0,0.0,0.0,0.0,0.0,0.0,0.0,0.0,0.0671,0.1396,0.2148,0.3624,0.4491,0.4491,0.4491,0.3964,0.2778,0.2841,0.2338,0.1223,0.1718,0.234,0.3045,0.3481,0.4059,0.4727,0.5237,0.5512,0.5518,0.5567,0.5294,0.4782,0.429,0.384,0.3426,0.3431,0.3856,0.4559,0.5235,0.5555,0.5624,0.0,0.0,0.0,0.0,0.0,0.0,0.0,0.0,1.2412,1.2744,1.322,1.3427,1.3233,1.3367,1.338,1.314,1.1202,0.9893,0.9647,0.7801,0.6559,0.6262,0.631,0.6313,0.6255,0.6282,0.63,0.63,0.63,0.63,0.63,0.63,0.6166,0.0,0.0,0.0,0.0,0.0,0.0,0.5701,0.0,0.5372,0.5221,0.5164,0.527,0.5436,0.5405,0.5395,0.5419,0.5538,0.0,0.5772,0.5827,0.5911,0.0,0.0,0.0,0.0,0.0,0.0,0.0,0.0,0.0,0.5891,0.0,0.0,0.0,0.0,0.0,0.0,0.0,0.0,0.0,0.0,0.0,0.0,0.0,0.0,0.0,0.0,0.0,0.0,0.0,0.109,0.173,0.2174,0.3483,0.4267,0.4294,0.4153,0.3498,0.2233,0.223,0.2022,0.1531,0.1714,0.2717,0.4491,0.4673,0.5288,0.63,0.63,0.63,0.6306,0.6422,0.5922,0.5063,0.5279,0.5401,0.5446,0.5228,0.5403,0.5897,0.7005,0.7453,0.7489,1.0633,1.0821,0.0,0.0,0.0,0.0,0.0,0.0,1.2412,1.2744,1.3046,1.3247,1.3213,1.3032,0.0,1.2844,0.0,0.0,0.9397,0.0,0.7042,0.6061,0.6308,0.6325,0.6023,0.6228,0.63,0.63,0.63,0.63,0.63,0.63,0.0,0.0,0.6101,0.0,0.0,0.0,0.5789,0.0,0.5657,0.5742,0.0,0.547,0.5463,0.5545,0.5443,0.5395,0.5419,0.0,0.5599,0.5661,0.0,0.5922,0.0,0.0,0.0,0.0,0.0,0.0,0.0,0.0,0.6286,0.0,0.0,0.0,0.5781,0.0,0.0,0.0,0.0,0.0,0.0,0.0,0.0,0.0,0.0,0.0,0.0,0.0,0.0,0.0,0.0,0.0,0.2871,0.2259,0.2982,0.3456,0.3511,0.2843,0.2374,0.2216,0.2383,0.2432,0.2379,0.326,0.3954,0.4491,0.529,0.5889,0.63,0.63,0.63,0.6303,0.6317,0.6316,0.6311,0.6327,0.6499,0.6622,0.5709,0.6116,0.721,0.7363,0.7536,0.7767,1.1029,1.1022,0.0,0.0,0.0,0.0,0.0,0.0,1.271,1.2973,1.328,1.3527,0.0,0.0,0.0,0.0,0.0,1.0804,0.0,0.0,0.8242,0.7208,0.7383,0.7395,0.7169,0.6613,0.6606,0.7176,0.6606,0.63,0.63,0.63,0.0,0.0,0.6277,0.0,0.6596,0.0,0.0,0.0,0.0,0.0,0.0,0.6507,0.6184,0.6175,0.5615,0.5395,0.5405,0.0,0.5572,0.0,0.0,0.0,0.0,0.0,0.0,0.0,0.0,0.0,0.0,0.0,0.0,0.0,0.0,0.0,0.6139,0.0,0.0,0.0,0.0,0.0,0.0,0.0,0.0,0.0,0.0,0.0,0.0,0.0,0.0,0.0,0.0,0.0,0.0,0.0,0.0,0.3818,0.3428,0.3037,0.2447,0.158,0.2162,0.254,0.2614,0.3602,0.4506,0.5254,0.5706,0.6047,0.63,0.63,0.63,0.63,0.63,0.6334,0.6395,0.6477,0.66,0.6761,0.6416,0.675,0.7429,0.7472,0.7634,0.7824,1.1335,0.0,0.0,0.0,0.0,0.0,0.0,0.0,0.0,0.0,0.0,0.0,1.3941,1.3821,0.0,0.0,1.2055,1.1211,0.0,0.0,0.9289,0.0,0.0,0.0,0.0,0.0,0.0,0.0,0.0,0.0,0.0,0.0,0.0,0.0,0.0,0.6844,0.7525,0.0,0.0,0.7271,0.6554,0.7201,0.8448,0.7232,0.6733,0.6593,0.5719,0.5557,0.5727,0.551,0.56,0.0,0.5948,0.0,0.0,0.0,0.0,0.0,0.6837,0.0,0.0,0.0,0.0,0.0,0.0,0.0,0.0,0.0,0.0,0.0,0.0,0.0,0.0,0.0,0.0,0.0,0.0,0.0,0.0,0.0,0.0,0.0,0.0,0.0,0.0,0.3345,0.3873,0.3959,0.34,0.2954,0.2209,0.1144,0.1785,0.2337,0.2691,0.3698,0.4737,0.5803,0.5919,0.6112,0.63,0.63,0.63,0.63,0.63,0.63,0.6313,0.6501,0.66,0.6719,0.6869,0.7146,0.7436,0.7543,0.7716,0.7889,1.1335,1.165,0.0,0.0,0.0,0.0,0.0,0.0,0.0,0.0,0.0,0.0,0.0,0.0,0.0,0.0,0.0,1.0981,1.0008,0.0,0.9854,0.0,0.0,0.9036,0.0,0.0,0.0,0.0,0.0,0.0,0.0,0.0,0.0,0.0,0.0,0.7919,0.8726,0.8578,0.7887,0.692,0.6886,0.7348,0.7947,0.0,0.6814,0.6593,0.5719,0.0,0.0,0.5836,0.5589,0.0,0.0,0.0,0.0,0.0,0.0,0.0,0.0,0.0,0.0,0.6535,0.0,0.0,0.0,0.0,0.6296,0.0,0.0,0.0,0.0,0.0,0.0,0.0,0.0,0.0,0.0,0.0,0.0,0.0,0.0,0.0,0.0,0.0,0.0,0.3456,0.3428,0.34,0.3314,0.1952,0.1135,0.1114,0.1242,0.1778,0.2691,0.3698,0.4737,0.5803,0.5919,0.6112,0.63,0.63,0.63,0.63,0.63,0.63,0.6323,0.6573,0.6695,0.6729,0.6977,0.7231,0.7436,0.7543,0.7784,0.7982,0.0,0.0,0.0,0.0,0.0,0.0,0.0,1.2878,0.0,0.0,0.0,0.0,0.0,0.0,1.2583,0.0,0.0,1.1411,1.068,1.1537,0.0,0.0,0.0,1.0849,0.0,0.0,0.0,0.0,0.0,0.0,0.0,0.0,0.0,0.0,0.0,0.898,0.0,0.0,0.0,0.0,0.0,0.9081,0.8202,0.0,0.0,0.7535,0.7214,0.6953,0.0,0.7065,0.7243,0.7398,0.7834,0.806,0.8286,0.8834,0.9045,0.0,0.0,0.0,0.7581,0.6649,0.0,0.0,0.0,0.0,0.0,0.0,0.0,0.0,0.0,0.0,0.0,0.0,0.0,0.0,0.0,0.0,0.0,0.0,0.0,0.0,0.0,0.0,0.0,0.4153,0.4125,0.3901,0.0,0.2989,0.2253,0.115,0.2397,0.3009,0.2849,0.4429,0.5476,0.5919,0.6108,0.6248,0.63,0.63,0.63,0.63,0.63,0.63,0.6317,0.6511,0.661,0.6719,0.6879,0.7153,0.7436,0.7543,0.7723,0.7902,1.1906,0.0,0.0,0.0,0.0,0.0,0.0,0.0,0.0,0.0,1.3273,0.0,1.3213,0.0,1.2549,0.0,1.177,1.155,1.1169,1.1993,0.0,1.0616,1.1592,0.0,0.0,0.0,0.0,0.0,0.0,0.8458,0.0,0.0,0.0,0.0,0.0,0.0,0.0,0.0,0.9588,0.0,0.0,0.9766,0.0,0.0,0.8792,0.8565,0.0,0.7832,0.7665,0.7929,0.8058,0.8228,0.8707,0.897,0.9243,0.9888,1.0166,0.9969,0.8788,0.8404,0.0,0.6763,0.6368,0.0,0.63,0.0,0.0,0.0,0.0,0.0,0.0,0.0,0.0,0.0,0.0,0.0,0.0,0.0,0.0,0.0,0.0,0.0,0.0,0.0,0.4549,0.4494,0.4491,0.4294,0.0,0.0,0.2615,0.1535,0.2811,0.3329,0.2894,0.4829,0.5878,0.5993,0.6186,0.63,0.63,0.63,0.63,0.63,0.63,0.6327,0.6385,0.6532,0.6644,0.6797,0.6903,0.7122,0.7309,0.7461,0.7641,0.7831,0.0,0.0,0.0,0.0,1.2589,0.0,0.0,0.0,1.3307,0.0,1.3367,1.318,1.3166,1.2924,1.2509,1.1933,1.1603,0.0,1.1375,1.1724,0.0,0.0,1.2004,1.1537,0.9863,0.0,0.0,0.0,0.0,0.0,0.0,0.0,0.0,0.0,0.982,0.0,1.1389,1.1389,1.0616,0.937,0.9382,0.9542,0.9844,1.0399,1.027,0.9638,0.8549,0.8657,0.9172,0.8398,0.8139,0.8343,0.9452,0.9779,1.0095,1.1506,1.1926,1.1549,0.9766,0.9296,0.8808,0.6795,0.0,0.0,0.0,0.0,0.6296,0.0,0.0,0.0,0.0,0.0,0.0,0.0,0.0,0.0,0.0,0.0,0.0,0.0,0.0,0.0,0.0,0.4638,0.4658,0.4511,0.4501,0.0,0.0,0.0,0.2327,0.2276,0.2631,0.2878,0.2969,0.4876,0.5888,0.6003,0.6228,0.63,0.63,0.63,0.63,0.63,0.6306,0.6385,0.6525,0.6647,0.6797,0.69,0.7041,0.7102,0.7125,0.7326,0.7563,0.7831,1.2191,1.2251,1.2305,0.0,1.2589,1.2891,0.0,0.0,0.0,0.0,1.3053,1.2824,1.2559,1.2271,1.198,1.157,1.167,0.0,0.0,0.0,0.0,1.1422,1.2234,1.2346,1.1642,1.2326,0.0,1.066,0.0,0.0,0.8199,0.0,0.0,0.0,0.0,0.0,1.1389,1.1389,1.0956,1.0289,1.0464,1.0717,0.0,0.0,1.0923,1.0897,1.0408,0.9823,0.94,1.0015,1.0241,1.0324,1.0812,1.1119,1.1464,1.2048,1.2191,1.1758,0.9847,0.9296,0.8808,0.6795,0.63,0.63,0.0,0.0,0.0,0.0,0.0,0.0,0.0,0.0,0.0,0.0,0.0,0.0,0.0,0.0,0.0,0.0,0.0,0.0,0.4816,0.4735,0.4674,0.4662,0.4662,0.0,0.0,0.0,0.0,0.3421,0.4331,0.462,0.4089,0.5341,0.6047,0.6242,0.6279,0.63,0.63,0.63,0.63,0.6306,0.6412,0.6477,0.6532,0.6759,0.6852,0.69,0.7041,0.721,0.7329,0.7485,0.7655,0.7831,1.2305,0.0,0.0,1.323,0.0,0.0,1.3097,0.0,0.0,1.3227,1.2978,0.0,1.2549,1.2238,1.1937,1.1643,1.1657,0.0,0.0,0.0,0.0,1.1782,1.2201,1.2261,1.1924,1.2248,0.0,1.1496,0.0,0.0,0.9135,0.0,0.0,0.0,0.0,1.164,0.0,1.1449,1.1236,1.0955,1.1116,0.0,0.0,1.1296,1.1283,1.1389,1.139,1.0757,0.9989,1.0725,1.0995,1.1042,1.1336,1.163,1.196,1.2218,1.1996,1.1316,0.9712,0.8998,0.8275,0.6683,0.63,0.63,0.63,0.63,0.6255,0.0,0.0,0.0,0.0,0.0,0.0,0.0,0.0,0.0,0.0,0.0,0.0,0.0,0.0,0.0,0.5121,0.4918,0.4792,0.4792,0.0,0.0,0.0,0.0,0.0,0.3813,0.4662,0.493,0.4491,0.5566,0.6173,0.63,0.63,0.63,0.63,0.63,0.63,0.6306,0.645,0.6552,0.659,0.6831,0.6923,0.6987,0.7065,0.7234,0.7436,0.7543,0.7689,0.7831,0.0,0.0,0.0,0.0,0.0,0.0,0.0,1.3227,0.0,1.3186,0.0,1.2723,1.2723,1.2458,1.2184,1.1933,0.0,1.1744,1.2218,1.1804,1.1735,1.2278,1.2024,1.1764,1.1509,1.1757,0.0,0.0,0.0,0.0,0.0,0.0,0.0,0.0,0.0,0.0,0.0,1.155,1.1389,0.0,1.147,1.1637,1.1873,1.1583,1.1483,1.1482,1.1812,1.1363,1.07,1.0995,1.1109,1.1156,1.1403,1.169,1.2013,1.2225,1.1583,1.0596,0.9561,0.858,0.7553,0.6567,0.63,0.6293,0.6276,0.6269,0.6218,0.6006,0.5936,0.5895,0.0,0.0,0.0,0.0,0.0,0.0,0.0,0.0,0.0,0.0,0.0,0.0,0.0,0.0,0.0,0.0,0.0,0.0,0.0,0.0,0.0,0.3995,0.4423,0.0,0.4698,0.0,0.631,0.6327,0.631,0.63,0.63,0.63,0.631,0.6334,0.648,0.6586,0.6742,0.6852,0.6987,0.7095,0.7095,0.7248,0.7463,0.755,0.7702,0.7862,0.0,0.0,0.0,0.0,0.0,1.3635,1.2916,1.3053,1.3173,1.2904,1.2603,1.2378,1.2378,1.2331,1.2184,1.1933,1.2044,0.0,0.0,0.0,0.0,1.2298,1.2024,1.1993,1.2144,1.1964,1.2141,0.0,0.0,0.0,0.0,0.0,0.0,0.0,0.0,0.0,1.1886,1.155,0.0,1.1415,1.169,1.1859,1.1899,1.1846,1.1826,1.1832,1.1886,1.1497,1.0995,1.1571,1.1752,1.1759,1.1812,1.1991,1.2238,1.2285,1.1583,1.0596,0.9561,0.858,0.7553,0.6567,0.63,0.6265,0.6098,0.6071,0.5993,0.5722,0.5667,0.565,0.5599,0.0,0.0,0.0,0.0,0.0,0.0,0.0,0.0,0.0,0.0,0.0,0.0,0.0,0.0,0.0,0.0,0.0,0.0,0.0,0.0,0.0,0.5421,0.0,0.0,0.0,0.6358,0.6474,0.6358,0.63,0.63,0.63,0.6364,0.6484,0.6597,0.6749,0.6859,0.7001,0.7071,0.7095,0.7095,0.7312,0.7563,0.759,0.777,0.7955,0.0,0.0,0.0,0.0,0.0,0.0,0.0,1.3452,0.0,1.2824,1.2656,1.2569,1.2569,1.2392,1.2245,1.2104,1.2084,1.2084,1.2091,1.2084,1.2144,1.2291,1.2171,0.0,1.2298,1.1864,1.1931,1.2556,0.0,0.0,0.0,0.0,0.0,0.0,0.0,1.2225,0.0,0.0,0.0,1.1891,1.2037,1.2091,1.2091,1.2091,1.2033,1.1926,1.2074,1.1717,1.1283,1.1759,1.1906,1.1906,1.1906,1.2,1.1998,1.1563,1.0574,0.9446,0.8505,0.7596,0.6738,0.6253,0.6242,0.6259,0.6027,0.5993,0.5909,0.565,0.5589,0.5566,0.5521,0.5538,0.0,0.0,0.0,0.0,0.0,0.0,0.0,0.0,0.0,0.0,0.0,0.0,0.0,0.0,0.0,0.0,0.0,0.0,0.0,0.0,0.0,0.0,0.0,0.0,0.0,0.6402,0.6334,0.63,0.6303,0.6375,0.6446,0.6525,0.6719,0.6861,0.6896,0.7038,0.7095,0.7102,0.7227,0.7397,0.7607,0.7682,0.7848,0.7988,0.0,1.592,0.0,0.0,1.5825,0.0,1.4548,1.3682,1.2999,1.273,1.269,1.269,1.269,1.2445,1.2305,1.2305,1.2091,1.2058,1.2285,1.2091,1.2064,1.2291,1.2305,1.2305,1.2305,1.179,1.1804,0.0,0.0,0.0,0.0,0.0,0.0,0.0,0.0,0.0,0.0,0.0,1.2305,1.2305,1.2305,1.2305,1.2291,1.2231,1.2064,1.1926,1.2058,1.1782,1.1429,1.1697,1.177,1.1832,1.1924,1.1913,1.1678,1.1053,0.9912,0.8739,0.8108,0.7243,0.6537,0.657,0.6652,0.6682,0.6515,0.6331,0.6107,0.5866,0.5675,0.5539,0.5419,0.5494,0.0,0.0,0.0,0.0,0.0,0.0,0.0,0.0,0.0,0.0,0.0,0.0,0.0,0.0,0.0,0.0,0.5436,0.5443,0.0,0.0,0.0,0.5986,0.5901,0.0,0.6426,0.0,0.6313,0.63,0.6306,0.6446,0.6511,0.6528,0.6797,0.6903,0.694,0.7051,0.7095,0.7112,0.7312,0.7465,0.7617,0.7756,0.7909,0.7988,0.0,0.0,0.0,0.0,0.0,0.0,0.0,1.305,1.2717,1.2385,1.2345,1.2345,1.2345,1.2318,1.2305,1.2305,1.2278,1.2271,1.2305,1.2278,1.2271,1.2305,1.2305,1.2305,1.2305,1.2027,1.2154,0.0,0.0,0.0,0.0,0.0,0.0,0.0,0.0,0.0,0.0,1.2305,1.2305,1.2305,1.2305,1.2305,1.2271,1.2047,1.1933,1.1873,1.1597,1.1435,1.1395,1.1422,1.147,1.1529,1.2091,1.1897,1.1482,1.172,1.0831,0.9822,1.0052,0.9178,0.8234,0.8493,0.838,0.8167,0.8029,0.737,0.6762,0.6626,0.5969,0.5412,0.5399,0.5405,0.5498,0.0,0.0,0.0,0.0,0.0,0.0,0.0,0.0,0.0,0.0,0.0,0.0,0.0,0.0,0.544,0.5559,0.5569,0.5627,0.5755,0.0,0.6091,0.6255,0.6296,0.6378,0.6491,0.6361,0.63,0.6306,0.6446,0.6511,0.6528,0.6797,0.6957,0.7078,0.7092,0.7095,0.7112,0.7312,0.7465,0.7617,0.7756,0.7909,0.7988,0.0,0.0,0.0,0.0,0.0,0.0,0.0,1.2864,1.2677,1.2345,1.2305,1.2305,1.2305,1.2305,1.2305,1.2305,1.2305,1.2305,1.2305,1.2305,1.2305,1.2305,1.2305,1.2305,1.2305,1.2053,1.2107,0.0,0.0,0.0,0.0,0.0,0.0,0.0,0.0,1.2412,1.2305,1.2305,1.2305,1.2305,1.2305,1.2305,1.2271,1.202,1.1906,1.1866,1.153,1.1316,1.1189,1.1335,1.1389,1.1429,1.1668,1.1496,1.1082,1.0691,1.0083,0.9487,0.9256,0.8764,0.8339,0.8624,0.8543,0.8349,0.8244,0.7923,0.7625,0.7512,0.7214,0.6957,0.6957,0.6589,0.6304,0.0,0.0,0.0,0.0,0.0,0.0,0.0,0.0,0.0,0.0,0.0,0.0,0.0,0.0,0.0,0.5484,0.5542,0.5616,0.5674,0.0,0.6023,0.6122,0.6252,0.6327,0.6385,0.6327,0.6344,0.6433,0.6542,0.6705,0.6881,0.696,0.7045,0.7095,0.7095,0.7095,0.7122,0.7414,0.7546,0.7628,0.7862,0.7938,0.7988,1.5584,0.0,1.5003,0.0,1.4081,1.334,1.2864,1.271,1.2576,1.2325,1.2305,1.2305,1.2305,1.2305,1.2305,1.2305,1.2305,1.2305,1.2305,1.2305,1.2305,1.2305,1.2305,0.0,1.2305,1.2098,1.2098,1.2305,1.2221,0.0,0.0,0.0,0.0,0.0,1.2392,1.2385,1.2305,1.2305,1.2305,1.2305,1.2305,1.2305,1.2265,1.1884,1.1826,1.1846,1.1336,1.1096,1.1009,1.1129,1.1229,1.1295,1.1503,1.1296,1.0923,1.0482,1.0132,0.9847,0.9519,0.9242,0.9113,0.9497,0.9353,0.9153,0.9128,0.8942,0.8657,0.8317,0.822,0.822,0.822,0.776,0.7247,0.6928,0.0,0.0,0.0,0.0,0.0,0.0,0.0,0.5463,0.0,0.0,0.0,0.0,0.0,0.0,0.5586,0.5616,0.0,0.0,0.0,0.0,0.0,0.6245,0.63,0.63,0.63,0.6375,0.6518,0.663,0.6861,0.7095,0.7051,0.7058,0.7095,0.7095,0.7095,0.7125,0.7478,0.76,0.7634,0.788,0.7988,0.7988,1.5371,1.4564,1.3606,1.36,1.3407,1.3113,1.2831,1.2536,1.2305,1.2305,1.2305,1.2305,1.2305,1.2305,1.2305,1.2305,1.2305,1.2305,1.2305,1.2305,1.2305,0.0,0.0,1.2305,1.2305,1.2298,1.2298,1.2305,0.0,0.0,1.2311,0.0,1.2623,1.2311,1.265,1.2616,1.2305,1.2305,1.2305,1.2305,1.2305,1.2305,1.2238,1.1615,1.1617,1.1792,1.0914,1.0787,1.0949,1.07,1.0794,1.1096,1.1718,1.1463,1.1109,1.169,1.165,1.1442,1.1777,1.1436,1.1096,1.1717,1.143,1.1036,1.1288,1.0689,0.9846,0.8959,0.8784,0.8784,0.8784,0.8569,0.8152,0.7421,0.0,0.0,0.0,0.0,0.0,0.0,0.5589,0.5586,0.5586,0.0,0.0,0.0,0.0,0.0,0.0,0.0,0.0,0.6282,0.6293,0.0,0.6296,0.6296,0.63,0.63,0.63,0.6375,0.6518,0.663,0.6861,0.7088,0.695,0.6967,0.7095,0.7095,0.7095,0.7125,0.7478,0.76,0.7634,0.788,0.7988,0.7988,1.3917,1.3764,1.3473,1.3106,1.2991,1.2831,1.2529,1.2365,1.2305,1.2305,1.2305,1.2305,1.2305,1.2124,1.2084,0.0,1.2124,1.2091,0.0,1.2305,1.2305,1.2305,1.2111,1.204,1.204,1.1804,1.1804,1.204,0.0,0.0,0.0,1.2398,1.2392,1.2305,1.2405,1.2392,1.2305,1.2305,1.2305,1.2305,1.2305,1.2305,1.2258,1.187,1.1663,1.153,1.1249,1.1082,1.1009,1.1116,1.1209,1.1356,1.1785,1.1603,1.1323,1.151,1.1462,1.1455,1.1826,1.1583,1.1383,1.177,1.1577,1.1316,1.1369,1.0654,0.9881,0.9597,0.9562,0.9719,1.0202,0.973,0.8941,0.7951,0.7214,0.0,0.0,0.0,0.0,0.0,0.559,0.5511,0.0,0.5589,0.0,0.0,0.0,0.0,0.0,0.0,0.0,0.0,0.6245,0.0,0.63,0.63,0.6351,0.6446,0.6446,0.6536,0.679,0.6893,0.7007,0.7095,0.7048,0.7055,0.7095,0.7095,0.7204,0.7319,0.7519,0.7658,0.7767,0.7917,0.7988,0.7988,1.3327,1.3387,1.332,1.3025,1.2864,1.2683,1.2345,1.2305,1.2305,1.2305,1.2305,1.2305,1.2305,1.2044,0.0,1.2278,1.2138,1.2104,1.2291,1.2204,1.2184,1.2298,1.2024,1.1953,1.2067,0.0,0.0,1.2067,1.196,1.2,1.2138,1.2138,1.2198,1.2305,1.2305,1.2305,1.2305,1.2305,1.2305,1.2305,1.2305,1.2305,1.2271,1.202,1.1824,1.1724,1.1469,1.1383,1.1329,1.1403,1.1462,1.1623,1.1846,1.1817,1.1757,1.1757,1.1757,1.1797,1.1977,1.1817,1.1663,1.1957,1.181,1.1623,1.173,1.1243,1.0812,1.0812,1.0812,1.0939,1.1413,1.0657,0.9713,0.892,0.7702,0.6658,0.6105,0.0,0.0,0.0,0.0,0.0,0.0,0.5965,0.0,0.0,0.0,0.0,0.0,0.0,0.0,0.6115,0.6248,0.0,0.63,0.6354,0.6422,0.6515,0.6586,0.6746,0.6889,0.7031,0.7095,0.7095,0.7095,0.7095,0.7095,0.7095,0.7231,0.7433,0.7539,0.7685,0.7831,0.7934,0.7988,0.7988,1.348,1.334,0.0,0.0,1.2945,0.0,1.2345,1.2305,1.2305,1.2305,1.2305,1.2291,1.2271,1.2067,1.2007,1.2218,0.0,0.0,0.0,1.2074,1.206,1.2291,1.2004,1.1964,1.2238,1.2225,1.2231,1.2271,1.2004,1.1913,1.1933,1.1913,1.2024,1.2305,1.2305,1.2305,1.2305,1.2305,1.2305,1.2305,1.2305,1.2305,1.2271,1.2004,1.2051,1.2204,1.1677,1.165,1.1866,1.157,1.167,1.1933,1.1933,1.2084,1.2305,1.2305,1.2305,1.2305,1.2305,1.2104,1.2,1.2231,1.2098,1.1971,1.2164,1.2187,1.2187,1.2187,1.2187,1.2218,1.2278,1.1271,1.0319,1.0118,0.8428,0.7072,0.6738,0.0,0.0,0.0,0.0,0.0,0.0,0.6578,0.5932,0.0,0.0,0.0,0.0,0.0,0.6122,0.6296,0.631,0.6313,0.6313,0.6457,0.6535,0.6549,0.6803,0.69,0.6906,0.7038,0.7095,0.7095,0.7095,0.7095,0.7095,0.7095,0.7238,0.7446,0.7543,0.7692,0.7845,0.7938,0.7988,0.7988,0.0,0.0,1.3066,1.2599,1.2458,1.2385,1.2311,1.2305,1.2305,1.2305,1.2305,1.2218,1.2033,1.1946,1.1804,1.1615,1.1844,1.2007,1.2007,1.2118,1.2231,1.2298,1.1804,1.1563,1.1595,1.1416,1.1523,1.2007,1.194,1.202,1.2191,1.2013,1.2024,1.2305,1.2305,1.2305,1.2305,1.2305,1.2305,1.2305,1.2305,1.2305,1.2291,1.2225,1.2104,1.202,1.2064,1.1997,1.1926,1.2044,1.2144,1.2204,1.2204,1.2245,1.2305,1.2305,1.2305,1.2305,1.2305,1.2251,1.2218,1.2285,1.2251,1.2028,1.1304,1.1168,1.1168,1.1168,1.1168,1.1329,1.1903,1.1109,1.026,0.9848,0.8751,0.7638,0.6819,0.7124,0.0,0.0,0.6915,0.6855,0.7461,0.6578,0.5976,0.0,0.0,0.0,0.0,0.6308,0.6375,0.6303,0.6405,0.6463,0.6463,0.6569,0.6705,0.6824,0.696,0.7048,0.7048,0.7082,0.7095,0.7095,0.7095,0.7095,0.7095,0.7095,0.7302,0.755,0.7587,0.7756,0.7941,0.7975,0.7988,0.7988,1.3202,1.3093,1.306,1.263,1.2392,1.2305,1.2305,1.2305,1.2305,1.2305,1.2184,1.2044,1.1926,1.175,1.155,1.1249,1.1496,1.1724,1.1899,1.1891,1.2017,1.2291,1.187,1.169,1.1824,1.167,1.1683,1.1906,1.1906,1.1986,1.2098,1.198,1.2134,1.2536,1.2365,1.2378,1.2529,1.2365,1.2305,1.2305,1.2305,1.2305,1.2305,1.2305,1.2204,1.2091,1.2245,1.2204,1.2091,1.2245,1.2305,1.2305,1.2305,1.2305,1.2305,1.2305,1.2305,1.2305,1.2305,1.2305,1.2305,1.2305,1.2305,1.215,1.162,1.1502,1.1502,1.1502,1.1502,1.1612,1.2025,1.1147,1.042,1.0477,0.887,0.7716,0.8029,0.7783,0.0,0.872,0.8281,0.8196,0.8953,0.7697,0.6806,0.6806,0.0,0.0,0.6399,0.6538,0.6549,0.6402,0.6542,0.6576,0.6576,0.6729,0.6878,0.698,0.7058,0.7095,0.7095,0.7095,0.7095,0.7095,0.7095,0.7136,0.7244,0.7244,0.7424,0.7695,0.7695,0.7838,0.7988,0.7988,0.7988,0.7988,1.3599,1.3393,1.3166,1.2844,1.2576,1.2351,1.2311,1.2265,1.2238,1.2238,1.1984,1.1819,1.1779,1.151,1.1243,1.0955,1.1189,1.1483,1.1784,1.161,1.1737,1.2278,1.2024,1.202,1.2231,1.2238,1.2138,1.1973,1.1926,1.1926,1.1973,1.1926,1.2194,1.2703,1.2412,1.2445,1.2697,1.2412,1.2305,1.2305,1.2305,1.2305,1.2305,1.2305,1.2305,1.2305,1.2305,1.2305,1.2305,1.2305,1.2305,1.2305,1.2305,1.2305,1.2305,1.2305,1.2305,1.2305,1.2305,1.2305,1.2305,1.2305,1.2305,1.2305,1.2305,1.2305,1.2305,1.2305,1.2305,1.2305,1.2305,1.1247,1.0622,1.1357,0.9104,0.7865,0.9534,0.0,0.8428,1.036,0.9835,0.9704,1.0685,0.9097,0.7983,0.7859,0.7143,0.6678,0.0,0.6651,0.6675,0.6546,0.6668,0.6746,0.6766,0.6852,0.6977,0.7095,0.7095,0.7095,0.7095,0.7095,0.7109,0.7132,0.7132,0.7261,0.7453,0.7453,0.7567,0.7811,0.7811,0.7906,0.7988,0.7988,0.7988,0.7988,1.521,1.4202,1.34,1.2884,1.275,1.263,1.2338,1.2091,1.1973,1.1973,1.1677,1.1403,1.1156,1.1089,1.0942,1.0687,1.0928,1.1182,1.1476,1.169,1.1986,1.2285,1.2024,1.1926,1.1973,1.1973,1.2037,1.2231,1.2027,1.2033,1.2231,1.202,1.2087,1.2371,1.2325,1.2325,1.2365,1.2318,1.2305,1.2305,1.2305,1.2305,1.2305,1.2305,1.2305,1.2305,1.2305,1.2305,1.2305,1.2305,1.2305,1.2305,1.2305,1.2305,1.2305,1.2305,1.2305,1.2305,1.2305,1.2305,1.2305,1.2305,1.2305,1.2305,1.2305,1.2305,1.2305,1.2305,1.2305,1.2305,1.2305,1.1247,1.0719,1.1662,1.0293,0.9304,0.9943,0.0,1.0454,1.0575,1.0377,1.0356,1.076,0.9744,0.876,0.8033,0.7834,0.744,0.6699,0.681,0.6839,0.6858,0.6839,0.6906,0.7028,0.7051,0.7075,0.7095,0.7095,0.7095,0.7095,0.7095,0.721,0.7336,0.7336,0.7421,0.7563,0.7563,0.7662,0.7811,0.7811,0.7906,0.7988,0.7988,0.7988,0.7988,1.5438,1.4259,1.3267,1.2864,1.265,1.2496,1.2325,1.2615,1.2705,1.2177,1.2158,1.1947,1.1303,1.0949,1.0734,1.06,1.0861,1.1116,1.1375,1.1703,1.2033,1.2285,1.2171,1.2104,1.2104,1.2104,1.2171,1.2305,1.2171,1.2171,1.2298,1.2164,1.2295,1.2569,1.2371,1.2392,1.2569,1.2371,1.2305,1.2305,1.2305,1.2305,1.2305,1.2305,1.2305,1.2305,1.2305,1.2305,1.2305,1.2305,1.2305,1.2305,1.2305,1.2305,1.2305,1.2305,1.2305,1.2305,1.2305,1.2305,1.2305,1.2305,1.2305,1.2305,1.2305,1.2305,1.2305,1.2305,1.2305,1.2305,1.2305,1.1689,1.1352,1.1828,1.0729,0.0,0.0,1.0918,1.0988,1.1465,1.1467,1.1537,1.1853,1.093,0.9953,0.9094,0.8611,0.7936,0.6859,0.692,0.7001,0.7001,0.7001,0.7031,0.7095,0.7095,0.7095,0.7095,0.7095,0.7095,0.7098,0.7227,0.7258,0.7255,0.7421,0.7536,0.7604,0.7682,0.7801,0.7884,0.7884,0.7928,0.7988,0.7988,0.7988,0.7988,1.5819,1.4605,1.3562,1.3278,1.2931,1.2711,1.2636,1.3114,1.32,1.2496,1.2542,1.241,1.1845,1.1235,1.0985,1.1277,1.1346,1.1518,1.1813,1.1945,1.2064,1.2291,1.2305,1.2305,1.2305,1.2305,1.2305,1.2305,1.2305,1.2305,1.2305,1.2305,1.2425,1.267,1.2405,1.2425,1.2663,1.2398,1.2305,1.2305,1.2305,1.2305,1.2305,1.2305,1.2305,1.2305,1.2305,1.2305,1.2305,1.2305,1.2305,1.2305,1.2305,1.2305,1.2305,1.2305,1.2305,1.2318,1.2385,1.2405,1.2385,1.2318,1.2351,1.2385,1.2318,1.2305,1.2305,1.2305,1.2305,1.2305,1.2305,1.2064,1.1926,1.1993,0.0,0.0,0.0,1.1367,1.1244,1.2191,1.2365,1.2529,1.2764,1.1868,1.0903,1.0045,0.9146,0.8122,0.7016,0.7038,0.7095,0.7095,0.7095,0.7095,0.7095,0.7095,0.7095,0.7095,0.7095,0.7115,0.7197,0.7316,0.7343,0.7264,0.7546,0.7668,0.7709,0.7821,0.7884,0.7988,0.7988,0.7988,0.7988,0.7988,0.7988,0.7988,1.7139,1.5971,1.4844,1.4513,1.4228,1.3955,1.3645,1.3132,1.2754,1.2686,1.2201,1.2158,1.2807,1.2174,1.2173,1.3282,1.2904,1.275,1.3137,1.2604,1.2278,1.2305,1.2305,1.2305,1.2305,1.2305,1.2305,1.2305,1.2305,1.2305,1.2305,1.2305,1.2311,1.2338,1.2311,1.2311,1.2331,1.2311,1.2305,1.2305,1.2305,1.2305,1.2305,1.2305,1.2305,1.2305,1.2305,1.2305,1.2305,1.2305,1.2305,1.2305,1.2305,1.2305,1.2305,1.2305,1.2305,1.2365,1.2677,1.275,1.2683,1.2371,1.2549,1.2683,1.2365,1.2305,1.2305,1.2305,1.2305,1.2305,1.2305,1.2064,1.1993,1.2225,0.0,0.0,1.2191,1.2001,1.1941,1.2271,1.2583,1.2757,1.2784,1.1996,1.1116,1.0242,0.9105,0.8049,0.7115,0.7092,0.7095,0.7095,0.7095,0.7095,0.7095,0.7095,0.7095,0.7095,0.7095,0.7214,0.7356,0.7412,0.7512,0.7763,0.7787,0.7875,0.7958,0.7968,0.7978,0.7988,0.7988,0.7988,0.7988,0.7988,0.7988,0.7988,1.835,1.6973,1.5738,1.5611,1.5165,1.4788,1.4653,1.4924,1.4813,1.3944,1.3974,1.3895,1.3301,1.2825,1.2841,1.3536,1.3041,1.2882,1.3272,1.2675,1.2305,1.2305,1.2305,1.2305,1.2305,1.2305,1.2305,1.2305,1.2305,1.2305,1.2305,1.2305,1.2305,1.2305,1.2305,1.2305,1.2305,1.2305,1.2305,1.2305,1.2305,1.2305,1.2305,1.2305,1.2305,1.2305,1.2305,1.2305,1.2305,1.2305,1.2305,1.2305,1.2305,1.2425,1.269,1.3026,1.2872,1.2683,1.2953,1.2759,1.2445,1.2331,1.2385,1.2445,1.2325,1.2305,1.2305,1.2305,1.2305,1.2305,1.2305,1.2211,1.2171,1.2285,0.0,1.2362,1.2583,1.269,1.2746,1.2852,1.2966,1.3106,1.3287,1.2991,1.217,1.0554,1.0019,0.8979,0.718,0.7095,0.7095,0.7095,0.7095,0.7095,0.7095,0.7095,0.7095,0.7098,0.7238,0.7316,0.7426,0.756,0.7658,0.7689,0.7872,0.7884,0.7906,0.7951,0.7988,0.7988,0.7988,0.7988,0.7988,0.7988,0.7988,0.7988,1.8795,1.7642,1.6619,1.6463,1.5995,1.5658,1.5658,1.6069,1.6039,1.5053,1.5268,1.5222,1.451,1.4061,1.4053,1.4728,1.4115,1.387,1.4324,1.3426,1.2725,1.2305,1.2305,1.2305,1.2305,1.2392,1.2398,1.2305,1.2492,1.2492,1.2305,1.2398,1.2392,1.2305,1.2305,1.2305,1.2305,1.2305,1.2305,1.2305,1.2305,1.2305,1.2305,1.2305,1.2305,1.2305,1.2305,1.2305,1.2305,1.2305,1.2305,1.2305,1.2305,1.2445,1.2723,1.306,1.2926,1.271,1.2979,1.2759,1.2418,1.2325,1.2371,1.2418,1.2325,1.2305,1.2305,1.2305,1.2305,1.2331,1.2425,1.2445,1.2472,1.2572,1.2797,1.2931,1.2931,1.3073,1.3213,1.3213,1.3287,1.3259,1.3069,1.2835,1.2109,1.0687,1.0269,0.9357,0.7753,0.7316,0.7095,0.7095,0.7095,0.7095,0.7095,0.7095,0.7122,0.7214,0.7319,0.7467,0.7516,0.7719,0.7784,0.775,0.7901,0.7931,0.7889,0.7944,0.7988,0.7988,0.7988,0.7988,0.7988,0.7988,0.7988,0.7988,1.8404,1.797,1.7575,1.7108,1.6802,1.6602,1.6602,1.6224,1.5938,1.5896,1.5695,1.5822,1.6602,1.5991,1.6021,1.7311,1.65,1.6109,1.6584,1.511,1.3657,1.2355,1.2305,1.2305,1.2305,1.263,1.2636,1.2305,1.2906,1.2899,1.2311,1.2643,1.2623,1.2305,1.2305,1.2305,1.2305,1.2305,1.2305,1.2305,1.2305,1.2305,1.2305,1.2305,1.2305,1.2305,1.2305,1.2305,1.2305,1.2305,1.2305,1.2305,1.2305,1.2305,1.2305,1.2311,1.2305,1.2371,1.2703,1.2784,1.2717,1.2385,1.2563,1.2703,1.2371,1.2305,1.2305,1.2305,1.2305,1.2398,1.273,1.279,1.2891,1.316,1.3213,1.3213,1.3213,1.3213,1.322,1.322,1.3427,1.3177,1.2035,1.1118,1.0611,1.0611,0.9536,0.889,0.8938,0.7753,0.7095,0.7139,0.7095,0.7098,0.7098,0.7098,0.7217,0.7415,0.7419,0.7529,0.7811,0.7814,0.7896,0.7988,0.7988,0.7988,0.7988,0.7988,0.7988,0.7988,0.7988,0.7988,0.7988,0.7988,0.7988,0.7988,1.9431,1.884,1.828,1.8147,1.7821,1.7579,1.7579,1.7464,1.7283,1.6997,1.6886,1.6802,1.6704,1.6497,1.6638,1.7344,1.6794,1.6421,1.6456,1.5298,1.4453,1.4052,1.313,1.265,1.265,1.2529,1.2392,1.2305,1.273,1.2831,1.2656,1.2744,1.2737,1.2643,1.2392,1.2305,1.2305,1.2305,1.2305,1.2305,1.2305,1.2305,1.2305,1.2305,1.2305,1.2305,1.2305,1.2305,1.2305,1.2305,1.2305,1.2338,1.2583,1.2509,1.2385,1.2812,1.2786,1.267,1.2757,1.2784,1.2817,1.2906,1.2878,1.2764,1.267,1.2452,1.2365,1.261,1.265,1.2744,1.3019,1.3073,1.3106,1.32,1.334,1.3473,1.3473,1.3694,1.3821,1.3821,1.3901,1.3822,1.3474,1.242,1.1466,1.0654,0.9536,0.9336,1.0396,0.913,0.8711,0.9527,0.8083,0.7701,0.8495,0.7701,0.7326,0.7419,0.758,0.7726,0.7814,0.7874,0.7944,0.7988,0.7988,0.7988,0.7988,0.7988,0.7988,0.7988,0.7988,0.7988,0.7988,0.7988,0.7988,0.7988,1.9736,1.9248,1.8789,1.8412,1.8149,1.8008,1.8008,1.8008,1.792,1.7666,1.7637,1.7529,1.7233,1.7204,1.7344,1.7607,1.751,1.7314,1.7165,1.6528,1.606,1.5811,1.4901,1.3951,1.2971,1.2866,1.2779,1.2665,1.2953,1.3046,1.2965,1.2844,1.2784,1.2808,1.2438,1.2305,1.2305,1.2305,1.2305,1.2305,1.2305,1.2305,1.2305,1.2305,1.2305,1.2305,1.2305,1.2305,1.2305,1.2305,1.2305,1.2331,1.2549,1.2445,1.2371,1.2746,1.2837,1.2784,1.2784,1.2878,1.3006,1.3307,1.2973,1.2643,1.2757,1.2643,1.2603,1.2904,1.2965,1.3019,1.3327,1.3474,1.3561,1.3561,1.3801,1.3906,1.3793,1.3975,1.4088,1.4088,1.4088,1.3906,1.3428,1.2717,1.1809,1.0697,0.9536,0.9319,1.026,0.9055,0.8633,0.937,0.8135,0.7823,0.8497,0.7884,0.7546,0.7546,0.7726,0.7841,0.7906,0.7948,0.7988,0.7988,0.7988,0.7988,0.7988,0.7988,0.7988,0.7988,0.7988,0.7988,0.7988,0.7988,0.7988,0.7988,1.9492,1.9316,1.9043,1.8262,1.8125,1.8105,1.8076,1.8066,1.8047,1.8018,1.8008,1.8008,1.8008,1.8008,1.8008,1.8008,1.8393,1.861,1.8515,1.8416,1.8101,1.7488,1.7123,1.5819,1.3486,1.3608,1.3554,1.3213,1.346,1.3467,1.324,1.2998,1.2851,1.2811,1.2478,1.2325,1.2305,1.2305,1.2305,1.2305,1.2305,1.2305,1.2305,1.2305,1.2305,1.2305,1.2305,1.2305,1.2305,1.2331,1.2358,1.2385,1.2385,1.2385,1.2385,1.2385,1.261,1.2831,1.2831,1.2993,1.3273,1.35,1.2986,1.2458,1.2797,1.2844,1.2911,1.3186,1.3253,1.334,1.3586,1.3921,1.4128,1.4128,1.4349,1.4429,1.4162,1.4108,1.4088,1.4088,1.4088,1.3688,1.2589,1.2388,1.1909,1.0784,0.9731,0.9194,0.933,0.8341,0.782,0.7919,0.7842,0.7806,0.7759,0.7808,0.7824,0.7811,0.7824,0.7906,0.7988,0.7988,0.7988,0.7988,0.7988,0.7988,0.7988,0.7988,0.7988,0.7988,0.7988,0.7988,0.7988,0.7988,0.7988,0.7988,1.9814,1.9512,1.9228,1.9043,1.9014,1.8896,1.852,1.8461,1.8344,1.8057,1.8008,1.8008,1.8008,1.8008,1.8008,1.8008,1.8701,1.9438,2.0053,1.9303,1.8788,1.863,1.7702,1.6572,1.5167,1.4743,1.4109,1.3213,1.346,1.3573,1.3507,1.344,1.3327,1.3093,1.2824,1.2556,1.2305,1.2305,1.2305,1.2305,1.2305,1.2305,1.2305,1.2305,1.2305,1.2305,1.2305,1.2305,1.2338,1.261,1.2851,1.3013,1.3013,1.3013,1.3013,1.3013,1.306,1.3113,1.3113,1.316,1.3227,1.3287,1.316,1.3093,1.334,1.3273,1.3193,1.3447,1.3507,1.36,1.3935,1.4229,1.4429,1.4429,1.4482,1.4496,1.4436,1.4229,1.4088,1.4088,1.4088,1.3997,1.373,1.309,1.2354,1.1502,1.1049,1.082,1.0973,1.0653,1.0407,1.0352,0.9673,0.9231,0.9096,0.8349,0.788,0.7814,0.7884,0.7958,0.7988,0.7988,0.7988,0.7988,0.7988,0.7988,0.7988,0.7988,0.7988,0.7988,0.7988,0.7988,0.7988,0.7988,0.7988,0.7988,1.9951,1.9736,1.9521,1.9316,1.9287,1.9141,1.8666,1.8598,1.8451,1.8066,1.8008,1.8008,1.8008,1.8008,1.8174,1.8584,1.9209,1.9863,2.0566,2.0079,1.9766,1.9766,1.9195,1.8141,1.6519,1.6165,1.5235,1.3627,1.36,1.3673,1.3848,1.3527,1.3313,1.32,1.2924,1.2616,1.2305,1.2305,1.2305,1.2305,1.2305,1.2305,1.2305,1.2305,1.2305,1.2305,1.2305,1.2305,1.2371,1.2819,1.3018,1.3013,1.3166,1.3213,1.3213,1.3213,1.3307,1.3347,1.3247,1.3273,1.3373,1.3373,1.352,1.3627,1.36,1.3487,1.346,1.3794,1.3926,1.4066,1.4262,1.4643,1.489,1.475,1.485,1.489,1.475,1.4603,1.4546,1.4546,1.4546,1.4546,1.4546,1.3598,1.284,1.2461,1.1759,1.1466,1.1591,1.1542,1.1204,1.0597,1.0132,0.9563,0.8792,0.8245,0.7948,0.7874,0.7951,0.7988,0.7988,0.7988,0.7988,0.7988,0.7988,0.7988,0.7988,0.7988,0.7988,0.7988,0.7988,0.7988,0.7988,0.7988,0.7988,0.7988,2.0098,2.0029,1.9912,1.957,1.9512,1.9355,1.889,1.8822,1.8666,1.8281,1.8232,1.8232,1.8232,1.8232,1.8545,1.9326,1.9717,2.0098,2.0576,2.0605,2.0605,2.0605,2.0605,1.9678,1.7617,1.7577,1.6445,1.4088,1.3841,1.3848,1.4075,1.3587,1.3333,1.3273,1.3005,1.2697,1.2378,1.2325,1.2305,1.2305,1.2305,1.2331,1.2378,1.2378,1.2412,1.2458,1.2458,1.2492,1.2605,1.3113,1.3146,1.3058,1.328,1.336,1.336,1.336,1.3527,1.3626,1.3427,1.3533,1.3753,1.3753,1.4021,1.4175,1.3886,1.3826,1.3935,1.4188,1.4429,1.4596,1.4596,1.5037,1.5317,1.5122,1.5237,1.5311,1.5115,1.5042,1.5008,1.5008,1.5008,1.5028,1.5075,1.4159,1.3483,1.3341,1.2457,1.1843,1.1752,1.1952,1.1418,1.0043,1.0194,0.9558,0.8041,0.7988,0.7988,0.7988,0.7988,0.7988,0.7988,0.7988,0.7988,0.7988,0.8237,0.8237,0.8041,0.8237,0.8187,0.7988,0.7988,0.7988,0.7988,0.7988,0.7988,0.7988,2.0527,2.0517,2.0498,2.0439,2.0429,2.0282,1.9814,1.9699,1.959,1.917,1.9111,1.9111,1.9111,1.9111,1.9307,1.9785,1.9883,2.0098,2.0576,2.0605,2.0605,2.0605,2.0605,2.004,1.8798,1.8758,1.7261,1.4088,1.4048,1.4048,1.4088,1.4008,1.3828,1.3533,1.328,1.2979,1.2703,1.2412,1.2305,1.2305,1.2305,1.2458,1.2723,1.2723,1.2891,1.3086,1.3086,1.3247,1.3433,1.3513,1.3728,1.3915,1.3955,1.3968,1.3968,1.3968,1.3995,1.4015,1.3975,1.4182,1.4359,1.4359,1.4623,1.4881,1.4841,1.4827,1.4841,1.4881,1.4921,1.4948,1.4948,1.517,1.5384,1.5344,1.5371,1.5384,1.5344,1.5169,1.5008,1.5008,1.5008,1.5109,1.5311,1.5199,1.4722,1.3856,1.3677,1.3067,1.1948,1.2956,1.2485,1.0096,1.1072,1.0485,0.8038,0.7988,0.7988,0.7988,0.7988,0.7988,0.7988,0.7988,0.7988,0.8088,0.9213,0.9069,0.8088,0.9266,0.9069,0.7988,0.7988,0.7988,0.7988,0.7988,0.7988,0.7988,2.0605,2.0605,2.0605,2.0605,2.0605,2.0458,1.998,1.9912,1.9766,1.9346,1.9287,1.9287,1.9287,1.9502,1.9717,1.9893,2.0137,2.04,2.0595,2.0605,2.0605,2.0605,2.0605,2.0079,1.9036,1.8997,1.7698,1.497,1.497,1.4699,1.4088,1.4088,1.3928,1.3593,1.3467,1.3287,1.2993,1.2866,1.2812,1.2812,1.2812,1.2886,1.3006,1.3006,1.3093,1.3233,1.3353,1.3387,1.3413,1.3781,1.3868,1.3868,1.4035,1.4088,1.4122,1.4282,1.4215,1.4162,1.4489,1.4549,1.4563,1.473,1.499,1.5204,1.5204,1.5331,1.5357,1.5075,1.5142,1.5204,1.5204,1.5444,1.5638,1.5638,1.5638,1.5638,1.5638,1.5524,1.5444,1.5444,1.5444,1.5498,1.5625,1.5638,1.545,1.4984,1.4949,1.4704,1.413,1.4657,1.4124,1.2231,1.2716,1.2086,1.019,1.019,1.019,1.019,1.019,0.9801,0.9118,0.9118,0.9509,1.019,1.0047,0.9657,0.9118,0.897,0.8531,0.7988,0.7988,0.7988,0.7988,0.7988,0.7988,0.8088]}]]